<?xml version="1.0" encoding="UTF-8" standalone="no" ?>
<gpx xmlns="http://www.topografix.com/GPX/1/1" xmlns:xsi="http://www.w3.org/2001/XMLSchema-instance" xsi:schemaLocation="http://www.topografix.com/GPX/1/1 http://www.topografix.com/GPX/1/1/gpx.xsd" version="1.1" creator="VisuGPX - https://www.visugpx.com">
  <metadata>
    <name>Sortie VTT seboine</name>
    <desc><![CDATA[sortie VTT du 16 mars 2012]]></desc>
  </metadata>
  <trk>
    <name><![CDATA[17 mars 2012]]></name>
    <trkseg>
      <trkpt lat="48.68547" lon="6.16002">
        <ele>261</ele>
        <time>2012-03-17T13:10:18Z</time>
      </trkpt>
      <trkpt lat="48.6855" lon="6.15995">
        <ele>258</ele>
        <time>2012-03-17T13:10:20Z</time>
      </trkpt>
      <trkpt lat="48.68554" lon="6.15987">
        <ele>251</ele>
        <time>2012-03-17T13:10:22Z</time>
      </trkpt>
      <trkpt lat="48.68556" lon="6.15981">
        <ele>250</ele>
        <time>2012-03-17T13:10:24Z</time>
      </trkpt>
      <trkpt lat="48.68559" lon="6.15977">
        <ele>248</ele>
        <time>2012-03-17T13:10:26Z</time>
      </trkpt>
      <trkpt lat="48.68563" lon="6.15973">
        <ele>247</ele>
        <time>2012-03-17T13:10:28Z</time>
      </trkpt>
      <trkpt lat="48.68565" lon="6.15971">
        <ele>250</ele>
        <time>2012-03-17T13:10:30Z</time>
      </trkpt>
      <trkpt lat="48.68566" lon="6.15967">
        <ele>251</ele>
        <time>2012-03-17T13:10:32Z</time>
      </trkpt>
      <trkpt lat="48.68562" lon="6.15965">
        <ele>254</ele>
        <time>2012-03-17T13:10:34Z</time>
      </trkpt>
      <trkpt lat="48.68556" lon="6.15965">
        <ele>251</ele>
        <time>2012-03-17T13:10:36Z</time>
      </trkpt>
      <trkpt lat="48.6855" lon="6.15969">
        <ele>252</ele>
        <time>2012-03-17T13:10:44Z</time>
      </trkpt>
      <trkpt lat="48.68552" lon="6.15967">
        <ele>252</ele>
        <time>2012-03-17T13:10:50Z</time>
      </trkpt>
      <trkpt lat="48.68556" lon="6.15966">
        <ele>251</ele>
        <time>2012-03-17T13:10:52Z</time>
      </trkpt>
      <trkpt lat="48.68559" lon="6.15964">
        <ele>245</ele>
        <time>2012-03-17T13:10:54Z</time>
      </trkpt>
      <trkpt lat="48.68564" lon="6.15964">
        <ele>245</ele>
        <time>2012-03-17T13:10:56Z</time>
      </trkpt>
      <trkpt lat="48.68568" lon="6.15962">
        <ele>246</ele>
        <time>2012-03-17T13:10:58Z</time>
      </trkpt>
      <trkpt lat="48.68573" lon="6.1596">
        <ele>243</ele>
        <time>2012-03-17T13:11:00Z</time>
      </trkpt>
      <trkpt lat="48.68578" lon="6.15958">
        <ele>240</ele>
        <time>2012-03-17T13:11:02Z</time>
      </trkpt>
      <trkpt lat="48.68583" lon="6.15954">
        <ele>240</ele>
        <time>2012-03-17T13:11:04Z</time>
      </trkpt>
      <trkpt lat="48.68587" lon="6.15951">
        <ele>240</ele>
        <time>2012-03-17T13:11:06Z</time>
      </trkpt>
      <trkpt lat="48.68592" lon="6.15947">
        <ele>240</ele>
        <time>2012-03-17T13:11:08Z</time>
      </trkpt>
      <trkpt lat="48.68596" lon="6.15945">
        <ele>243</ele>
        <time>2012-03-17T13:11:10Z</time>
      </trkpt>
      <trkpt lat="48.686" lon="6.15942">
        <ele>245</ele>
        <time>2012-03-17T13:11:12Z</time>
      </trkpt>
      <trkpt lat="48.68605" lon="6.15939">
        <ele>244</ele>
        <time>2012-03-17T13:11:14Z</time>
      </trkpt>
      <trkpt lat="48.6861" lon="6.15936">
        <ele>242</ele>
        <time>2012-03-17T13:11:16Z</time>
      </trkpt>
      <trkpt lat="48.68614" lon="6.15931">
        <ele>242</ele>
        <time>2012-03-17T13:11:18Z</time>
      </trkpt>
      <trkpt lat="48.68615" lon="6.15922">
        <ele>238</ele>
        <time>2012-03-17T13:11:20Z</time>
      </trkpt>
      <trkpt lat="48.68615" lon="6.15911">
        <ele>236</ele>
        <time>2012-03-17T13:11:22Z</time>
      </trkpt>
      <trkpt lat="48.68613" lon="6.15901">
        <ele>235</ele>
        <time>2012-03-17T13:11:24Z</time>
      </trkpt>
      <trkpt lat="48.68612" lon="6.1589">
        <ele>230</ele>
        <time>2012-03-17T13:11:26Z</time>
      </trkpt>
      <trkpt lat="48.68609" lon="6.15878">
        <ele>229</ele>
        <time>2012-03-17T13:11:28Z</time>
      </trkpt>
      <trkpt lat="48.68608" lon="6.15864">
        <ele>228</ele>
        <time>2012-03-17T13:11:30Z</time>
      </trkpt>
      <trkpt lat="48.68606" lon="6.15851">
        <ele>227</ele>
        <time>2012-03-17T13:11:32Z</time>
      </trkpt>
      <trkpt lat="48.68603" lon="6.15837">
        <ele>227</ele>
        <time>2012-03-17T13:11:34Z</time>
      </trkpt>
      <trkpt lat="48.68601" lon="6.15824">
        <ele>227</ele>
        <time>2012-03-17T13:11:36Z</time>
      </trkpt>
      <trkpt lat="48.68598" lon="6.15813">
        <ele>227</ele>
        <time>2012-03-17T13:11:38Z</time>
      </trkpt>
      <trkpt lat="48.68595" lon="6.15802">
        <ele>229</ele>
        <time>2012-03-17T13:11:40Z</time>
      </trkpt>
      <trkpt lat="48.6859" lon="6.15795">
        <ele>234</ele>
        <time>2012-03-17T13:11:42Z</time>
      </trkpt>
      <trkpt lat="48.68586" lon="6.15785">
        <ele>236</ele>
        <time>2012-03-17T13:11:44Z</time>
      </trkpt>
      <trkpt lat="48.68583" lon="6.15773">
        <ele>236</ele>
        <time>2012-03-17T13:11:46Z</time>
      </trkpt>
      <trkpt lat="48.68578" lon="6.15764">
        <ele>236</ele>
        <time>2012-03-17T13:11:48Z</time>
      </trkpt>
      <trkpt lat="48.68572" lon="6.15754">
        <ele>237</ele>
        <time>2012-03-17T13:11:50Z</time>
      </trkpt>
      <trkpt lat="48.68567" lon="6.15744">
        <ele>237</ele>
        <time>2012-03-17T13:11:52Z</time>
      </trkpt>
      <trkpt lat="48.68562" lon="6.15734">
        <ele>238</ele>
        <time>2012-03-17T13:11:54Z</time>
      </trkpt>
      <trkpt lat="48.68559" lon="6.15722">
        <ele>236</ele>
        <time>2012-03-17T13:11:56Z</time>
      </trkpt>
      <trkpt lat="48.68555" lon="6.15709">
        <ele>233</ele>
        <time>2012-03-17T13:11:58Z</time>
      </trkpt>
      <trkpt lat="48.68551" lon="6.15698">
        <ele>232</ele>
        <time>2012-03-17T13:12:00Z</time>
      </trkpt>
      <trkpt lat="48.68548" lon="6.15686">
        <ele>236</ele>
        <time>2012-03-17T13:12:02Z</time>
      </trkpt>
      <trkpt lat="48.68544" lon="6.15674">
        <ele>236</ele>
        <time>2012-03-17T13:12:04Z</time>
      </trkpt>
      <trkpt lat="48.68541" lon="6.15662">
        <ele>235</ele>
        <time>2012-03-17T13:12:06Z</time>
      </trkpt>
      <trkpt lat="48.68536" lon="6.1565">
        <ele>232</ele>
        <time>2012-03-17T13:12:08Z</time>
      </trkpt>
      <trkpt lat="48.68532" lon="6.15637">
        <ele>229</ele>
        <time>2012-03-17T13:12:10Z</time>
      </trkpt>
      <trkpt lat="48.68528" lon="6.15627">
        <ele>229</ele>
        <time>2012-03-17T13:12:12Z</time>
      </trkpt>
      <trkpt lat="48.68525" lon="6.15616">
        <ele>229</ele>
        <time>2012-03-17T13:12:14Z</time>
      </trkpt>
      <trkpt lat="48.68522" lon="6.15604">
        <ele>228</ele>
        <time>2012-03-17T13:12:16Z</time>
      </trkpt>
      <trkpt lat="48.68519" lon="6.15594">
        <ele>228</ele>
        <time>2012-03-17T13:12:18Z</time>
      </trkpt>
      <trkpt lat="48.68515" lon="6.15583">
        <ele>229</ele>
        <time>2012-03-17T13:12:20Z</time>
      </trkpt>
      <trkpt lat="48.68512" lon="6.1557">
        <ele>226</ele>
        <time>2012-03-17T13:12:22Z</time>
      </trkpt>
      <trkpt lat="48.68508" lon="6.15558">
        <ele>224</ele>
        <time>2012-03-17T13:12:24Z</time>
      </trkpt>
      <trkpt lat="48.68505" lon="6.15546">
        <ele>227</ele>
        <time>2012-03-17T13:12:26Z</time>
      </trkpt>
      <trkpt lat="48.68503" lon="6.15534">
        <ele>227</ele>
        <time>2012-03-17T13:12:28Z</time>
      </trkpt>
      <trkpt lat="48.68499" lon="6.15521">
        <ele>228</ele>
        <time>2012-03-17T13:12:30Z</time>
      </trkpt>
      <trkpt lat="48.68495" lon="6.15508">
        <ele>229</ele>
        <time>2012-03-17T13:12:32Z</time>
      </trkpt>
      <trkpt lat="48.68491" lon="6.15495">
        <ele>231</ele>
        <time>2012-03-17T13:12:34Z</time>
      </trkpt>
      <trkpt lat="48.68487" lon="6.15484">
        <ele>233</ele>
        <time>2012-03-17T13:12:36Z</time>
      </trkpt>
      <trkpt lat="48.68482" lon="6.15471">
        <ele>232</ele>
        <time>2012-03-17T13:12:38Z</time>
      </trkpt>
      <trkpt lat="48.68478" lon="6.15457">
        <ele>231</ele>
        <time>2012-03-17T13:12:40Z</time>
      </trkpt>
      <trkpt lat="48.68474" lon="6.15446">
        <ele>234</ele>
        <time>2012-03-17T13:12:42Z</time>
      </trkpt>
      <trkpt lat="48.6847" lon="6.15433">
        <ele>233</ele>
        <time>2012-03-17T13:12:44Z</time>
      </trkpt>
      <trkpt lat="48.68468" lon="6.15419">
        <ele>231</ele>
        <time>2012-03-17T13:12:46Z</time>
      </trkpt>
      <trkpt lat="48.68466" lon="6.15406">
        <ele>231</ele>
        <time>2012-03-17T13:12:48Z</time>
      </trkpt>
      <trkpt lat="48.68464" lon="6.15395">
        <ele>231</ele>
        <time>2012-03-17T13:12:50Z</time>
      </trkpt>
      <trkpt lat="48.68463" lon="6.15383">
        <ele>231</ele>
        <time>2012-03-17T13:12:52Z</time>
      </trkpt>
      <trkpt lat="48.68461" lon="6.15373">
        <ele>232</ele>
        <time>2012-03-17T13:12:54Z</time>
      </trkpt>
      <trkpt lat="48.6846" lon="6.15362">
        <ele>233</ele>
        <time>2012-03-17T13:12:56Z</time>
      </trkpt>
      <trkpt lat="48.68457" lon="6.15351">
        <ele>234</ele>
        <time>2012-03-17T13:12:58Z</time>
      </trkpt>
      <trkpt lat="48.68454" lon="6.1534">
        <ele>234</ele>
        <time>2012-03-17T13:13:00Z</time>
      </trkpt>
      <trkpt lat="48.68452" lon="6.15329">
        <ele>234</ele>
        <time>2012-03-17T13:13:02Z</time>
      </trkpt>
      <trkpt lat="48.6845" lon="6.15318">
        <ele>234</ele>
        <time>2012-03-17T13:13:04Z</time>
      </trkpt>
      <trkpt lat="48.68448" lon="6.15305">
        <ele>233</ele>
        <time>2012-03-17T13:13:06Z</time>
      </trkpt>
      <trkpt lat="48.68445" lon="6.15294">
        <ele>232</ele>
        <time>2012-03-17T13:13:08Z</time>
      </trkpt>
      <trkpt lat="48.68442" lon="6.15282">
        <ele>231</ele>
        <time>2012-03-17T13:13:10Z</time>
      </trkpt>
      <trkpt lat="48.6844" lon="6.1527">
        <ele>230</ele>
        <time>2012-03-17T13:13:12Z</time>
      </trkpt>
      <trkpt lat="48.68437" lon="6.15259">
        <ele>228</ele>
        <time>2012-03-17T13:13:14Z</time>
      </trkpt>
      <trkpt lat="48.68435" lon="6.15247">
        <ele>231</ele>
        <time>2012-03-17T13:13:16Z</time>
      </trkpt>
      <trkpt lat="48.68433" lon="6.15237">
        <ele>231</ele>
        <time>2012-03-17T13:13:18Z</time>
      </trkpt>
      <trkpt lat="48.68431" lon="6.15229">
        <ele>229</ele>
        <time>2012-03-17T13:13:20Z</time>
      </trkpt>
      <trkpt lat="48.6843" lon="6.15218">
        <ele>230</ele>
        <time>2012-03-17T13:13:22Z</time>
      </trkpt>
      <trkpt lat="48.68427" lon="6.15207">
        <ele>232</ele>
        <time>2012-03-17T13:13:24Z</time>
      </trkpt>
      <trkpt lat="48.68425" lon="6.15196">
        <ele>230</ele>
        <time>2012-03-17T13:13:26Z</time>
      </trkpt>
      <trkpt lat="48.68422" lon="6.15184">
        <ele>228</ele>
        <time>2012-03-17T13:13:28Z</time>
      </trkpt>
      <trkpt lat="48.6842" lon="6.15173">
        <ele>227</ele>
        <time>2012-03-17T13:13:30Z</time>
      </trkpt>
      <trkpt lat="48.68418" lon="6.15163">
        <ele>228</ele>
        <time>2012-03-17T13:13:32Z</time>
      </trkpt>
      <trkpt lat="48.68416" lon="6.15153">
        <ele>227</ele>
        <time>2012-03-17T13:13:34Z</time>
      </trkpt>
      <trkpt lat="48.68413" lon="6.15143">
        <ele>225</ele>
        <time>2012-03-17T13:13:36Z</time>
      </trkpt>
      <trkpt lat="48.6841" lon="6.15135">
        <ele>226</ele>
        <time>2012-03-17T13:13:38Z</time>
      </trkpt>
      <trkpt lat="48.68407" lon="6.15125">
        <ele>226</ele>
        <time>2012-03-17T13:13:40Z</time>
      </trkpt>
      <trkpt lat="48.68405" lon="6.15115">
        <ele>224</ele>
        <time>2012-03-17T13:13:42Z</time>
      </trkpt>
      <trkpt lat="48.68403" lon="6.15107">
        <ele>225</ele>
        <time>2012-03-17T13:13:44Z</time>
      </trkpt>
      <trkpt lat="48.68401" lon="6.15098">
        <ele>223</ele>
        <time>2012-03-17T13:13:46Z</time>
      </trkpt>
      <trkpt lat="48.68399" lon="6.15089">
        <ele>223</ele>
        <time>2012-03-17T13:13:48Z</time>
      </trkpt>
      <trkpt lat="48.68396" lon="6.15081">
        <ele>223</ele>
        <time>2012-03-17T13:13:50Z</time>
      </trkpt>
      <trkpt lat="48.68392" lon="6.15074">
        <ele>223</ele>
        <time>2012-03-17T13:13:52Z</time>
      </trkpt>
      <trkpt lat="48.68389" lon="6.15066">
        <ele>223</ele>
        <time>2012-03-17T13:13:54Z</time>
      </trkpt>
      <trkpt lat="48.68384" lon="6.15058">
        <ele>222</ele>
        <time>2012-03-17T13:13:56Z</time>
      </trkpt>
      <trkpt lat="48.6838" lon="6.15049">
        <ele>220</ele>
        <time>2012-03-17T13:13:58Z</time>
      </trkpt>
      <trkpt lat="48.68375" lon="6.15042">
        <ele>219</ele>
        <time>2012-03-17T13:14:00Z</time>
      </trkpt>
      <trkpt lat="48.68371" lon="6.15034">
        <ele>219</ele>
        <time>2012-03-17T13:14:02Z</time>
      </trkpt>
      <trkpt lat="48.68367" lon="6.15027">
        <ele>219</ele>
        <time>2012-03-17T13:14:04Z</time>
      </trkpt>
      <trkpt lat="48.68362" lon="6.1502">
        <ele>219</ele>
        <time>2012-03-17T13:14:06Z</time>
      </trkpt>
      <trkpt lat="48.68358" lon="6.15014">
        <ele>220</ele>
        <time>2012-03-17T13:14:08Z</time>
      </trkpt>
      <trkpt lat="48.68355" lon="6.15006">
        <ele>220</ele>
        <time>2012-03-17T13:14:10Z</time>
      </trkpt>
      <trkpt lat="48.68352" lon="6.14999">
        <ele>221</ele>
        <time>2012-03-17T13:14:12Z</time>
      </trkpt>
      <trkpt lat="48.68348" lon="6.14992">
        <ele>222</ele>
        <time>2012-03-17T13:14:14Z</time>
      </trkpt>
      <trkpt lat="48.68345" lon="6.14985">
        <ele>222</ele>
        <time>2012-03-17T13:14:16Z</time>
      </trkpt>
      <trkpt lat="48.68341" lon="6.14978">
        <ele>223</ele>
        <time>2012-03-17T13:14:18Z</time>
      </trkpt>
      <trkpt lat="48.68338" lon="6.14972">
        <ele>224</ele>
        <time>2012-03-17T13:14:20Z</time>
      </trkpt>
      <trkpt lat="48.68333" lon="6.14966">
        <ele>225</ele>
        <time>2012-03-17T13:14:22Z</time>
      </trkpt>
      <trkpt lat="48.68329" lon="6.14961">
        <ele>226</ele>
        <time>2012-03-17T13:14:24Z</time>
      </trkpt>
      <trkpt lat="48.68326" lon="6.14955">
        <ele>228</ele>
        <time>2012-03-17T13:14:26Z</time>
      </trkpt>
      <trkpt lat="48.68323" lon="6.14949">
        <ele>227</ele>
        <time>2012-03-17T13:14:28Z</time>
      </trkpt>
      <trkpt lat="48.68321" lon="6.14942">
        <ele>228</ele>
        <time>2012-03-17T13:14:30Z</time>
      </trkpt>
      <trkpt lat="48.68318" lon="6.14935">
        <ele>227</ele>
        <time>2012-03-17T13:14:32Z</time>
      </trkpt>
      <trkpt lat="48.68315" lon="6.14929">
        <ele>229</ele>
        <time>2012-03-17T13:14:34Z</time>
      </trkpt>
      <trkpt lat="48.68312" lon="6.14921">
        <ele>228</ele>
        <time>2012-03-17T13:14:36Z</time>
      </trkpt>
      <trkpt lat="48.68309" lon="6.14914">
        <ele>228</ele>
        <time>2012-03-17T13:14:38Z</time>
      </trkpt>
      <trkpt lat="48.68305" lon="6.14907">
        <ele>228</ele>
        <time>2012-03-17T13:14:40Z</time>
      </trkpt>
      <trkpt lat="48.68301" lon="6.149">
        <ele>229</ele>
        <time>2012-03-17T13:14:42Z</time>
      </trkpt>
      <trkpt lat="48.68298" lon="6.14894">
        <ele>229</ele>
        <time>2012-03-17T13:14:44Z</time>
      </trkpt>
      <trkpt lat="48.68293" lon="6.14889">
        <ele>229</ele>
        <time>2012-03-17T13:14:46Z</time>
      </trkpt>
      <trkpt lat="48.68289" lon="6.14884">
        <ele>229</ele>
        <time>2012-03-17T13:14:48Z</time>
      </trkpt>
      <trkpt lat="48.68285" lon="6.14879">
        <ele>230</ele>
        <time>2012-03-17T13:14:50Z</time>
      </trkpt>
      <trkpt lat="48.68281" lon="6.14874">
        <ele>230</ele>
        <time>2012-03-17T13:14:52Z</time>
      </trkpt>
      <trkpt lat="48.68277" lon="6.1487">
        <ele>231</ele>
        <time>2012-03-17T13:14:54Z</time>
      </trkpt>
      <trkpt lat="48.68273" lon="6.14865">
        <ele>231</ele>
        <time>2012-03-17T13:14:56Z</time>
      </trkpt>
      <trkpt lat="48.6827" lon="6.1486">
        <ele>232</ele>
        <time>2012-03-17T13:14:58Z</time>
      </trkpt>
      <trkpt lat="48.68267" lon="6.14856">
        <ele>233</ele>
        <time>2012-03-17T13:15:00Z</time>
      </trkpt>
      <trkpt lat="48.68263" lon="6.1485">
        <ele>233</ele>
        <time>2012-03-17T13:15:02Z</time>
      </trkpt>
      <trkpt lat="48.68259" lon="6.14845">
        <ele>233</ele>
        <time>2012-03-17T13:15:04Z</time>
      </trkpt>
      <trkpt lat="48.68256" lon="6.14841">
        <ele>235</ele>
        <time>2012-03-17T13:15:06Z</time>
      </trkpt>
      <trkpt lat="48.68251" lon="6.14835">
        <ele>237</ele>
        <time>2012-03-17T13:15:08Z</time>
      </trkpt>
      <trkpt lat="48.68246" lon="6.14829">
        <ele>236</ele>
        <time>2012-03-17T13:15:10Z</time>
      </trkpt>
      <trkpt lat="48.68242" lon="6.14824">
        <ele>236</ele>
        <time>2012-03-17T13:15:12Z</time>
      </trkpt>
      <trkpt lat="48.68237" lon="6.14819">
        <ele>235</ele>
        <time>2012-03-17T13:15:14Z</time>
      </trkpt>
      <trkpt lat="48.68234" lon="6.14814">
        <ele>236</ele>
        <time>2012-03-17T13:15:16Z</time>
      </trkpt>
      <trkpt lat="48.68231" lon="6.14807">
        <ele>235</ele>
        <time>2012-03-17T13:15:18Z</time>
      </trkpt>
      <trkpt lat="48.68228" lon="6.14801">
        <ele>236</ele>
        <time>2012-03-17T13:15:20Z</time>
      </trkpt>
      <trkpt lat="48.68224" lon="6.14796">
        <ele>237</ele>
        <time>2012-03-17T13:15:22Z</time>
      </trkpt>
      <trkpt lat="48.6822" lon="6.1479">
        <ele>237</ele>
        <time>2012-03-17T13:15:24Z</time>
      </trkpt>
      <trkpt lat="48.68219" lon="6.14783">
        <ele>238</ele>
        <time>2012-03-17T13:15:26Z</time>
      </trkpt>
      <trkpt lat="48.68216" lon="6.14776">
        <ele>237</ele>
        <time>2012-03-17T13:15:28Z</time>
      </trkpt>
      <trkpt lat="48.68213" lon="6.1477">
        <ele>238</ele>
        <time>2012-03-17T13:15:30Z</time>
      </trkpt>
      <trkpt lat="48.6821" lon="6.14764">
        <ele>238</ele>
        <time>2012-03-17T13:15:32Z</time>
      </trkpt>
      <trkpt lat="48.68206" lon="6.14757">
        <ele>239</ele>
        <time>2012-03-17T13:15:34Z</time>
      </trkpt>
      <trkpt lat="48.682" lon="6.1475">
        <ele>238</ele>
        <time>2012-03-17T13:15:36Z</time>
      </trkpt>
      <trkpt lat="48.68195" lon="6.14742">
        <ele>237</ele>
        <time>2012-03-17T13:15:38Z</time>
      </trkpt>
      <trkpt lat="48.68191" lon="6.14735">
        <ele>236</ele>
        <time>2012-03-17T13:15:40Z</time>
      </trkpt>
      <trkpt lat="48.68185" lon="6.14727">
        <ele>234</ele>
        <time>2012-03-17T13:15:42Z</time>
      </trkpt>
      <trkpt lat="48.68179" lon="6.14719">
        <ele>232</ele>
        <time>2012-03-17T13:15:44Z</time>
      </trkpt>
      <trkpt lat="48.68174" lon="6.14712">
        <ele>233</ele>
        <time>2012-03-17T13:15:46Z</time>
      </trkpt>
      <trkpt lat="48.6817" lon="6.14705">
        <ele>232</ele>
        <time>2012-03-17T13:15:48Z</time>
      </trkpt>
      <trkpt lat="48.68166" lon="6.14697">
        <ele>233</ele>
        <time>2012-03-17T13:15:50Z</time>
      </trkpt>
      <trkpt lat="48.6816" lon="6.14688">
        <ele>231</ele>
        <time>2012-03-17T13:15:52Z</time>
      </trkpt>
      <trkpt lat="48.68155" lon="6.14678">
        <ele>232</ele>
        <time>2012-03-17T13:15:54Z</time>
      </trkpt>
      <trkpt lat="48.6815" lon="6.14668">
        <ele>233</ele>
        <time>2012-03-17T13:15:56Z</time>
      </trkpt>
      <trkpt lat="48.68144" lon="6.14658">
        <ele>233</ele>
        <time>2012-03-17T13:15:58Z</time>
      </trkpt>
      <trkpt lat="48.68138" lon="6.14648">
        <ele>234</ele>
        <time>2012-03-17T13:16:00Z</time>
      </trkpt>
      <trkpt lat="48.68132" lon="6.14635">
        <ele>233</ele>
        <time>2012-03-17T13:16:02Z</time>
      </trkpt>
      <trkpt lat="48.68126" lon="6.14623">
        <ele>233</ele>
        <time>2012-03-17T13:16:04Z</time>
      </trkpt>
      <trkpt lat="48.6812" lon="6.14613">
        <ele>233</ele>
        <time>2012-03-17T13:16:06Z</time>
      </trkpt>
      <trkpt lat="48.68115" lon="6.14602">
        <ele>233</ele>
        <time>2012-03-17T13:16:08Z</time>
      </trkpt>
      <trkpt lat="48.68108" lon="6.14591">
        <ele>232</ele>
        <time>2012-03-17T13:16:10Z</time>
      </trkpt>
      <trkpt lat="48.68103" lon="6.1458">
        <ele>230</ele>
        <time>2012-03-17T13:16:12Z</time>
      </trkpt>
      <trkpt lat="48.68098" lon="6.1457">
        <ele>231</ele>
        <time>2012-03-17T13:16:14Z</time>
      </trkpt>
      <trkpt lat="48.68095" lon="6.14561">
        <ele>232</ele>
        <time>2012-03-17T13:16:16Z</time>
      </trkpt>
      <trkpt lat="48.68092" lon="6.14553">
        <ele>232</ele>
        <time>2012-03-17T13:16:18Z</time>
      </trkpt>
      <trkpt lat="48.68087" lon="6.14543">
        <ele>234</ele>
        <time>2012-03-17T13:16:20Z</time>
      </trkpt>
      <trkpt lat="48.68085" lon="6.14534">
        <ele>234</ele>
        <time>2012-03-17T13:16:22Z</time>
      </trkpt>
      <trkpt lat="48.68081" lon="6.14526">
        <ele>233</ele>
        <time>2012-03-17T13:16:24Z</time>
      </trkpt>
      <trkpt lat="48.68076" lon="6.14519">
        <ele>233</ele>
        <time>2012-03-17T13:16:26Z</time>
      </trkpt>
      <trkpt lat="48.68071" lon="6.14511">
        <ele>232</ele>
        <time>2012-03-17T13:16:28Z</time>
      </trkpt>
      <trkpt lat="48.68066" lon="6.14503">
        <ele>231</ele>
        <time>2012-03-17T13:16:30Z</time>
      </trkpt>
      <trkpt lat="48.68061" lon="6.14496">
        <ele>232</ele>
        <time>2012-03-17T13:16:32Z</time>
      </trkpt>
      <trkpt lat="48.68057" lon="6.14489">
        <ele>233</ele>
        <time>2012-03-17T13:16:34Z</time>
      </trkpt>
      <trkpt lat="48.68053" lon="6.14482">
        <ele>234</ele>
        <time>2012-03-17T13:16:36Z</time>
      </trkpt>
      <trkpt lat="48.6805" lon="6.14475">
        <ele>234</ele>
        <time>2012-03-17T13:16:38Z</time>
      </trkpt>
      <trkpt lat="48.68047" lon="6.14467">
        <ele>233</ele>
        <time>2012-03-17T13:16:40Z</time>
      </trkpt>
      <trkpt lat="48.68045" lon="6.14461">
        <ele>233</ele>
        <time>2012-03-17T13:16:42Z</time>
      </trkpt>
      <trkpt lat="48.68044" lon="6.14456">
        <ele>234</ele>
        <time>2012-03-17T13:16:44Z</time>
      </trkpt>
      <trkpt lat="48.68043" lon="6.1445">
        <ele>235</ele>
        <time>2012-03-17T13:16:46Z</time>
      </trkpt>
      <trkpt lat="48.68038" lon="6.14447">
        <ele>234</ele>
        <time>2012-03-17T13:16:48Z</time>
      </trkpt>
      <trkpt lat="48.68035" lon="6.14442">
        <ele>235</ele>
        <time>2012-03-17T13:16:50Z</time>
      </trkpt>
      <trkpt lat="48.68032" lon="6.14435">
        <ele>235</ele>
        <time>2012-03-17T13:16:52Z</time>
      </trkpt>
      <trkpt lat="48.68028" lon="6.14428">
        <ele>235</ele>
        <time>2012-03-17T13:16:54Z</time>
      </trkpt>
      <trkpt lat="48.68025" lon="6.14422">
        <ele>235</ele>
        <time>2012-03-17T13:16:56Z</time>
      </trkpt>
      <trkpt lat="48.68021" lon="6.14414">
        <ele>235</ele>
        <time>2012-03-17T13:16:58Z</time>
      </trkpt>
      <trkpt lat="48.68017" lon="6.14407">
        <ele>234</ele>
        <time>2012-03-17T13:17:00Z</time>
      </trkpt>
      <trkpt lat="48.68012" lon="6.144">
        <ele>234</ele>
        <time>2012-03-17T13:17:02Z</time>
      </trkpt>
      <trkpt lat="48.68008" lon="6.14392">
        <ele>233</ele>
        <time>2012-03-17T13:17:04Z</time>
      </trkpt>
      <trkpt lat="48.68005" lon="6.14384">
        <ele>232</ele>
        <time>2012-03-17T13:17:06Z</time>
      </trkpt>
      <trkpt lat="48.68001" lon="6.14377">
        <ele>233</ele>
        <time>2012-03-17T13:17:08Z</time>
      </trkpt>
      <trkpt lat="48.67997" lon="6.1437">
        <ele>234</ele>
        <time>2012-03-17T13:17:10Z</time>
      </trkpt>
      <trkpt lat="48.67994" lon="6.14366">
        <ele>236</ele>
        <time>2012-03-17T13:17:12Z</time>
      </trkpt>
      <trkpt lat="48.67991" lon="6.14359">
        <ele>236</ele>
        <time>2012-03-17T13:17:14Z</time>
      </trkpt>
      <trkpt lat="48.67987" lon="6.14352">
        <ele>237</ele>
        <time>2012-03-17T13:17:16Z</time>
      </trkpt>
      <trkpt lat="48.67984" lon="6.14345">
        <ele>236</ele>
        <time>2012-03-17T13:17:18Z</time>
      </trkpt>
      <trkpt lat="48.6798" lon="6.14338">
        <ele>235</ele>
        <time>2012-03-17T13:17:20Z</time>
      </trkpt>
      <trkpt lat="48.67976" lon="6.14333">
        <ele>235</ele>
        <time>2012-03-17T13:17:22Z</time>
      </trkpt>
      <trkpt lat="48.67973" lon="6.14327">
        <ele>235</ele>
        <time>2012-03-17T13:17:24Z</time>
      </trkpt>
      <trkpt lat="48.67969" lon="6.14322">
        <ele>233</ele>
        <time>2012-03-17T13:17:26Z</time>
      </trkpt>
      <trkpt lat="48.67967" lon="6.14318">
        <ele>233</ele>
        <time>2012-03-17T13:17:28Z</time>
      </trkpt>
      <trkpt lat="48.67965" lon="6.14315">
        <ele>234</ele>
        <time>2012-03-17T13:17:30Z</time>
      </trkpt>
      <trkpt lat="48.67962" lon="6.14311">
        <ele>234</ele>
        <time>2012-03-17T13:17:32Z</time>
      </trkpt>
      <trkpt lat="48.67959" lon="6.14307">
        <ele>233</ele>
        <time>2012-03-17T13:17:34Z</time>
      </trkpt>
      <trkpt lat="48.67957" lon="6.14304">
        <ele>234</ele>
        <time>2012-03-17T13:17:36Z</time>
      </trkpt>
      <trkpt lat="48.67956" lon="6.143">
        <ele>234</ele>
        <time>2012-03-17T13:17:38Z</time>
      </trkpt>
      <trkpt lat="48.67955" lon="6.14296">
        <ele>235</ele>
        <time>2012-03-17T13:17:40Z</time>
      </trkpt>
      <trkpt lat="48.67953" lon="6.14294">
        <ele>236</ele>
        <time>2012-03-17T13:17:42Z</time>
      </trkpt>
      <trkpt lat="48.67952" lon="6.1429">
        <ele>236</ele>
        <time>2012-03-17T13:17:44Z</time>
      </trkpt>
      <trkpt lat="48.6795" lon="6.14288">
        <ele>237</ele>
        <time>2012-03-17T13:17:46Z</time>
      </trkpt>
      <trkpt lat="48.67949" lon="6.14284">
        <ele>237</ele>
        <time>2012-03-17T13:17:48Z</time>
      </trkpt>
      <trkpt lat="48.67948" lon="6.1428">
        <ele>236</ele>
        <time>2012-03-17T13:17:50Z</time>
      </trkpt>
      <trkpt lat="48.67946" lon="6.14277">
        <ele>236</ele>
        <time>2012-03-17T13:17:52Z</time>
      </trkpt>
      <trkpt lat="48.67944" lon="6.14275">
        <ele>236</ele>
        <time>2012-03-17T13:17:54Z</time>
      </trkpt>
      <trkpt lat="48.67943" lon="6.14273">
        <ele>236</ele>
        <time>2012-03-17T13:17:56Z</time>
      </trkpt>
      <trkpt lat="48.67942" lon="6.1427">
        <ele>238</ele>
        <time>2012-03-17T13:17:58Z</time>
      </trkpt>
      <trkpt lat="48.67939" lon="6.14265">
        <ele>238</ele>
        <time>2012-03-17T13:18:00Z</time>
      </trkpt>
      <trkpt lat="48.67937" lon="6.14259">
        <ele>239</ele>
        <time>2012-03-17T13:18:02Z</time>
      </trkpt>
      <trkpt lat="48.67934" lon="6.14254">
        <ele>240</ele>
        <time>2012-03-17T13:18:04Z</time>
      </trkpt>
      <trkpt lat="48.6793" lon="6.14248">
        <ele>240</ele>
        <time>2012-03-17T13:18:06Z</time>
      </trkpt>
      <trkpt lat="48.67926" lon="6.14243">
        <ele>239</ele>
        <time>2012-03-17T13:18:08Z</time>
      </trkpt>
      <trkpt lat="48.67922" lon="6.14237">
        <ele>238</ele>
        <time>2012-03-17T13:18:10Z</time>
      </trkpt>
      <trkpt lat="48.67918" lon="6.1423">
        <ele>237</ele>
        <time>2012-03-17T13:18:12Z</time>
      </trkpt>
      <trkpt lat="48.67915" lon="6.14224">
        <ele>237</ele>
        <time>2012-03-17T13:18:14Z</time>
      </trkpt>
      <trkpt lat="48.67912" lon="6.14219">
        <ele>237</ele>
        <time>2012-03-17T13:18:16Z</time>
      </trkpt>
      <trkpt lat="48.67909" lon="6.14214">
        <ele>238</ele>
        <time>2012-03-17T13:18:18Z</time>
      </trkpt>
      <trkpt lat="48.67906" lon="6.1421">
        <ele>238</ele>
        <time>2012-03-17T13:18:20Z</time>
      </trkpt>
      <trkpt lat="48.67903" lon="6.14205">
        <ele>237</ele>
        <time>2012-03-17T13:18:22Z</time>
      </trkpt>
      <trkpt lat="48.67901" lon="6.14201">
        <ele>240</ele>
        <time>2012-03-17T13:18:24Z</time>
      </trkpt>
      <trkpt lat="48.67898" lon="6.14195">
        <ele>241</ele>
        <time>2012-03-17T13:18:26Z</time>
      </trkpt>
      <trkpt lat="48.67896" lon="6.14189">
        <ele>242</ele>
        <time>2012-03-17T13:18:28Z</time>
      </trkpt>
      <trkpt lat="48.67896" lon="6.14181">
        <ele>241</ele>
        <time>2012-03-17T13:18:30Z</time>
      </trkpt>
      <trkpt lat="48.67897" lon="6.14175">
        <ele>243</ele>
        <time>2012-03-17T13:18:32Z</time>
      </trkpt>
      <trkpt lat="48.67899" lon="6.14169">
        <ele>245</ele>
        <time>2012-03-17T13:18:34Z</time>
      </trkpt>
      <trkpt lat="48.67903" lon="6.14163">
        <ele>246</ele>
        <time>2012-03-17T13:18:36Z</time>
      </trkpt>
      <trkpt lat="48.67907" lon="6.14156">
        <ele>246</ele>
        <time>2012-03-17T13:18:38Z</time>
      </trkpt>
      <trkpt lat="48.6791" lon="6.14151">
        <ele>248</ele>
        <time>2012-03-17T13:18:40Z</time>
      </trkpt>
      <trkpt lat="48.67913" lon="6.14146">
        <ele>248</ele>
        <time>2012-03-17T13:18:42Z</time>
      </trkpt>
      <trkpt lat="48.67918" lon="6.14142">
        <ele>247</ele>
        <time>2012-03-17T13:18:44Z</time>
      </trkpt>
      <trkpt lat="48.67923" lon="6.14143">
        <ele>248</ele>
        <time>2012-03-17T13:18:46Z</time>
      </trkpt>
      <trkpt lat="48.6793" lon="6.14146">
        <ele>248</ele>
        <time>2012-03-17T13:18:48Z</time>
      </trkpt>
      <trkpt lat="48.67937" lon="6.1415">
        <ele>247</ele>
        <time>2012-03-17T13:18:50Z</time>
      </trkpt>
      <trkpt lat="48.67944" lon="6.14157">
        <ele>247</ele>
        <time>2012-03-17T13:18:52Z</time>
      </trkpt>
      <trkpt lat="48.67952" lon="6.14162">
        <ele>246</ele>
        <time>2012-03-17T13:18:54Z</time>
      </trkpt>
      <trkpt lat="48.67962" lon="6.14164">
        <ele>246</ele>
        <time>2012-03-17T13:18:56Z</time>
      </trkpt>
      <trkpt lat="48.67971" lon="6.14163">
        <ele>246</ele>
        <time>2012-03-17T13:18:58Z</time>
      </trkpt>
      <trkpt lat="48.6798" lon="6.1416">
        <ele>246</ele>
        <time>2012-03-17T13:19:00Z</time>
      </trkpt>
      <trkpt lat="48.67987" lon="6.14158">
        <ele>247</ele>
        <time>2012-03-17T13:19:02Z</time>
      </trkpt>
      <trkpt lat="48.67993" lon="6.14157">
        <ele>246</ele>
        <time>2012-03-17T13:19:04Z</time>
      </trkpt>
      <trkpt lat="48.67998" lon="6.14155">
        <ele>247</ele>
        <time>2012-03-17T13:19:06Z</time>
      </trkpt>
      <trkpt lat="48.68003" lon="6.14153">
        <ele>249</ele>
        <time>2012-03-17T13:19:08Z</time>
      </trkpt>
      <trkpt lat="48.68008" lon="6.14151">
        <ele>249</ele>
        <time>2012-03-17T13:19:10Z</time>
      </trkpt>
      <trkpt lat="48.68013" lon="6.14148">
        <ele>250</ele>
        <time>2012-03-17T13:19:12Z</time>
      </trkpt>
      <trkpt lat="48.68018" lon="6.14146">
        <ele>250</ele>
        <time>2012-03-17T13:19:14Z</time>
      </trkpt>
      <trkpt lat="48.68023" lon="6.14145">
        <ele>251</ele>
        <time>2012-03-17T13:19:16Z</time>
      </trkpt>
      <trkpt lat="48.68028" lon="6.14143">
        <ele>252</ele>
        <time>2012-03-17T13:19:18Z</time>
      </trkpt>
      <trkpt lat="48.68033" lon="6.14141">
        <ele>253</ele>
        <time>2012-03-17T13:19:20Z</time>
      </trkpt>
      <trkpt lat="48.68037" lon="6.14138">
        <ele>253</ele>
        <time>2012-03-17T13:19:22Z</time>
      </trkpt>
      <trkpt lat="48.68042" lon="6.14136">
        <ele>253</ele>
        <time>2012-03-17T13:19:24Z</time>
      </trkpt>
      <trkpt lat="48.68046" lon="6.14134">
        <ele>254</ele>
        <time>2012-03-17T13:19:26Z</time>
      </trkpt>
      <trkpt lat="48.6805" lon="6.14132">
        <ele>254</ele>
        <time>2012-03-17T13:19:28Z</time>
      </trkpt>
      <trkpt lat="48.68055" lon="6.1413">
        <ele>255</ele>
        <time>2012-03-17T13:19:30Z</time>
      </trkpt>
      <trkpt lat="48.6806" lon="6.14128">
        <ele>256</ele>
        <time>2012-03-17T13:19:32Z</time>
      </trkpt>
      <trkpt lat="48.68065" lon="6.14126">
        <ele>258</ele>
        <time>2012-03-17T13:19:34Z</time>
      </trkpt>
      <trkpt lat="48.6807" lon="6.14124">
        <ele>257</ele>
        <time>2012-03-17T13:19:36Z</time>
      </trkpt>
      <trkpt lat="48.68074" lon="6.14121">
        <ele>254</ele>
        <time>2012-03-17T13:19:38Z</time>
      </trkpt>
      <trkpt lat="48.68079" lon="6.14119">
        <ele>256</ele>
        <time>2012-03-17T13:19:40Z</time>
      </trkpt>
      <trkpt lat="48.68084" lon="6.14117">
        <ele>258</ele>
        <time>2012-03-17T13:19:42Z</time>
      </trkpt>
      <trkpt lat="48.68089" lon="6.14115">
        <ele>256</ele>
        <time>2012-03-17T13:19:44Z</time>
      </trkpt>
      <trkpt lat="48.68094" lon="6.14112">
        <ele>253</ele>
        <time>2012-03-17T13:19:46Z</time>
      </trkpt>
      <trkpt lat="48.681" lon="6.14109">
        <ele>252</ele>
        <time>2012-03-17T13:19:48Z</time>
      </trkpt>
      <trkpt lat="48.68104" lon="6.14107">
        <ele>255</ele>
        <time>2012-03-17T13:19:50Z</time>
      </trkpt>
      <trkpt lat="48.68108" lon="6.14104">
        <ele>255</ele>
        <time>2012-03-17T13:19:52Z</time>
      </trkpt>
      <trkpt lat="48.68113" lon="6.14101">
        <ele>256</ele>
        <time>2012-03-17T13:19:54Z</time>
      </trkpt>
      <trkpt lat="48.68118" lon="6.14099">
        <ele>258</ele>
        <time>2012-03-17T13:19:56Z</time>
      </trkpt>
      <trkpt lat="48.68122" lon="6.14095">
        <ele>257</ele>
        <time>2012-03-17T13:19:58Z</time>
      </trkpt>
      <trkpt lat="48.68127" lon="6.14091">
        <ele>256</ele>
        <time>2012-03-17T13:20:00Z</time>
      </trkpt>
      <trkpt lat="48.68131" lon="6.14087">
        <ele>257</ele>
        <time>2012-03-17T13:20:02Z</time>
      </trkpt>
      <trkpt lat="48.68136" lon="6.14083">
        <ele>256</ele>
        <time>2012-03-17T13:20:04Z</time>
      </trkpt>
      <trkpt lat="48.6814" lon="6.14079">
        <ele>257</ele>
        <time>2012-03-17T13:20:06Z</time>
      </trkpt>
      <trkpt lat="48.68144" lon="6.14076">
        <ele>258</ele>
        <time>2012-03-17T13:20:08Z</time>
      </trkpt>
      <trkpt lat="48.68148" lon="6.14072">
        <ele>259</ele>
        <time>2012-03-17T13:20:10Z</time>
      </trkpt>
      <trkpt lat="48.68153" lon="6.14068">
        <ele>258</ele>
        <time>2012-03-17T13:20:12Z</time>
      </trkpt>
      <trkpt lat="48.68157" lon="6.14064">
        <ele>257</ele>
        <time>2012-03-17T13:20:14Z</time>
      </trkpt>
      <trkpt lat="48.68162" lon="6.1406">
        <ele>258</ele>
        <time>2012-03-17T13:20:16Z</time>
      </trkpt>
      <trkpt lat="48.68167" lon="6.14056">
        <ele>256</ele>
        <time>2012-03-17T13:20:18Z</time>
      </trkpt>
      <trkpt lat="48.68171" lon="6.14052">
        <ele>258</ele>
        <time>2012-03-17T13:20:20Z</time>
      </trkpt>
      <trkpt lat="48.68176" lon="6.14049">
        <ele>258</ele>
        <time>2012-03-17T13:20:22Z</time>
      </trkpt>
      <trkpt lat="48.6818" lon="6.14045">
        <ele>258</ele>
        <time>2012-03-17T13:20:24Z</time>
      </trkpt>
      <trkpt lat="48.68185" lon="6.14041">
        <ele>258</ele>
        <time>2012-03-17T13:20:26Z</time>
      </trkpt>
      <trkpt lat="48.68189" lon="6.14037">
        <ele>256</ele>
        <time>2012-03-17T13:20:28Z</time>
      </trkpt>
      <trkpt lat="48.68194" lon="6.14033">
        <ele>256</ele>
        <time>2012-03-17T13:20:30Z</time>
      </trkpt>
      <trkpt lat="48.68198" lon="6.1403">
        <ele>257</ele>
        <time>2012-03-17T13:20:32Z</time>
      </trkpt>
      <trkpt lat="48.68203" lon="6.14026">
        <ele>257</ele>
        <time>2012-03-17T13:20:34Z</time>
      </trkpt>
      <trkpt lat="48.68207" lon="6.14023">
        <ele>257</ele>
        <time>2012-03-17T13:20:36Z</time>
      </trkpt>
      <trkpt lat="48.68212" lon="6.14019">
        <ele>258</ele>
        <time>2012-03-17T13:20:38Z</time>
      </trkpt>
      <trkpt lat="48.68216" lon="6.14014">
        <ele>259</ele>
        <time>2012-03-17T13:20:40Z</time>
      </trkpt>
      <trkpt lat="48.68221" lon="6.1401">
        <ele>259</ele>
        <time>2012-03-17T13:20:42Z</time>
      </trkpt>
      <trkpt lat="48.68225" lon="6.14007">
        <ele>259</ele>
        <time>2012-03-17T13:20:44Z</time>
      </trkpt>
      <trkpt lat="48.6823" lon="6.14003">
        <ele>257</ele>
        <time>2012-03-17T13:20:46Z</time>
      </trkpt>
      <trkpt lat="48.68235" lon="6.13999">
        <ele>257</ele>
        <time>2012-03-17T13:20:48Z</time>
      </trkpt>
      <trkpt lat="48.6824" lon="6.13995">
        <ele>257</ele>
        <time>2012-03-17T13:20:50Z</time>
      </trkpt>
      <trkpt lat="48.68244" lon="6.13991">
        <ele>259</ele>
        <time>2012-03-17T13:20:52Z</time>
      </trkpt>
      <trkpt lat="48.68249" lon="6.13987">
        <ele>259</ele>
        <time>2012-03-17T13:20:54Z</time>
      </trkpt>
      <trkpt lat="48.68253" lon="6.13984">
        <ele>260</ele>
        <time>2012-03-17T13:20:56Z</time>
      </trkpt>
      <trkpt lat="48.68258" lon="6.1398">
        <ele>261</ele>
        <time>2012-03-17T13:20:58Z</time>
      </trkpt>
      <trkpt lat="48.68263" lon="6.13976">
        <ele>260</ele>
        <time>2012-03-17T13:21:00Z</time>
      </trkpt>
      <trkpt lat="48.68267" lon="6.13972">
        <ele>261</ele>
        <time>2012-03-17T13:21:02Z</time>
      </trkpt>
      <trkpt lat="48.68272" lon="6.13968">
        <ele>261</ele>
        <time>2012-03-17T13:21:04Z</time>
      </trkpt>
      <trkpt lat="48.68277" lon="6.13965">
        <ele>263</ele>
        <time>2012-03-17T13:21:06Z</time>
      </trkpt>
      <trkpt lat="48.68281" lon="6.1396">
        <ele>264</ele>
        <time>2012-03-17T13:21:08Z</time>
      </trkpt>
      <trkpt lat="48.68286" lon="6.13956">
        <ele>264</ele>
        <time>2012-03-17T13:21:10Z</time>
      </trkpt>
      <trkpt lat="48.6829" lon="6.13952">
        <ele>264</ele>
        <time>2012-03-17T13:21:12Z</time>
      </trkpt>
      <trkpt lat="48.68295" lon="6.13948">
        <ele>265</ele>
        <time>2012-03-17T13:21:14Z</time>
      </trkpt>
      <trkpt lat="48.68299" lon="6.13944">
        <ele>265</ele>
        <time>2012-03-17T13:21:16Z</time>
      </trkpt>
      <trkpt lat="48.68304" lon="6.1394">
        <ele>266</ele>
        <time>2012-03-17T13:21:18Z</time>
      </trkpt>
      <trkpt lat="48.68308" lon="6.13936">
        <ele>267</ele>
        <time>2012-03-17T13:21:20Z</time>
      </trkpt>
      <trkpt lat="48.68313" lon="6.13931">
        <ele>269</ele>
        <time>2012-03-17T13:21:22Z</time>
      </trkpt>
      <trkpt lat="48.68317" lon="6.13925">
        <ele>269</ele>
        <time>2012-03-17T13:21:24Z</time>
      </trkpt>
      <trkpt lat="48.6832" lon="6.1392">
        <ele>270</ele>
        <time>2012-03-17T13:21:26Z</time>
      </trkpt>
      <trkpt lat="48.68322" lon="6.13916">
        <ele>271</ele>
        <time>2012-03-17T13:21:28Z</time>
      </trkpt>
      <trkpt lat="48.68325" lon="6.13913">
        <ele>271</ele>
        <time>2012-03-17T13:21:30Z</time>
      </trkpt>
      <trkpt lat="48.68328" lon="6.13912">
        <ele>271</ele>
        <time>2012-03-17T13:21:32Z</time>
      </trkpt>
      <trkpt lat="48.68333" lon="6.13914">
        <ele>270</ele>
        <time>2012-03-17T13:21:34Z</time>
      </trkpt>
      <trkpt lat="48.68341" lon="6.13916">
        <ele>269</ele>
        <time>2012-03-17T13:21:36Z</time>
      </trkpt>
      <trkpt lat="48.6835" lon="6.13917">
        <ele>268</ele>
        <time>2012-03-17T13:21:38Z</time>
      </trkpt>
      <trkpt lat="48.68359" lon="6.13914">
        <ele>267</ele>
        <time>2012-03-17T13:21:40Z</time>
      </trkpt>
      <trkpt lat="48.68366" lon="6.13909">
        <ele>267</ele>
        <time>2012-03-17T13:21:42Z</time>
      </trkpt>
      <trkpt lat="48.68369" lon="6.13905">
        <ele>267</ele>
        <time>2012-03-17T13:21:44Z</time>
      </trkpt>
      <trkpt lat="48.68373" lon="6.13903">
        <ele>268</ele>
        <time>2012-03-17T13:21:46Z</time>
      </trkpt>
      <trkpt lat="48.68376" lon="6.139">
        <ele>268</ele>
        <time>2012-03-17T13:21:48Z</time>
      </trkpt>
      <trkpt lat="48.6838" lon="6.13897">
        <ele>268</ele>
        <time>2012-03-17T13:21:50Z</time>
      </trkpt>
      <trkpt lat="48.68383" lon="6.13894">
        <ele>269</ele>
        <time>2012-03-17T13:21:52Z</time>
      </trkpt>
      <trkpt lat="48.68387" lon="6.1389">
        <ele>271</ele>
        <time>2012-03-17T13:21:54Z</time>
      </trkpt>
      <trkpt lat="48.68391" lon="6.13887">
        <ele>271</ele>
        <time>2012-03-17T13:21:56Z</time>
      </trkpt>
      <trkpt lat="48.68395" lon="6.13883">
        <ele>272</ele>
        <time>2012-03-17T13:21:58Z</time>
      </trkpt>
      <trkpt lat="48.68399" lon="6.13879">
        <ele>272</ele>
        <time>2012-03-17T13:22:00Z</time>
      </trkpt>
      <trkpt lat="48.68403" lon="6.13875">
        <ele>273</ele>
        <time>2012-03-17T13:22:02Z</time>
      </trkpt>
      <trkpt lat="48.68406" lon="6.13871">
        <ele>274</ele>
        <time>2012-03-17T13:22:04Z</time>
      </trkpt>
      <trkpt lat="48.68409" lon="6.13866">
        <ele>276</ele>
        <time>2012-03-17T13:22:06Z</time>
      </trkpt>
      <trkpt lat="48.68413" lon="6.13861">
        <ele>276</ele>
        <time>2012-03-17T13:22:08Z</time>
      </trkpt>
      <trkpt lat="48.68416" lon="6.13856">
        <ele>276</ele>
        <time>2012-03-17T13:22:10Z</time>
      </trkpt>
      <trkpt lat="48.68419" lon="6.13852">
        <ele>276</ele>
        <time>2012-03-17T13:22:12Z</time>
      </trkpt>
      <trkpt lat="48.68422" lon="6.13848">
        <ele>277</ele>
        <time>2012-03-17T13:22:14Z</time>
      </trkpt>
      <trkpt lat="48.68426" lon="6.13843">
        <ele>276</ele>
        <time>2012-03-17T13:22:16Z</time>
      </trkpt>
      <trkpt lat="48.6843" lon="6.13839">
        <ele>275</ele>
        <time>2012-03-17T13:22:18Z</time>
      </trkpt>
      <trkpt lat="48.68433" lon="6.13833">
        <ele>275</ele>
        <time>2012-03-17T13:22:20Z</time>
      </trkpt>
      <trkpt lat="48.68436" lon="6.13828">
        <ele>274</ele>
        <time>2012-03-17T13:22:22Z</time>
      </trkpt>
      <trkpt lat="48.6844" lon="6.13823">
        <ele>278</ele>
        <time>2012-03-17T13:22:24Z</time>
      </trkpt>
      <trkpt lat="48.68442" lon="6.13818">
        <ele>278</ele>
        <time>2012-03-17T13:22:26Z</time>
      </trkpt>
      <trkpt lat="48.68445" lon="6.13813">
        <ele>279</ele>
        <time>2012-03-17T13:22:28Z</time>
      </trkpt>
      <trkpt lat="48.68447" lon="6.13808">
        <ele>280</ele>
        <time>2012-03-17T13:22:30Z</time>
      </trkpt>
      <trkpt lat="48.6845" lon="6.13802">
        <ele>280</ele>
        <time>2012-03-17T13:22:32Z</time>
      </trkpt>
      <trkpt lat="48.68453" lon="6.13797">
        <ele>280</ele>
        <time>2012-03-17T13:22:34Z</time>
      </trkpt>
      <trkpt lat="48.68454" lon="6.13791">
        <ele>280</ele>
        <time>2012-03-17T13:22:36Z</time>
      </trkpt>
      <trkpt lat="48.68456" lon="6.13785">
        <ele>282</ele>
        <time>2012-03-17T13:22:38Z</time>
      </trkpt>
      <trkpt lat="48.68459" lon="6.13779">
        <ele>282</ele>
        <time>2012-03-17T13:22:40Z</time>
      </trkpt>
      <trkpt lat="48.68461" lon="6.13773">
        <ele>283</ele>
        <time>2012-03-17T13:22:42Z</time>
      </trkpt>
      <trkpt lat="48.68463" lon="6.13766">
        <ele>283</ele>
        <time>2012-03-17T13:22:44Z</time>
      </trkpt>
      <trkpt lat="48.68464" lon="6.1376">
        <ele>284</ele>
        <time>2012-03-17T13:22:46Z</time>
      </trkpt>
      <trkpt lat="48.68466" lon="6.13752">
        <ele>284</ele>
        <time>2012-03-17T13:22:48Z</time>
      </trkpt>
      <trkpt lat="48.68467" lon="6.13745">
        <ele>283</ele>
        <time>2012-03-17T13:22:50Z</time>
      </trkpt>
      <trkpt lat="48.68469" lon="6.13738">
        <ele>283</ele>
        <time>2012-03-17T13:22:52Z</time>
      </trkpt>
      <trkpt lat="48.6847" lon="6.13731">
        <ele>284</ele>
        <time>2012-03-17T13:22:54Z</time>
      </trkpt>
      <trkpt lat="48.68471" lon="6.13725">
        <ele>285</ele>
        <time>2012-03-17T13:22:56Z</time>
      </trkpt>
      <trkpt lat="48.68472" lon="6.13718">
        <ele>287</ele>
        <time>2012-03-17T13:22:58Z</time>
      </trkpt>
      <trkpt lat="48.68473" lon="6.13711">
        <ele>286</ele>
        <time>2012-03-17T13:23:00Z</time>
      </trkpt>
      <trkpt lat="48.68474" lon="6.13704">
        <ele>284</ele>
        <time>2012-03-17T13:23:02Z</time>
      </trkpt>
      <trkpt lat="48.68474" lon="6.13696">
        <ele>284</ele>
        <time>2012-03-17T13:23:04Z</time>
      </trkpt>
      <trkpt lat="48.68475" lon="6.13688">
        <ele>284</ele>
        <time>2012-03-17T13:23:06Z</time>
      </trkpt>
      <trkpt lat="48.68475" lon="6.13681">
        <ele>285</ele>
        <time>2012-03-17T13:23:08Z</time>
      </trkpt>
      <trkpt lat="48.68476" lon="6.13674">
        <ele>285</ele>
        <time>2012-03-17T13:23:10Z</time>
      </trkpt>
      <trkpt lat="48.68476" lon="6.13666">
        <ele>286</ele>
        <time>2012-03-17T13:23:12Z</time>
      </trkpt>
      <trkpt lat="48.68477" lon="6.13659">
        <ele>286</ele>
        <time>2012-03-17T13:23:14Z</time>
      </trkpt>
      <trkpt lat="48.68477" lon="6.13651">
        <ele>285</ele>
        <time>2012-03-17T13:23:16Z</time>
      </trkpt>
      <trkpt lat="48.68476" lon="6.13644">
        <ele>285</ele>
        <time>2012-03-17T13:23:18Z</time>
      </trkpt>
      <trkpt lat="48.68475" lon="6.13637">
        <ele>286</ele>
        <time>2012-03-17T13:23:20Z</time>
      </trkpt>
      <trkpt lat="48.68476" lon="6.1363">
        <ele>288</ele>
        <time>2012-03-17T13:23:22Z</time>
      </trkpt>
      <trkpt lat="48.68476" lon="6.13624">
        <ele>288</ele>
        <time>2012-03-17T13:23:24Z</time>
      </trkpt>
      <trkpt lat="48.68476" lon="6.13617">
        <ele>289</ele>
        <time>2012-03-17T13:23:26Z</time>
      </trkpt>
      <trkpt lat="48.68475" lon="6.1361">
        <ele>290</ele>
        <time>2012-03-17T13:23:28Z</time>
      </trkpt>
      <trkpt lat="48.68475" lon="6.13604">
        <ele>290</ele>
        <time>2012-03-17T13:23:30Z</time>
      </trkpt>
      <trkpt lat="48.68475" lon="6.13597">
        <ele>290</ele>
        <time>2012-03-17T13:23:32Z</time>
      </trkpt>
      <trkpt lat="48.68474" lon="6.13591">
        <ele>291</ele>
        <time>2012-03-17T13:23:34Z</time>
      </trkpt>
      <trkpt lat="48.68473" lon="6.13584">
        <ele>292</ele>
        <time>2012-03-17T13:23:36Z</time>
      </trkpt>
      <trkpt lat="48.68473" lon="6.13577">
        <ele>290</ele>
        <time>2012-03-17T13:23:38Z</time>
      </trkpt>
      <trkpt lat="48.68473" lon="6.13569">
        <ele>289</ele>
        <time>2012-03-17T13:23:40Z</time>
      </trkpt>
      <trkpt lat="48.68473" lon="6.13563">
        <ele>289</ele>
        <time>2012-03-17T13:23:42Z</time>
      </trkpt>
      <trkpt lat="48.68472" lon="6.13558">
        <ele>290</ele>
        <time>2012-03-17T13:23:44Z</time>
      </trkpt>
      <trkpt lat="48.68472" lon="6.13552">
        <ele>291</ele>
        <time>2012-03-17T13:23:46Z</time>
      </trkpt>
      <trkpt lat="48.68472" lon="6.13545">
        <ele>290</ele>
        <time>2012-03-17T13:23:48Z</time>
      </trkpt>
      <trkpt lat="48.68471" lon="6.13538">
        <ele>289</ele>
        <time>2012-03-17T13:23:50Z</time>
      </trkpt>
      <trkpt lat="48.68471" lon="6.13532">
        <ele>290</ele>
        <time>2012-03-17T13:23:52Z</time>
      </trkpt>
      <trkpt lat="48.68471" lon="6.13525">
        <ele>292</ele>
        <time>2012-03-17T13:23:54Z</time>
      </trkpt>
      <trkpt lat="48.68471" lon="6.1352">
        <ele>292</ele>
        <time>2012-03-17T13:23:56Z</time>
      </trkpt>
      <trkpt lat="48.68471" lon="6.13515">
        <ele>291</ele>
        <time>2012-03-17T13:23:58Z</time>
      </trkpt>
      <trkpt lat="48.68471" lon="6.1351">
        <ele>292</ele>
        <time>2012-03-17T13:24:00Z</time>
      </trkpt>
      <trkpt lat="48.6847" lon="6.13504">
        <ele>292</ele>
        <time>2012-03-17T13:24:02Z</time>
      </trkpt>
      <trkpt lat="48.6847" lon="6.13497">
        <ele>291</ele>
        <time>2012-03-17T13:24:04Z</time>
      </trkpt>
      <trkpt lat="48.6847" lon="6.13492">
        <ele>292</ele>
        <time>2012-03-17T13:24:06Z</time>
      </trkpt>
      <trkpt lat="48.6847" lon="6.13487">
        <ele>292</ele>
        <time>2012-03-17T13:24:08Z</time>
      </trkpt>
      <trkpt lat="48.68469" lon="6.13482">
        <ele>292</ele>
        <time>2012-03-17T13:24:10Z</time>
      </trkpt>
      <trkpt lat="48.68469" lon="6.13476">
        <ele>293</ele>
        <time>2012-03-17T13:24:12Z</time>
      </trkpt>
      <trkpt lat="48.68469" lon="6.1347">
        <ele>293</ele>
        <time>2012-03-17T13:24:14Z</time>
      </trkpt>
      <trkpt lat="48.6847" lon="6.13464">
        <ele>293</ele>
        <time>2012-03-17T13:24:16Z</time>
      </trkpt>
      <trkpt lat="48.6847" lon="6.1346">
        <ele>294</ele>
        <time>2012-03-17T13:24:18Z</time>
      </trkpt>
      <trkpt lat="48.6847" lon="6.13455">
        <ele>294</ele>
        <time>2012-03-17T13:24:20Z</time>
      </trkpt>
      <trkpt lat="48.6847" lon="6.13449">
        <ele>296</ele>
        <time>2012-03-17T13:24:22Z</time>
      </trkpt>
      <trkpt lat="48.6847" lon="6.13443">
        <ele>297</ele>
        <time>2012-03-17T13:24:24Z</time>
      </trkpt>
      <trkpt lat="48.6847" lon="6.13439">
        <ele>298</ele>
        <time>2012-03-17T13:24:26Z</time>
      </trkpt>
      <trkpt lat="48.6847" lon="6.13435">
        <ele>301</ele>
        <time>2012-03-17T13:24:28Z</time>
      </trkpt>
      <trkpt lat="48.6847" lon="6.13429">
        <ele>302</ele>
        <time>2012-03-17T13:24:30Z</time>
      </trkpt>
      <trkpt lat="48.68471" lon="6.13423">
        <ele>304</ele>
        <time>2012-03-17T13:24:32Z</time>
      </trkpt>
      <trkpt lat="48.68472" lon="6.13418">
        <ele>307</ele>
        <time>2012-03-17T13:24:34Z</time>
      </trkpt>
      <trkpt lat="48.68473" lon="6.13411">
        <ele>305</ele>
        <time>2012-03-17T13:24:36Z</time>
      </trkpt>
      <trkpt lat="48.68474" lon="6.13407">
        <ele>306</ele>
        <time>2012-03-17T13:24:38Z</time>
      </trkpt>
      <trkpt lat="48.68475" lon="6.13401">
        <ele>305</ele>
        <time>2012-03-17T13:24:40Z</time>
      </trkpt>
      <trkpt lat="48.68475" lon="6.13395">
        <ele>304</ele>
        <time>2012-03-17T13:24:42Z</time>
      </trkpt>
      <trkpt lat="48.68477" lon="6.1339">
        <ele>306</ele>
        <time>2012-03-17T13:24:44Z</time>
      </trkpt>
      <trkpt lat="48.68477" lon="6.13383">
        <ele>305</ele>
        <time>2012-03-17T13:24:46Z</time>
      </trkpt>
      <trkpt lat="48.68479" lon="6.13377">
        <ele>306</ele>
        <time>2012-03-17T13:24:48Z</time>
      </trkpt>
      <trkpt lat="48.6848" lon="6.13371">
        <ele>306</ele>
        <time>2012-03-17T13:24:50Z</time>
      </trkpt>
      <trkpt lat="48.68481" lon="6.13365">
        <ele>306</ele>
        <time>2012-03-17T13:24:52Z</time>
      </trkpt>
      <trkpt lat="48.68483" lon="6.13359">
        <ele>306</ele>
        <time>2012-03-17T13:24:54Z</time>
      </trkpt>
      <trkpt lat="48.68484" lon="6.13353">
        <ele>307</ele>
        <time>2012-03-17T13:24:56Z</time>
      </trkpt>
      <trkpt lat="48.68486" lon="6.13347">
        <ele>307</ele>
        <time>2012-03-17T13:24:58Z</time>
      </trkpt>
      <trkpt lat="48.68487" lon="6.13341">
        <ele>307</ele>
        <time>2012-03-17T13:25:00Z</time>
      </trkpt>
      <trkpt lat="48.68489" lon="6.13335">
        <ele>308</ele>
        <time>2012-03-17T13:25:02Z</time>
      </trkpt>
      <trkpt lat="48.6849" lon="6.1333">
        <ele>308</ele>
        <time>2012-03-17T13:25:04Z</time>
      </trkpt>
      <trkpt lat="48.68493" lon="6.13324">
        <ele>308</ele>
        <time>2012-03-17T13:25:06Z</time>
      </trkpt>
      <trkpt lat="48.68494" lon="6.13319">
        <ele>308</ele>
        <time>2012-03-17T13:25:08Z</time>
      </trkpt>
      <trkpt lat="48.68496" lon="6.13314">
        <ele>309</ele>
        <time>2012-03-17T13:25:10Z</time>
      </trkpt>
      <trkpt lat="48.68498" lon="6.13309">
        <ele>309</ele>
        <time>2012-03-17T13:25:12Z</time>
      </trkpt>
      <trkpt lat="48.685" lon="6.13303">
        <ele>308</ele>
        <time>2012-03-17T13:25:14Z</time>
      </trkpt>
      <trkpt lat="48.68502" lon="6.13299">
        <ele>309</ele>
        <time>2012-03-17T13:25:16Z</time>
      </trkpt>
      <trkpt lat="48.68504" lon="6.13293">
        <ele>310</ele>
        <time>2012-03-17T13:25:18Z</time>
      </trkpt>
      <trkpt lat="48.68507" lon="6.13287">
        <ele>311</ele>
        <time>2012-03-17T13:25:20Z</time>
      </trkpt>
      <trkpt lat="48.68509" lon="6.13282">
        <ele>311</ele>
        <time>2012-03-17T13:25:22Z</time>
      </trkpt>
      <trkpt lat="48.68512" lon="6.13277">
        <ele>313</ele>
        <time>2012-03-17T13:25:24Z</time>
      </trkpt>
      <trkpt lat="48.68516" lon="6.13271">
        <ele>312</ele>
        <time>2012-03-17T13:25:26Z</time>
      </trkpt>
      <trkpt lat="48.68518" lon="6.13267">
        <ele>310</ele>
        <time>2012-03-17T13:25:28Z</time>
      </trkpt>
      <trkpt lat="48.68521" lon="6.13263">
        <ele>308</ele>
        <time>2012-03-17T13:25:30Z</time>
      </trkpt>
      <trkpt lat="48.68524" lon="6.13258">
        <ele>307</ele>
        <time>2012-03-17T13:25:32Z</time>
      </trkpt>
      <trkpt lat="48.68526" lon="6.13252">
        <ele>307</ele>
        <time>2012-03-17T13:25:34Z</time>
      </trkpt>
      <trkpt lat="48.68529" lon="6.13246">
        <ele>308</ele>
        <time>2012-03-17T13:25:36Z</time>
      </trkpt>
      <trkpt lat="48.68531" lon="6.13241">
        <ele>309</ele>
        <time>2012-03-17T13:25:38Z</time>
      </trkpt>
      <trkpt lat="48.68534" lon="6.13236">
        <ele>309</ele>
        <time>2012-03-17T13:25:40Z</time>
      </trkpt>
      <trkpt lat="48.68538" lon="6.13232">
        <ele>309</ele>
        <time>2012-03-17T13:25:42Z</time>
      </trkpt>
      <trkpt lat="48.68541" lon="6.13228">
        <ele>310</ele>
        <time>2012-03-17T13:25:44Z</time>
      </trkpt>
      <trkpt lat="48.68544" lon="6.13224">
        <ele>310</ele>
        <time>2012-03-17T13:25:46Z</time>
      </trkpt>
      <trkpt lat="48.68547" lon="6.13221">
        <ele>311</ele>
        <time>2012-03-17T13:25:48Z</time>
      </trkpt>
      <trkpt lat="48.68551" lon="6.13217">
        <ele>311</ele>
        <time>2012-03-17T13:25:50Z</time>
      </trkpt>
      <trkpt lat="48.68554" lon="6.13213">
        <ele>309</ele>
        <time>2012-03-17T13:25:52Z</time>
      </trkpt>
      <trkpt lat="48.68558" lon="6.1321">
        <ele>310</ele>
        <time>2012-03-17T13:25:54Z</time>
      </trkpt>
      <trkpt lat="48.68561" lon="6.13206">
        <ele>313</ele>
        <time>2012-03-17T13:25:56Z</time>
      </trkpt>
      <trkpt lat="48.68565" lon="6.13203">
        <ele>313</ele>
        <time>2012-03-17T13:25:58Z</time>
      </trkpt>
      <trkpt lat="48.68568" lon="6.13199">
        <ele>315</ele>
        <time>2012-03-17T13:26:00Z</time>
      </trkpt>
      <trkpt lat="48.68572" lon="6.13196">
        <ele>315</ele>
        <time>2012-03-17T13:26:02Z</time>
      </trkpt>
      <trkpt lat="48.68576" lon="6.13192">
        <ele>314</ele>
        <time>2012-03-17T13:26:04Z</time>
      </trkpt>
      <trkpt lat="48.6858" lon="6.13189">
        <ele>313</ele>
        <time>2012-03-17T13:26:06Z</time>
      </trkpt>
      <trkpt lat="48.68583" lon="6.13186">
        <ele>315</ele>
        <time>2012-03-17T13:26:08Z</time>
      </trkpt>
      <trkpt lat="48.68587" lon="6.13183">
        <ele>314</ele>
        <time>2012-03-17T13:26:10Z</time>
      </trkpt>
      <trkpt lat="48.68591" lon="6.1318">
        <ele>314</ele>
        <time>2012-03-17T13:26:12Z</time>
      </trkpt>
      <trkpt lat="48.68594" lon="6.13178">
        <ele>315</ele>
        <time>2012-03-17T13:26:14Z</time>
      </trkpt>
      <trkpt lat="48.68597" lon="6.13174">
        <ele>315</ele>
        <time>2012-03-17T13:26:16Z</time>
      </trkpt>
      <trkpt lat="48.68601" lon="6.13171">
        <ele>316</ele>
        <time>2012-03-17T13:26:18Z</time>
      </trkpt>
      <trkpt lat="48.68605" lon="6.13167">
        <ele>317</ele>
        <time>2012-03-17T13:26:20Z</time>
      </trkpt>
      <trkpt lat="48.68609" lon="6.13164">
        <ele>317</ele>
        <time>2012-03-17T13:26:22Z</time>
      </trkpt>
      <trkpt lat="48.68613" lon="6.13161">
        <ele>316</ele>
        <time>2012-03-17T13:26:24Z</time>
      </trkpt>
      <trkpt lat="48.68617" lon="6.13159">
        <ele>316</ele>
        <time>2012-03-17T13:26:26Z</time>
      </trkpt>
      <trkpt lat="48.6862" lon="6.13155">
        <ele>317</ele>
        <time>2012-03-17T13:26:28Z</time>
      </trkpt>
      <trkpt lat="48.68623" lon="6.13153">
        <ele>319</ele>
        <time>2012-03-17T13:26:30Z</time>
      </trkpt>
      <trkpt lat="48.68627" lon="6.13151">
        <ele>319</ele>
        <time>2012-03-17T13:26:32Z</time>
      </trkpt>
      <trkpt lat="48.68632" lon="6.1315">
        <ele>317</ele>
        <time>2012-03-17T13:26:34Z</time>
      </trkpt>
      <trkpt lat="48.68636" lon="6.13149">
        <ele>317</ele>
        <time>2012-03-17T13:26:36Z</time>
      </trkpt>
      <trkpt lat="48.68641" lon="6.13149">
        <ele>316</ele>
        <time>2012-03-17T13:26:38Z</time>
      </trkpt>
      <trkpt lat="48.68645" lon="6.13148">
        <ele>317</ele>
        <time>2012-03-17T13:26:40Z</time>
      </trkpt>
      <trkpt lat="48.68649" lon="6.13147">
        <ele>317</ele>
        <time>2012-03-17T13:26:42Z</time>
      </trkpt>
      <trkpt lat="48.68654" lon="6.13146">
        <ele>315</ele>
        <time>2012-03-17T13:26:44Z</time>
      </trkpt>
      <trkpt lat="48.68658" lon="6.13145">
        <ele>313</ele>
        <time>2012-03-17T13:26:46Z</time>
      </trkpt>
      <trkpt lat="48.68662" lon="6.13143">
        <ele>311</ele>
        <time>2012-03-17T13:26:48Z</time>
      </trkpt>
      <trkpt lat="48.68667" lon="6.13143">
        <ele>311</ele>
        <time>2012-03-17T13:26:50Z</time>
      </trkpt>
      <trkpt lat="48.68671" lon="6.13143">
        <ele>311</ele>
        <time>2012-03-17T13:26:52Z</time>
      </trkpt>
      <trkpt lat="48.68675" lon="6.13143">
        <ele>311</ele>
        <time>2012-03-17T13:26:54Z</time>
      </trkpt>
      <trkpt lat="48.68678" lon="6.13144">
        <ele>312</ele>
        <time>2012-03-17T13:26:56Z</time>
      </trkpt>
      <trkpt lat="48.68681" lon="6.13144">
        <ele>314</ele>
        <time>2012-03-17T13:26:58Z</time>
      </trkpt>
      <trkpt lat="48.68685" lon="6.13144">
        <ele>314</ele>
        <time>2012-03-17T13:27:00Z</time>
      </trkpt>
      <trkpt lat="48.68689" lon="6.13144">
        <ele>315</ele>
        <time>2012-03-17T13:27:02Z</time>
      </trkpt>
      <trkpt lat="48.68693" lon="6.13144">
        <ele>316</ele>
        <time>2012-03-17T13:27:04Z</time>
      </trkpt>
      <trkpt lat="48.68697" lon="6.13144">
        <ele>317</ele>
        <time>2012-03-17T13:27:06Z</time>
      </trkpt>
      <trkpt lat="48.68702" lon="6.13144">
        <ele>317</ele>
        <time>2012-03-17T13:27:08Z</time>
      </trkpt>
      <trkpt lat="48.68706" lon="6.13145">
        <ele>319</ele>
        <time>2012-03-17T13:27:10Z</time>
      </trkpt>
      <trkpt lat="48.6871" lon="6.13145">
        <ele>318</ele>
        <time>2012-03-17T13:27:12Z</time>
      </trkpt>
      <trkpt lat="48.68715" lon="6.13145">
        <ele>318</ele>
        <time>2012-03-17T13:27:14Z</time>
      </trkpt>
      <trkpt lat="48.6872" lon="6.13146">
        <ele>318</ele>
        <time>2012-03-17T13:27:16Z</time>
      </trkpt>
      <trkpt lat="48.68724" lon="6.13146">
        <ele>319</ele>
        <time>2012-03-17T13:27:18Z</time>
      </trkpt>
      <trkpt lat="48.68728" lon="6.13146">
        <ele>321</ele>
        <time>2012-03-17T13:27:20Z</time>
      </trkpt>
      <trkpt lat="48.68732" lon="6.13147">
        <ele>321</ele>
        <time>2012-03-17T13:27:22Z</time>
      </trkpt>
      <trkpt lat="48.68736" lon="6.13147">
        <ele>320</ele>
        <time>2012-03-17T13:27:24Z</time>
      </trkpt>
      <trkpt lat="48.68741" lon="6.13148">
        <ele>319</ele>
        <time>2012-03-17T13:27:26Z</time>
      </trkpt>
      <trkpt lat="48.68746" lon="6.13147">
        <ele>319</ele>
        <time>2012-03-17T13:27:28Z</time>
      </trkpt>
      <trkpt lat="48.6875" lon="6.13147">
        <ele>319</ele>
        <time>2012-03-17T13:27:30Z</time>
      </trkpt>
      <trkpt lat="48.68754" lon="6.13148">
        <ele>319</ele>
        <time>2012-03-17T13:27:32Z</time>
      </trkpt>
      <trkpt lat="48.68758" lon="6.13149">
        <ele>318</ele>
        <time>2012-03-17T13:27:34Z</time>
      </trkpt>
      <trkpt lat="48.68762" lon="6.1315">
        <ele>319</ele>
        <time>2012-03-17T13:27:36Z</time>
      </trkpt>
      <trkpt lat="48.68766" lon="6.13151">
        <ele>320</ele>
        <time>2012-03-17T13:27:38Z</time>
      </trkpt>
      <trkpt lat="48.68769" lon="6.13153">
        <ele>321</ele>
        <time>2012-03-17T13:27:40Z</time>
      </trkpt>
      <trkpt lat="48.68773" lon="6.13154">
        <ele>321</ele>
        <time>2012-03-17T13:27:42Z</time>
      </trkpt>
      <trkpt lat="48.68776" lon="6.13156">
        <ele>322</ele>
        <time>2012-03-17T13:27:44Z</time>
      </trkpt>
      <trkpt lat="48.6878" lon="6.13157">
        <ele>322</ele>
        <time>2012-03-17T13:27:46Z</time>
      </trkpt>
      <trkpt lat="48.68783" lon="6.13159">
        <ele>323</ele>
        <time>2012-03-17T13:27:48Z</time>
      </trkpt>
      <trkpt lat="48.68786" lon="6.13161">
        <ele>325</ele>
        <time>2012-03-17T13:27:50Z</time>
      </trkpt>
      <trkpt lat="48.6879" lon="6.13164">
        <ele>325</ele>
        <time>2012-03-17T13:27:52Z</time>
      </trkpt>
      <trkpt lat="48.68794" lon="6.13166">
        <ele>324</ele>
        <time>2012-03-17T13:27:54Z</time>
      </trkpt>
      <trkpt lat="48.68798" lon="6.13169">
        <ele>324</ele>
        <time>2012-03-17T13:27:56Z</time>
      </trkpt>
      <trkpt lat="48.68802" lon="6.13172">
        <ele>324</ele>
        <time>2012-03-17T13:27:58Z</time>
      </trkpt>
      <trkpt lat="48.68805" lon="6.13175">
        <ele>325</ele>
        <time>2012-03-17T13:28:00Z</time>
      </trkpt>
      <trkpt lat="48.68808" lon="6.13179">
        <ele>325</ele>
        <time>2012-03-17T13:28:02Z</time>
      </trkpt>
      <trkpt lat="48.68812" lon="6.13182">
        <ele>325</ele>
        <time>2012-03-17T13:28:04Z</time>
      </trkpt>
      <trkpt lat="48.68815" lon="6.13183">
        <ele>326</ele>
        <time>2012-03-17T13:28:06Z</time>
      </trkpt>
      <trkpt lat="48.68818" lon="6.13184">
        <ele>327</ele>
        <time>2012-03-17T13:28:08Z</time>
      </trkpt>
      <trkpt lat="48.68823" lon="6.13184">
        <ele>326</ele>
        <time>2012-03-17T13:28:10Z</time>
      </trkpt>
      <trkpt lat="48.68824" lon="6.13181">
        <ele>328</ele>
        <time>2012-03-17T13:28:12Z</time>
      </trkpt>
      <trkpt lat="48.68825" lon="6.13175">
        <ele>329</ele>
        <time>2012-03-17T13:28:14Z</time>
      </trkpt>
      <trkpt lat="48.68826" lon="6.13171">
        <ele>331</ele>
        <time>2012-03-17T13:28:16Z</time>
      </trkpt>
      <trkpt lat="48.68826" lon="6.13165">
        <ele>329</ele>
        <time>2012-03-17T13:28:18Z</time>
      </trkpt>
      <trkpt lat="48.68825" lon="6.13159">
        <ele>330</ele>
        <time>2012-03-17T13:28:20Z</time>
      </trkpt>
      <trkpt lat="48.68824" lon="6.13154">
        <ele>330</ele>
        <time>2012-03-17T13:28:22Z</time>
      </trkpt>
      <trkpt lat="48.68824" lon="6.13147">
        <ele>332</ele>
        <time>2012-03-17T13:28:24Z</time>
      </trkpt>
      <trkpt lat="48.68824" lon="6.1314">
        <ele>332</ele>
        <time>2012-03-17T13:28:26Z</time>
      </trkpt>
      <trkpt lat="48.68823" lon="6.13133">
        <ele>330</ele>
        <time>2012-03-17T13:28:28Z</time>
      </trkpt>
      <trkpt lat="48.68822" lon="6.13126">
        <ele>331</ele>
        <time>2012-03-17T13:28:30Z</time>
      </trkpt>
      <trkpt lat="48.68821" lon="6.1312">
        <ele>331</ele>
        <time>2012-03-17T13:28:32Z</time>
      </trkpt>
      <trkpt lat="48.6882" lon="6.13114">
        <ele>331</ele>
        <time>2012-03-17T13:28:34Z</time>
      </trkpt>
      <trkpt lat="48.68819" lon="6.13107">
        <ele>332</ele>
        <time>2012-03-17T13:28:36Z</time>
      </trkpt>
      <trkpt lat="48.68818" lon="6.13101">
        <ele>332</ele>
        <time>2012-03-17T13:28:38Z</time>
      </trkpt>
      <trkpt lat="48.68816" lon="6.13094">
        <ele>331</ele>
        <time>2012-03-17T13:28:40Z</time>
      </trkpt>
      <trkpt lat="48.68815" lon="6.13088">
        <ele>331</ele>
        <time>2012-03-17T13:28:42Z</time>
      </trkpt>
      <trkpt lat="48.68814" lon="6.13081">
        <ele>333</ele>
        <time>2012-03-17T13:28:44Z</time>
      </trkpt>
      <trkpt lat="48.68813" lon="6.13074">
        <ele>332</ele>
        <time>2012-03-17T13:28:46Z</time>
      </trkpt>
      <trkpt lat="48.68813" lon="6.13068">
        <ele>331</ele>
        <time>2012-03-17T13:28:48Z</time>
      </trkpt>
      <trkpt lat="48.68813" lon="6.13062">
        <ele>331</ele>
        <time>2012-03-17T13:28:50Z</time>
      </trkpt>
      <trkpt lat="48.68813" lon="6.13055">
        <ele>332</ele>
        <time>2012-03-17T13:28:52Z</time>
      </trkpt>
      <trkpt lat="48.68813" lon="6.13049">
        <ele>334</ele>
        <time>2012-03-17T13:28:54Z</time>
      </trkpt>
      <trkpt lat="48.68813" lon="6.13042">
        <ele>335</ele>
        <time>2012-03-17T13:28:56Z</time>
      </trkpt>
      <trkpt lat="48.68813" lon="6.13036">
        <ele>336</ele>
        <time>2012-03-17T13:28:58Z</time>
      </trkpt>
      <trkpt lat="48.68813" lon="6.13029">
        <ele>334</ele>
        <time>2012-03-17T13:29:00Z</time>
      </trkpt>
      <trkpt lat="48.68813" lon="6.13023">
        <ele>335</ele>
        <time>2012-03-17T13:29:02Z</time>
      </trkpt>
      <trkpt lat="48.68812" lon="6.13017">
        <ele>337</ele>
        <time>2012-03-17T13:29:04Z</time>
      </trkpt>
      <trkpt lat="48.68812" lon="6.13011">
        <ele>337</ele>
        <time>2012-03-17T13:29:06Z</time>
      </trkpt>
      <trkpt lat="48.68811" lon="6.13006">
        <ele>338</ele>
        <time>2012-03-17T13:29:08Z</time>
      </trkpt>
      <trkpt lat="48.68811" lon="6.13">
        <ele>340</ele>
        <time>2012-03-17T13:29:10Z</time>
      </trkpt>
      <trkpt lat="48.6881" lon="6.12995">
        <ele>341</ele>
        <time>2012-03-17T13:29:12Z</time>
      </trkpt>
      <trkpt lat="48.6881" lon="6.1299">
        <ele>340</ele>
        <time>2012-03-17T13:29:14Z</time>
      </trkpt>
      <trkpt lat="48.6881" lon="6.12983">
        <ele>339</ele>
        <time>2012-03-17T13:29:16Z</time>
      </trkpt>
      <trkpt lat="48.68809" lon="6.12978">
        <ele>341</ele>
        <time>2012-03-17T13:29:18Z</time>
      </trkpt>
      <trkpt lat="48.68808" lon="6.12971">
        <ele>340</ele>
        <time>2012-03-17T13:29:20Z</time>
      </trkpt>
      <trkpt lat="48.68808" lon="6.12964">
        <ele>340</ele>
        <time>2012-03-17T13:29:22Z</time>
      </trkpt>
      <trkpt lat="48.68807" lon="6.12957">
        <ele>341</ele>
        <time>2012-03-17T13:29:24Z</time>
      </trkpt>
      <trkpt lat="48.68807" lon="6.1295">
        <ele>342</ele>
        <time>2012-03-17T13:29:26Z</time>
      </trkpt>
      <trkpt lat="48.68806" lon="6.12942">
        <ele>342</ele>
        <time>2012-03-17T13:29:28Z</time>
      </trkpt>
      <trkpt lat="48.68806" lon="6.12934">
        <ele>341</ele>
        <time>2012-03-17T13:29:30Z</time>
      </trkpt>
      <trkpt lat="48.68805" lon="6.12927">
        <ele>339</ele>
        <time>2012-03-17T13:29:32Z</time>
      </trkpt>
      <trkpt lat="48.68805" lon="6.12919">
        <ele>339</ele>
        <time>2012-03-17T13:29:34Z</time>
      </trkpt>
      <trkpt lat="48.68805" lon="6.12913">
        <ele>340</ele>
        <time>2012-03-17T13:29:36Z</time>
      </trkpt>
      <trkpt lat="48.68804" lon="6.12907">
        <ele>340</ele>
        <time>2012-03-17T13:29:38Z</time>
      </trkpt>
      <trkpt lat="48.68804" lon="6.129">
        <ele>340</ele>
        <time>2012-03-17T13:29:40Z</time>
      </trkpt>
      <trkpt lat="48.68804" lon="6.12892">
        <ele>339</ele>
        <time>2012-03-17T13:29:42Z</time>
      </trkpt>
      <trkpt lat="48.68803" lon="6.12886">
        <ele>339</ele>
        <time>2012-03-17T13:29:44Z</time>
      </trkpt>
      <trkpt lat="48.68803" lon="6.12879">
        <ele>340</ele>
        <time>2012-03-17T13:29:46Z</time>
      </trkpt>
      <trkpt lat="48.68802" lon="6.12873">
        <ele>339</ele>
        <time>2012-03-17T13:29:48Z</time>
      </trkpt>
      <trkpt lat="48.68801" lon="6.12867">
        <ele>343</ele>
        <time>2012-03-17T13:29:50Z</time>
      </trkpt>
      <trkpt lat="48.688" lon="6.1286">
        <ele>345</ele>
        <time>2012-03-17T13:29:52Z</time>
      </trkpt>
      <trkpt lat="48.688" lon="6.12854">
        <ele>346</ele>
        <time>2012-03-17T13:29:54Z</time>
      </trkpt>
      <trkpt lat="48.68799" lon="6.12847">
        <ele>346</ele>
        <time>2012-03-17T13:29:56Z</time>
      </trkpt>
      <trkpt lat="48.688" lon="6.12841">
        <ele>346</ele>
        <time>2012-03-17T13:29:58Z</time>
      </trkpt>
      <trkpt lat="48.68799" lon="6.12834">
        <ele>345</ele>
        <time>2012-03-17T13:30:00Z</time>
      </trkpt>
      <trkpt lat="48.68799" lon="6.12827">
        <ele>344</ele>
        <time>2012-03-17T13:30:02Z</time>
      </trkpt>
      <trkpt lat="48.68798" lon="6.1282">
        <ele>343</ele>
        <time>2012-03-17T13:30:04Z</time>
      </trkpt>
      <trkpt lat="48.68798" lon="6.12814">
        <ele>344</ele>
        <time>2012-03-17T13:30:06Z</time>
      </trkpt>
      <trkpt lat="48.68797" lon="6.12807">
        <ele>345</ele>
        <time>2012-03-17T13:30:08Z</time>
      </trkpt>
      <trkpt lat="48.68797" lon="6.12801">
        <ele>346</ele>
        <time>2012-03-17T13:30:10Z</time>
      </trkpt>
      <trkpt lat="48.68796" lon="6.12794">
        <ele>347</ele>
        <time>2012-03-17T13:30:12Z</time>
      </trkpt>
      <trkpt lat="48.68796" lon="6.12788">
        <ele>349</ele>
        <time>2012-03-17T13:30:14Z</time>
      </trkpt>
      <trkpt lat="48.68795" lon="6.1278">
        <ele>348</ele>
        <time>2012-03-17T13:30:16Z</time>
      </trkpt>
      <trkpt lat="48.68794" lon="6.12774">
        <ele>347</ele>
        <time>2012-03-17T13:30:18Z</time>
      </trkpt>
      <trkpt lat="48.68794" lon="6.12765">
        <ele>344</ele>
        <time>2012-03-17T13:30:20Z</time>
      </trkpt>
      <trkpt lat="48.68792" lon="6.12757">
        <ele>344</ele>
        <time>2012-03-17T13:30:22Z</time>
      </trkpt>
      <trkpt lat="48.6879" lon="6.1275">
        <ele>344</ele>
        <time>2012-03-17T13:30:24Z</time>
      </trkpt>
      <trkpt lat="48.68787" lon="6.12744">
        <ele>342</ele>
        <time>2012-03-17T13:30:26Z</time>
      </trkpt>
      <trkpt lat="48.68782" lon="6.12739">
        <ele>342</ele>
        <time>2012-03-17T13:30:28Z</time>
      </trkpt>
      <trkpt lat="48.68778" lon="6.12736">
        <ele>342</ele>
        <time>2012-03-17T13:30:30Z</time>
      </trkpt>
      <trkpt lat="48.68771" lon="6.12736">
        <ele>343</ele>
        <time>2012-03-17T13:30:32Z</time>
      </trkpt>
      <trkpt lat="48.68765" lon="6.12737">
        <ele>342</ele>
        <time>2012-03-17T13:30:34Z</time>
      </trkpt>
      <trkpt lat="48.68758" lon="6.1274">
        <ele>343</ele>
        <time>2012-03-17T13:30:36Z</time>
      </trkpt>
      <trkpt lat="48.68752" lon="6.12743">
        <ele>344</ele>
        <time>2012-03-17T13:30:38Z</time>
      </trkpt>
      <trkpt lat="48.68745" lon="6.12747">
        <ele>344</ele>
        <time>2012-03-17T13:30:40Z</time>
      </trkpt>
      <trkpt lat="48.68738" lon="6.1275">
        <ele>345</ele>
        <time>2012-03-17T13:30:42Z</time>
      </trkpt>
      <trkpt lat="48.68731" lon="6.12755">
        <ele>345</ele>
        <time>2012-03-17T13:30:44Z</time>
      </trkpt>
      <trkpt lat="48.68722" lon="6.12758">
        <ele>345</ele>
        <time>2012-03-17T13:30:46Z</time>
      </trkpt>
      <trkpt lat="48.68714" lon="6.12763">
        <ele>345</ele>
        <time>2012-03-17T13:30:48Z</time>
      </trkpt>
      <trkpt lat="48.68706" lon="6.12767">
        <ele>342</ele>
        <time>2012-03-17T13:30:50Z</time>
      </trkpt>
      <trkpt lat="48.68694" lon="6.12772">
        <ele>338</ele>
        <time>2012-03-17T13:30:52Z</time>
      </trkpt>
      <trkpt lat="48.68682" lon="6.12778">
        <ele>335</ele>
        <time>2012-03-17T13:30:54Z</time>
      </trkpt>
      <trkpt lat="48.68671" lon="6.12782">
        <ele>335</ele>
        <time>2012-03-17T13:30:56Z</time>
      </trkpt>
      <trkpt lat="48.68661" lon="6.12785">
        <ele>335</ele>
        <time>2012-03-17T13:30:58Z</time>
      </trkpt>
      <trkpt lat="48.6865" lon="6.12788">
        <ele>337</ele>
        <time>2012-03-17T13:31:00Z</time>
      </trkpt>
      <trkpt lat="48.68639" lon="6.12791">
        <ele>337</ele>
        <time>2012-03-17T13:31:02Z</time>
      </trkpt>
      <trkpt lat="48.68629" lon="6.12794">
        <ele>337</ele>
        <time>2012-03-17T13:31:04Z</time>
      </trkpt>
      <trkpt lat="48.68619" lon="6.12797">
        <ele>338</ele>
        <time>2012-03-17T13:31:06Z</time>
      </trkpt>
      <trkpt lat="48.6861" lon="6.128">
        <ele>338</ele>
        <time>2012-03-17T13:31:08Z</time>
      </trkpt>
      <trkpt lat="48.68601" lon="6.12803">
        <ele>340</ele>
        <time>2012-03-17T13:31:10Z</time>
      </trkpt>
      <trkpt lat="48.68592" lon="6.12806">
        <ele>340</ele>
        <time>2012-03-17T13:31:12Z</time>
      </trkpt>
      <trkpt lat="48.68581" lon="6.1281">
        <ele>338</ele>
        <time>2012-03-17T13:31:14Z</time>
      </trkpt>
      <trkpt lat="48.68571" lon="6.12813">
        <ele>335</ele>
        <time>2012-03-17T13:31:16Z</time>
      </trkpt>
      <trkpt lat="48.68565" lon="6.12814">
        <ele>336</ele>
        <time>2012-03-17T13:31:18Z</time>
      </trkpt>
      <trkpt lat="48.68563" lon="6.12814">
        <ele>336</ele>
        <time>2012-03-17T13:31:22Z</time>
      </trkpt>
      <trkpt lat="48.68563" lon="6.12813">
        <ele>341</ele>
        <time>2012-03-17T13:31:24Z</time>
      </trkpt>
      <trkpt lat="48.68565" lon="6.12809">
        <ele>344</ele>
        <time>2012-03-17T13:31:26Z</time>
      </trkpt>
      <trkpt lat="48.68565" lon="6.1281">
        <ele>338</ele>
        <time>2012-03-17T13:31:50Z</time>
      </trkpt>
      <trkpt lat="48.68561" lon="6.12816">
        <ele>340</ele>
        <time>2012-03-17T13:31:52Z</time>
      </trkpt>
      <trkpt lat="48.68556" lon="6.1282">
        <ele>339</ele>
        <time>2012-03-17T13:31:54Z</time>
      </trkpt>
      <trkpt lat="48.68549" lon="6.12824">
        <ele>338</ele>
        <time>2012-03-17T13:31:56Z</time>
      </trkpt>
      <trkpt lat="48.68541" lon="6.12828">
        <ele>337</ele>
        <time>2012-03-17T13:31:58Z</time>
      </trkpt>
      <trkpt lat="48.68533" lon="6.12833">
        <ele>335</ele>
        <time>2012-03-17T13:32:00Z</time>
      </trkpt>
      <trkpt lat="48.68527" lon="6.12838">
        <ele>337</ele>
        <time>2012-03-17T13:32:02Z</time>
      </trkpt>
      <trkpt lat="48.6852" lon="6.12841">
        <ele>337</ele>
        <time>2012-03-17T13:32:04Z</time>
      </trkpt>
      <trkpt lat="48.68512" lon="6.12846">
        <ele>336</ele>
        <time>2012-03-17T13:32:06Z</time>
      </trkpt>
      <trkpt lat="48.68504" lon="6.1285">
        <ele>335</ele>
        <time>2012-03-17T13:32:08Z</time>
      </trkpt>
      <trkpt lat="48.68496" lon="6.12855">
        <ele>334</ele>
        <time>2012-03-17T13:32:10Z</time>
      </trkpt>
      <trkpt lat="48.68489" lon="6.12861">
        <ele>335</ele>
        <time>2012-03-17T13:32:12Z</time>
      </trkpt>
      <trkpt lat="48.68481" lon="6.12867">
        <ele>333</ele>
        <time>2012-03-17T13:32:14Z</time>
      </trkpt>
      <trkpt lat="48.68473" lon="6.12871">
        <ele>332</ele>
        <time>2012-03-17T13:32:16Z</time>
      </trkpt>
      <trkpt lat="48.68466" lon="6.12879">
        <ele>330</ele>
        <time>2012-03-17T13:32:18Z</time>
      </trkpt>
      <trkpt lat="48.68458" lon="6.12885">
        <ele>333</ele>
        <time>2012-03-17T13:32:20Z</time>
      </trkpt>
      <trkpt lat="48.68451" lon="6.12885">
        <ele>333</ele>
        <time>2012-03-17T13:32:22Z</time>
      </trkpt>
      <trkpt lat="48.68446" lon="6.12881">
        <ele>332</ele>
        <time>2012-03-17T13:32:24Z</time>
      </trkpt>
      <trkpt lat="48.68441" lon="6.12876">
        <ele>330</ele>
        <time>2012-03-17T13:32:26Z</time>
      </trkpt>
      <trkpt lat="48.68435" lon="6.1287">
        <ele>332</ele>
        <time>2012-03-17T13:32:28Z</time>
      </trkpt>
      <trkpt lat="48.68431" lon="6.12864">
        <ele>331</ele>
        <time>2012-03-17T13:32:30Z</time>
      </trkpt>
      <trkpt lat="48.68427" lon="6.1286">
        <ele>334</ele>
        <time>2012-03-17T13:32:32Z</time>
      </trkpt>
      <trkpt lat="48.68422" lon="6.12855">
        <ele>336</ele>
        <time>2012-03-17T13:32:34Z</time>
      </trkpt>
      <trkpt lat="48.68417" lon="6.1285">
        <ele>337</ele>
        <time>2012-03-17T13:32:36Z</time>
      </trkpt>
      <trkpt lat="48.68412" lon="6.12845">
        <ele>338</ele>
        <time>2012-03-17T13:32:38Z</time>
      </trkpt>
      <trkpt lat="48.68407" lon="6.1284">
        <ele>341</ele>
        <time>2012-03-17T13:32:40Z</time>
      </trkpt>
      <trkpt lat="48.68402" lon="6.12835">
        <ele>342</ele>
        <time>2012-03-17T13:32:42Z</time>
      </trkpt>
      <trkpt lat="48.68396" lon="6.12829">
        <ele>341</ele>
        <time>2012-03-17T13:32:44Z</time>
      </trkpt>
      <trkpt lat="48.68391" lon="6.12824">
        <ele>342</ele>
        <time>2012-03-17T13:32:46Z</time>
      </trkpt>
      <trkpt lat="48.68384" lon="6.12817">
        <ele>341</ele>
        <time>2012-03-17T13:32:48Z</time>
      </trkpt>
      <trkpt lat="48.68377" lon="6.12809">
        <ele>339</ele>
        <time>2012-03-17T13:32:50Z</time>
      </trkpt>
      <trkpt lat="48.68371" lon="6.12804">
        <ele>339</ele>
        <time>2012-03-17T13:32:52Z</time>
      </trkpt>
      <trkpt lat="48.68365" lon="6.12798">
        <ele>339</ele>
        <time>2012-03-17T13:32:54Z</time>
      </trkpt>
      <trkpt lat="48.68359" lon="6.12794">
        <ele>340</ele>
        <time>2012-03-17T13:32:56Z</time>
      </trkpt>
      <trkpt lat="48.68353" lon="6.12788">
        <ele>339</ele>
        <time>2012-03-17T13:32:58Z</time>
      </trkpt>
      <trkpt lat="48.68347" lon="6.12782">
        <ele>339</ele>
        <time>2012-03-17T13:33:00Z</time>
      </trkpt>
      <trkpt lat="48.6834" lon="6.12776">
        <ele>339</ele>
        <time>2012-03-17T13:33:02Z</time>
      </trkpt>
      <trkpt lat="48.68333" lon="6.1277">
        <ele>338</ele>
        <time>2012-03-17T13:33:04Z</time>
      </trkpt>
      <trkpt lat="48.68327" lon="6.12764">
        <ele>339</ele>
        <time>2012-03-17T13:33:06Z</time>
      </trkpt>
      <trkpt lat="48.68321" lon="6.12758">
        <ele>338</ele>
        <time>2012-03-17T13:33:08Z</time>
      </trkpt>
      <trkpt lat="48.68314" lon="6.12752">
        <ele>338</ele>
        <time>2012-03-17T13:33:10Z</time>
      </trkpt>
      <trkpt lat="48.68309" lon="6.12746">
        <ele>339</ele>
        <time>2012-03-17T13:33:12Z</time>
      </trkpt>
      <trkpt lat="48.68303" lon="6.12741">
        <ele>341</ele>
        <time>2012-03-17T13:33:14Z</time>
      </trkpt>
      <trkpt lat="48.68296" lon="6.12735">
        <ele>342</ele>
        <time>2012-03-17T13:33:16Z</time>
      </trkpt>
      <trkpt lat="48.6829" lon="6.1273">
        <ele>344</ele>
        <time>2012-03-17T13:33:18Z</time>
      </trkpt>
      <trkpt lat="48.68285" lon="6.12724">
        <ele>348</ele>
        <time>2012-03-17T13:33:20Z</time>
      </trkpt>
      <trkpt lat="48.68277" lon="6.12717">
        <ele>343</ele>
        <time>2012-03-17T13:33:22Z</time>
      </trkpt>
      <trkpt lat="48.68271" lon="6.12709">
        <ele>340</ele>
        <time>2012-03-17T13:33:24Z</time>
      </trkpt>
      <trkpt lat="48.68264" lon="6.12702">
        <ele>341</ele>
        <time>2012-03-17T13:33:26Z</time>
      </trkpt>
      <trkpt lat="48.68258" lon="6.12696">
        <ele>343</ele>
        <time>2012-03-17T13:33:28Z</time>
      </trkpt>
      <trkpt lat="48.68252" lon="6.12689">
        <ele>344</ele>
        <time>2012-03-17T13:33:30Z</time>
      </trkpt>
      <trkpt lat="48.68247" lon="6.12682">
        <ele>343</ele>
        <time>2012-03-17T13:33:32Z</time>
      </trkpt>
      <trkpt lat="48.6824" lon="6.12676">
        <ele>343</ele>
        <time>2012-03-17T13:33:34Z</time>
      </trkpt>
      <trkpt lat="48.68233" lon="6.12668">
        <ele>342</ele>
        <time>2012-03-17T13:33:36Z</time>
      </trkpt>
      <trkpt lat="48.68226" lon="6.1266">
        <ele>339</ele>
        <time>2012-03-17T13:33:38Z</time>
      </trkpt>
      <trkpt lat="48.68219" lon="6.12652">
        <ele>341</ele>
        <time>2012-03-17T13:33:40Z</time>
      </trkpt>
      <trkpt lat="48.68211" lon="6.12646">
        <ele>342</ele>
        <time>2012-03-17T13:33:42Z</time>
      </trkpt>
      <trkpt lat="48.68205" lon="6.12639">
        <ele>342</ele>
        <time>2012-03-17T13:33:44Z</time>
      </trkpt>
      <trkpt lat="48.68198" lon="6.12632">
        <ele>342</ele>
        <time>2012-03-17T13:33:46Z</time>
      </trkpt>
      <trkpt lat="48.68192" lon="6.12624">
        <ele>343</ele>
        <time>2012-03-17T13:33:48Z</time>
      </trkpt>
      <trkpt lat="48.68186" lon="6.12618">
        <ele>344</ele>
        <time>2012-03-17T13:33:50Z</time>
      </trkpt>
      <trkpt lat="48.6818" lon="6.12612">
        <ele>345</ele>
        <time>2012-03-17T13:33:52Z</time>
      </trkpt>
      <trkpt lat="48.68174" lon="6.12607">
        <ele>347</ele>
        <time>2012-03-17T13:33:54Z</time>
      </trkpt>
      <trkpt lat="48.68169" lon="6.12601">
        <ele>350</ele>
        <time>2012-03-17T13:33:56Z</time>
      </trkpt>
      <trkpt lat="48.68165" lon="6.12593">
        <ele>352</ele>
        <time>2012-03-17T13:33:58Z</time>
      </trkpt>
      <trkpt lat="48.6816" lon="6.12583">
        <ele>355</ele>
        <time>2012-03-17T13:34:00Z</time>
      </trkpt>
      <trkpt lat="48.68155" lon="6.12571">
        <ele>355</ele>
        <time>2012-03-17T13:34:02Z</time>
      </trkpt>
      <trkpt lat="48.6815" lon="6.1256">
        <ele>355</ele>
        <time>2012-03-17T13:34:04Z</time>
      </trkpt>
      <trkpt lat="48.68145" lon="6.12549">
        <ele>356</ele>
        <time>2012-03-17T13:34:06Z</time>
      </trkpt>
      <trkpt lat="48.68139" lon="6.12536">
        <ele>355</ele>
        <time>2012-03-17T13:34:08Z</time>
      </trkpt>
      <trkpt lat="48.68135" lon="6.12524">
        <ele>356</ele>
        <time>2012-03-17T13:34:10Z</time>
      </trkpt>
      <trkpt lat="48.68131" lon="6.12511">
        <ele>355</ele>
        <time>2012-03-17T13:34:12Z</time>
      </trkpt>
      <trkpt lat="48.68127" lon="6.12499">
        <ele>355</ele>
        <time>2012-03-17T13:34:14Z</time>
      </trkpt>
      <trkpt lat="48.68125" lon="6.12485">
        <ele>355</ele>
        <time>2012-03-17T13:34:16Z</time>
      </trkpt>
      <trkpt lat="48.68123" lon="6.12469">
        <ele>352</ele>
        <time>2012-03-17T13:34:18Z</time>
      </trkpt>
      <trkpt lat="48.6812" lon="6.12453">
        <ele>352</ele>
        <time>2012-03-17T13:34:20Z</time>
      </trkpt>
      <trkpt lat="48.68116" lon="6.12439">
        <ele>350</ele>
        <time>2012-03-17T13:34:22Z</time>
      </trkpt>
      <trkpt lat="48.68114" lon="6.12425">
        <ele>351</ele>
        <time>2012-03-17T13:34:24Z</time>
      </trkpt>
      <trkpt lat="48.6811" lon="6.12411">
        <ele>352</ele>
        <time>2012-03-17T13:34:26Z</time>
      </trkpt>
      <trkpt lat="48.68107" lon="6.12397">
        <ele>352</ele>
        <time>2012-03-17T13:34:28Z</time>
      </trkpt>
      <trkpt lat="48.68106" lon="6.12384">
        <ele>353</ele>
        <time>2012-03-17T13:34:30Z</time>
      </trkpt>
      <trkpt lat="48.68098" lon="6.12372">
        <ele>358</ele>
        <time>2012-03-17T13:34:32Z</time>
      </trkpt>
      <trkpt lat="48.68091" lon="6.12358">
        <ele>357</ele>
        <time>2012-03-17T13:34:34Z</time>
      </trkpt>
      <trkpt lat="48.68089" lon="6.12342">
        <ele>358</ele>
        <time>2012-03-17T13:34:36Z</time>
      </trkpt>
      <trkpt lat="48.68083" lon="6.12329">
        <ele>357</ele>
        <time>2012-03-17T13:34:38Z</time>
      </trkpt>
      <trkpt lat="48.6808" lon="6.12313">
        <ele>357</ele>
        <time>2012-03-17T13:34:40Z</time>
      </trkpt>
      <trkpt lat="48.68075" lon="6.12298">
        <ele>355</ele>
        <time>2012-03-17T13:34:42Z</time>
      </trkpt>
      <trkpt lat="48.68071" lon="6.12286">
        <ele>355</ele>
        <time>2012-03-17T13:34:44Z</time>
      </trkpt>
      <trkpt lat="48.68065" lon="6.12273">
        <ele>354</ele>
        <time>2012-03-17T13:34:46Z</time>
      </trkpt>
      <trkpt lat="48.68059" lon="6.12257">
        <ele>351</ele>
        <time>2012-03-17T13:34:48Z</time>
      </trkpt>
      <trkpt lat="48.68054" lon="6.12241">
        <ele>350</ele>
        <time>2012-03-17T13:34:50Z</time>
      </trkpt>
      <trkpt lat="48.68049" lon="6.12227">
        <ele>350</ele>
        <time>2012-03-17T13:34:52Z</time>
      </trkpt>
      <trkpt lat="48.68044" lon="6.12213">
        <ele>349</ele>
        <time>2012-03-17T13:34:54Z</time>
      </trkpt>
      <trkpt lat="48.68041" lon="6.12201">
        <ele>351</ele>
        <time>2012-03-17T13:34:56Z</time>
      </trkpt>
      <trkpt lat="48.68036" lon="6.1219">
        <ele>351</ele>
        <time>2012-03-17T13:34:58Z</time>
      </trkpt>
      <trkpt lat="48.68028" lon="6.12177">
        <ele>349</ele>
        <time>2012-03-17T13:35:00Z</time>
      </trkpt>
      <trkpt lat="48.68024" lon="6.12162">
        <ele>348</ele>
        <time>2012-03-17T13:35:02Z</time>
      </trkpt>
      <trkpt lat="48.68018" lon="6.12149">
        <ele>348</ele>
        <time>2012-03-17T13:35:04Z</time>
      </trkpt>
      <trkpt lat="48.68013" lon="6.12134">
        <ele>345</ele>
        <time>2012-03-17T13:35:06Z</time>
      </trkpt>
      <trkpt lat="48.68009" lon="6.12122">
        <ele>343</ele>
        <time>2012-03-17T13:35:08Z</time>
      </trkpt>
      <trkpt lat="48.68004" lon="6.12114">
        <ele>340</ele>
        <time>2012-03-17T13:35:10Z</time>
      </trkpt>
      <trkpt lat="48.68" lon="6.12111">
        <ele>337</ele>
        <time>2012-03-17T13:35:12Z</time>
      </trkpt>
      <trkpt lat="48.67997" lon="6.12111">
        <ele>338</ele>
        <time>2012-03-17T13:35:14Z</time>
      </trkpt>
      <trkpt lat="48.67995" lon="6.12112">
        <ele>338</ele>
        <time>2012-03-17T13:35:16Z</time>
      </trkpt>
      <trkpt lat="48.67991" lon="6.12113">
        <ele>339</ele>
        <time>2012-03-17T13:35:18Z</time>
      </trkpt>
      <trkpt lat="48.67987" lon="6.12117">
        <ele>343</ele>
        <time>2012-03-17T13:35:20Z</time>
      </trkpt>
      <trkpt lat="48.67982" lon="6.1212">
        <ele>346</ele>
        <time>2012-03-17T13:35:22Z</time>
      </trkpt>
      <trkpt lat="48.67977" lon="6.12121">
        <ele>350</ele>
        <time>2012-03-17T13:35:24Z</time>
      </trkpt>
      <trkpt lat="48.67972" lon="6.12123">
        <ele>350</ele>
        <time>2012-03-17T13:35:26Z</time>
      </trkpt>
      <trkpt lat="48.67966" lon="6.12124">
        <ele>351</ele>
        <time>2012-03-17T13:35:28Z</time>
      </trkpt>
      <trkpt lat="48.67961" lon="6.12126">
        <ele>347</ele>
        <time>2012-03-17T13:35:30Z</time>
      </trkpt>
      <trkpt lat="48.67956" lon="6.12129">
        <ele>349</ele>
        <time>2012-03-17T13:35:32Z</time>
      </trkpt>
      <trkpt lat="48.67951" lon="6.12131">
        <ele>348</ele>
        <time>2012-03-17T13:35:34Z</time>
      </trkpt>
      <trkpt lat="48.67946" lon="6.12134">
        <ele>349</ele>
        <time>2012-03-17T13:35:36Z</time>
      </trkpt>
      <trkpt lat="48.6794" lon="6.12139">
        <ele>350</ele>
        <time>2012-03-17T13:35:38Z</time>
      </trkpt>
      <trkpt lat="48.67934" lon="6.12142">
        <ele>348</ele>
        <time>2012-03-17T13:35:40Z</time>
      </trkpt>
      <trkpt lat="48.67928" lon="6.12144">
        <ele>348</ele>
        <time>2012-03-17T13:35:42Z</time>
      </trkpt>
      <trkpt lat="48.67921" lon="6.12148">
        <ele>350</ele>
        <time>2012-03-17T13:35:44Z</time>
      </trkpt>
      <trkpt lat="48.67914" lon="6.1215">
        <ele>349</ele>
        <time>2012-03-17T13:35:46Z</time>
      </trkpt>
      <trkpt lat="48.67906" lon="6.12151">
        <ele>353</ele>
        <time>2012-03-17T13:35:48Z</time>
      </trkpt>
      <trkpt lat="48.67897" lon="6.12155">
        <ele>351</ele>
        <time>2012-03-17T13:35:50Z</time>
      </trkpt>
      <trkpt lat="48.6789" lon="6.12158">
        <ele>349</ele>
        <time>2012-03-17T13:35:52Z</time>
      </trkpt>
      <trkpt lat="48.67884" lon="6.1216">
        <ele>350</ele>
        <time>2012-03-17T13:35:54Z</time>
      </trkpt>
      <trkpt lat="48.67878" lon="6.12162">
        <ele>352</ele>
        <time>2012-03-17T13:35:56Z</time>
      </trkpt>
      <trkpt lat="48.67872" lon="6.12161">
        <ele>351</ele>
        <time>2012-03-17T13:35:58Z</time>
      </trkpt>
      <trkpt lat="48.67865" lon="6.12162">
        <ele>354</ele>
        <time>2012-03-17T13:36:00Z</time>
      </trkpt>
      <trkpt lat="48.67857" lon="6.12167">
        <ele>354</ele>
        <time>2012-03-17T13:36:02Z</time>
      </trkpt>
      <trkpt lat="48.67849" lon="6.12169">
        <ele>353</ele>
        <time>2012-03-17T13:36:04Z</time>
      </trkpt>
      <trkpt lat="48.67839" lon="6.12168">
        <ele>355</ele>
        <time>2012-03-17T13:36:06Z</time>
      </trkpt>
      <trkpt lat="48.67828" lon="6.12168">
        <ele>353</ele>
        <time>2012-03-17T13:36:08Z</time>
      </trkpt>
      <trkpt lat="48.67819" lon="6.12172">
        <ele>349</ele>
        <time>2012-03-17T13:36:10Z</time>
      </trkpt>
      <trkpt lat="48.67811" lon="6.12176">
        <ele>346</ele>
        <time>2012-03-17T13:36:12Z</time>
      </trkpt>
      <trkpt lat="48.67804" lon="6.12176">
        <ele>345</ele>
        <time>2012-03-17T13:36:14Z</time>
      </trkpt>
      <trkpt lat="48.67796" lon="6.12176">
        <ele>345</ele>
        <time>2012-03-17T13:36:16Z</time>
      </trkpt>
      <trkpt lat="48.67786" lon="6.12173">
        <ele>348</ele>
        <time>2012-03-17T13:36:18Z</time>
      </trkpt>
      <trkpt lat="48.67776" lon="6.1217">
        <ele>346</ele>
        <time>2012-03-17T13:36:20Z</time>
      </trkpt>
      <trkpt lat="48.67772" lon="6.12165">
        <ele>349</ele>
        <time>2012-03-17T13:36:22Z</time>
      </trkpt>
      <trkpt lat="48.67767" lon="6.12163">
        <ele>352</ele>
        <time>2012-03-17T13:36:24Z</time>
      </trkpt>
      <trkpt lat="48.6776" lon="6.12162">
        <ele>351</ele>
        <time>2012-03-17T13:36:26Z</time>
      </trkpt>
      <trkpt lat="48.67752" lon="6.12162">
        <ele>350</ele>
        <time>2012-03-17T13:36:28Z</time>
      </trkpt>
      <trkpt lat="48.67744" lon="6.12162">
        <ele>348</ele>
        <time>2012-03-17T13:36:30Z</time>
      </trkpt>
      <trkpt lat="48.67737" lon="6.12162">
        <ele>351</ele>
        <time>2012-03-17T13:36:32Z</time>
      </trkpt>
      <trkpt lat="48.67729" lon="6.12162">
        <ele>351</ele>
        <time>2012-03-17T13:36:34Z</time>
      </trkpt>
      <trkpt lat="48.67724" lon="6.12162">
        <ele>350</ele>
        <time>2012-03-17T13:36:36Z</time>
      </trkpt>
      <trkpt lat="48.67716" lon="6.12162">
        <ele>350</ele>
        <time>2012-03-17T13:36:38Z</time>
      </trkpt>
      <trkpt lat="48.6771" lon="6.12162">
        <ele>349</ele>
        <time>2012-03-17T13:36:40Z</time>
      </trkpt>
      <trkpt lat="48.67706" lon="6.12159">
        <ele>351</ele>
        <time>2012-03-17T13:36:42Z</time>
      </trkpt>
      <trkpt lat="48.67704" lon="6.12155">
        <ele>354</ele>
        <time>2012-03-17T13:36:44Z</time>
      </trkpt>
      <trkpt lat="48.677" lon="6.12149">
        <ele>352</ele>
        <time>2012-03-17T13:36:46Z</time>
      </trkpt>
      <trkpt lat="48.67692" lon="6.12147">
        <ele>352</ele>
        <time>2012-03-17T13:36:48Z</time>
      </trkpt>
      <trkpt lat="48.67683" lon="6.12143">
        <ele>352</ele>
        <time>2012-03-17T13:36:50Z</time>
      </trkpt>
      <trkpt lat="48.67676" lon="6.12141">
        <ele>349</ele>
        <time>2012-03-17T13:36:52Z</time>
      </trkpt>
      <trkpt lat="48.6767" lon="6.12141">
        <ele>353</ele>
        <time>2012-03-17T13:36:54Z</time>
      </trkpt>
      <trkpt lat="48.67665" lon="6.12142">
        <ele>354</ele>
        <time>2012-03-17T13:36:56Z</time>
      </trkpt>
      <trkpt lat="48.67657" lon="6.12142">
        <ele>350</ele>
        <time>2012-03-17T13:36:58Z</time>
      </trkpt>
      <trkpt lat="48.6765" lon="6.12141">
        <ele>352</ele>
        <time>2012-03-17T13:37:00Z</time>
      </trkpt>
      <trkpt lat="48.67643" lon="6.12142">
        <ele>352</ele>
        <time>2012-03-17T13:37:02Z</time>
      </trkpt>
      <trkpt lat="48.67638" lon="6.12143">
        <ele>347</ele>
        <time>2012-03-17T13:37:04Z</time>
      </trkpt>
      <trkpt lat="48.67632" lon="6.12142">
        <ele>347</ele>
        <time>2012-03-17T13:37:06Z</time>
      </trkpt>
      <trkpt lat="48.67627" lon="6.12141">
        <ele>344</ele>
        <time>2012-03-17T13:37:08Z</time>
      </trkpt>
      <trkpt lat="48.67622" lon="6.12141">
        <ele>344</ele>
        <time>2012-03-17T13:37:10Z</time>
      </trkpt>
      <trkpt lat="48.67617" lon="6.12146">
        <ele>349</ele>
        <time>2012-03-17T13:37:12Z</time>
      </trkpt>
      <trkpt lat="48.67611" lon="6.12147">
        <ele>354</ele>
        <time>2012-03-17T13:37:14Z</time>
      </trkpt>
      <trkpt lat="48.67606" lon="6.12151">
        <ele>354</ele>
        <time>2012-03-17T13:37:16Z</time>
      </trkpt>
      <trkpt lat="48.67599" lon="6.12151">
        <ele>354</ele>
        <time>2012-03-17T13:37:18Z</time>
      </trkpt>
      <trkpt lat="48.67594" lon="6.1215">
        <ele>353</ele>
        <time>2012-03-17T13:37:20Z</time>
      </trkpt>
      <trkpt lat="48.6759" lon="6.1215">
        <ele>353</ele>
        <time>2012-03-17T13:37:22Z</time>
      </trkpt>
      <trkpt lat="48.67587" lon="6.12151">
        <ele>356</ele>
        <time>2012-03-17T13:37:24Z</time>
      </trkpt>
      <trkpt lat="48.67584" lon="6.12154">
        <ele>356</ele>
        <time>2012-03-17T13:37:26Z</time>
      </trkpt>
      <trkpt lat="48.67579" lon="6.12159">
        <ele>356</ele>
        <time>2012-03-17T13:37:28Z</time>
      </trkpt>
      <trkpt lat="48.67572" lon="6.12162">
        <ele>353</ele>
        <time>2012-03-17T13:37:30Z</time>
      </trkpt>
      <trkpt lat="48.67566" lon="6.12164">
        <ele>354</ele>
        <time>2012-03-17T13:37:32Z</time>
      </trkpt>
      <trkpt lat="48.67561" lon="6.12164">
        <ele>355</ele>
        <time>2012-03-17T13:37:34Z</time>
      </trkpt>
      <trkpt lat="48.67556" lon="6.12166">
        <ele>351</ele>
        <time>2012-03-17T13:37:36Z</time>
      </trkpt>
      <trkpt lat="48.67553" lon="6.12165">
        <ele>350</ele>
        <time>2012-03-17T13:37:38Z</time>
      </trkpt>
      <trkpt lat="48.67549" lon="6.12165">
        <ele>349</ele>
        <time>2012-03-17T13:37:40Z</time>
      </trkpt>
      <trkpt lat="48.67547" lon="6.12162">
        <ele>354</ele>
        <time>2012-03-17T13:37:42Z</time>
      </trkpt>
      <trkpt lat="48.67545" lon="6.12159">
        <ele>355</ele>
        <time>2012-03-17T13:37:44Z</time>
      </trkpt>
      <trkpt lat="48.6754" lon="6.12154">
        <ele>349</ele>
        <time>2012-03-17T13:37:46Z</time>
      </trkpt>
      <trkpt lat="48.67535" lon="6.12147">
        <ele>349</ele>
        <time>2012-03-17T13:37:48Z</time>
      </trkpt>
      <trkpt lat="48.67528" lon="6.12146">
        <ele>347</ele>
        <time>2012-03-17T13:37:50Z</time>
      </trkpt>
      <trkpt lat="48.67521" lon="6.12145">
        <ele>343</ele>
        <time>2012-03-17T13:37:52Z</time>
      </trkpt>
      <trkpt lat="48.67514" lon="6.12145">
        <ele>341</ele>
        <time>2012-03-17T13:37:54Z</time>
      </trkpt>
      <trkpt lat="48.67507" lon="6.12147">
        <ele>338</ele>
        <time>2012-03-17T13:37:56Z</time>
      </trkpt>
      <trkpt lat="48.675" lon="6.12149">
        <ele>336</ele>
        <time>2012-03-17T13:37:58Z</time>
      </trkpt>
      <trkpt lat="48.67493" lon="6.12151">
        <ele>335</ele>
        <time>2012-03-17T13:38:00Z</time>
      </trkpt>
      <trkpt lat="48.67487" lon="6.12153">
        <ele>334</ele>
        <time>2012-03-17T13:38:02Z</time>
      </trkpt>
      <trkpt lat="48.67482" lon="6.12156">
        <ele>333</ele>
        <time>2012-03-17T13:38:04Z</time>
      </trkpt>
      <trkpt lat="48.67477" lon="6.12158">
        <ele>333</ele>
        <time>2012-03-17T13:38:06Z</time>
      </trkpt>
      <trkpt lat="48.67471" lon="6.1216">
        <ele>333</ele>
        <time>2012-03-17T13:38:08Z</time>
      </trkpt>
      <trkpt lat="48.67466" lon="6.12162">
        <ele>333</ele>
        <time>2012-03-17T13:38:10Z</time>
      </trkpt>
      <trkpt lat="48.67461" lon="6.12163">
        <ele>334</ele>
        <time>2012-03-17T13:38:12Z</time>
      </trkpt>
      <trkpt lat="48.67455" lon="6.12165">
        <ele>334</ele>
        <time>2012-03-17T13:38:14Z</time>
      </trkpt>
      <trkpt lat="48.67449" lon="6.12167">
        <ele>334</ele>
        <time>2012-03-17T13:38:16Z</time>
      </trkpt>
      <trkpt lat="48.67443" lon="6.12168">
        <ele>335</ele>
        <time>2012-03-17T13:38:18Z</time>
      </trkpt>
      <trkpt lat="48.67436" lon="6.1217">
        <ele>333</ele>
        <time>2012-03-17T13:38:20Z</time>
      </trkpt>
      <trkpt lat="48.67429" lon="6.12173">
        <ele>332</ele>
        <time>2012-03-17T13:38:22Z</time>
      </trkpt>
      <trkpt lat="48.67423" lon="6.12175">
        <ele>331</ele>
        <time>2012-03-17T13:38:24Z</time>
      </trkpt>
      <trkpt lat="48.67418" lon="6.12178">
        <ele>333</ele>
        <time>2012-03-17T13:38:26Z</time>
      </trkpt>
      <trkpt lat="48.67413" lon="6.12178">
        <ele>338</ele>
        <time>2012-03-17T13:38:28Z</time>
      </trkpt>
      <trkpt lat="48.67408" lon="6.12177">
        <ele>339</ele>
        <time>2012-03-17T13:38:30Z</time>
      </trkpt>
      <trkpt lat="48.67405" lon="6.12173">
        <ele>340</ele>
        <time>2012-03-17T13:38:32Z</time>
      </trkpt>
      <trkpt lat="48.67402" lon="6.12168">
        <ele>341</ele>
        <time>2012-03-17T13:38:34Z</time>
      </trkpt>
      <trkpt lat="48.674" lon="6.12162">
        <ele>346</ele>
        <time>2012-03-17T13:38:36Z</time>
      </trkpt>
      <trkpt lat="48.67398" lon="6.12156">
        <ele>348</ele>
        <time>2012-03-17T13:38:38Z</time>
      </trkpt>
      <trkpt lat="48.67395" lon="6.12151">
        <ele>350</ele>
        <time>2012-03-17T13:38:40Z</time>
      </trkpt>
      <trkpt lat="48.67394" lon="6.12145">
        <ele>352</ele>
        <time>2012-03-17T13:38:42Z</time>
      </trkpt>
      <trkpt lat="48.67393" lon="6.12139">
        <ele>353</ele>
        <time>2012-03-17T13:38:44Z</time>
      </trkpt>
      <trkpt lat="48.67391" lon="6.12132">
        <ele>354</ele>
        <time>2012-03-17T13:38:46Z</time>
      </trkpt>
      <trkpt lat="48.67389" lon="6.12125">
        <ele>353</ele>
        <time>2012-03-17T13:38:48Z</time>
      </trkpt>
      <trkpt lat="48.67387" lon="6.12115">
        <ele>351</ele>
        <time>2012-03-17T13:38:50Z</time>
      </trkpt>
      <trkpt lat="48.67386" lon="6.12105">
        <ele>351</ele>
        <time>2012-03-17T13:38:52Z</time>
      </trkpt>
      <trkpt lat="48.67386" lon="6.12088">
        <ele>351</ele>
        <time>2012-03-17T13:38:54Z</time>
      </trkpt>
      <trkpt lat="48.67389" lon="6.12072">
        <ele>351</ele>
        <time>2012-03-17T13:38:56Z</time>
      </trkpt>
      <trkpt lat="48.6739" lon="6.12055">
        <ele>349</ele>
        <time>2012-03-17T13:38:58Z</time>
      </trkpt>
      <trkpt lat="48.67393" lon="6.1204">
        <ele>351</ele>
        <time>2012-03-17T13:39:00Z</time>
      </trkpt>
      <trkpt lat="48.67394" lon="6.12027">
        <ele>355</ele>
        <time>2012-03-17T13:39:02Z</time>
      </trkpt>
      <trkpt lat="48.67394" lon="6.12014">
        <ele>354</ele>
        <time>2012-03-17T13:39:04Z</time>
      </trkpt>
      <trkpt lat="48.67395" lon="6.11997">
        <ele>357</ele>
        <time>2012-03-17T13:39:06Z</time>
      </trkpt>
      <trkpt lat="48.67398" lon="6.1198">
        <ele>352</ele>
        <time>2012-03-17T13:39:08Z</time>
      </trkpt>
      <trkpt lat="48.67399" lon="6.11967">
        <ele>350</ele>
        <time>2012-03-17T13:39:10Z</time>
      </trkpt>
      <trkpt lat="48.674" lon="6.11958">
        <ele>355</ele>
        <time>2012-03-17T13:39:12Z</time>
      </trkpt>
      <trkpt lat="48.67399" lon="6.11948">
        <ele>357</ele>
        <time>2012-03-17T13:39:14Z</time>
      </trkpt>
      <trkpt lat="48.674" lon="6.11937">
        <ele>353</ele>
        <time>2012-03-17T13:39:16Z</time>
      </trkpt>
      <trkpt lat="48.674" lon="6.11927">
        <ele>351</ele>
        <time>2012-03-17T13:39:18Z</time>
      </trkpt>
      <trkpt lat="48.67401" lon="6.11917">
        <ele>353</ele>
        <time>2012-03-17T13:39:20Z</time>
      </trkpt>
      <trkpt lat="48.67401" lon="6.11903">
        <ele>355</ele>
        <time>2012-03-17T13:39:22Z</time>
      </trkpt>
      <trkpt lat="48.67402" lon="6.11891">
        <ele>357</ele>
        <time>2012-03-17T13:39:24Z</time>
      </trkpt>
      <trkpt lat="48.67401" lon="6.11879">
        <ele>354</ele>
        <time>2012-03-17T13:39:26Z</time>
      </trkpt>
      <trkpt lat="48.674" lon="6.11869">
        <ele>355</ele>
        <time>2012-03-17T13:39:28Z</time>
      </trkpt>
      <trkpt lat="48.67403" lon="6.11855">
        <ele>358</ele>
        <time>2012-03-17T13:39:30Z</time>
      </trkpt>
      <trkpt lat="48.67407" lon="6.11841">
        <ele>354</ele>
        <time>2012-03-17T13:39:32Z</time>
      </trkpt>
      <trkpt lat="48.67408" lon="6.11829">
        <ele>359</ele>
        <time>2012-03-17T13:39:34Z</time>
      </trkpt>
      <trkpt lat="48.6741" lon="6.11817">
        <ele>361</ele>
        <time>2012-03-17T13:39:36Z</time>
      </trkpt>
      <trkpt lat="48.67412" lon="6.11803">
        <ele>360</ele>
        <time>2012-03-17T13:39:38Z</time>
      </trkpt>
      <trkpt lat="48.67412" lon="6.11789">
        <ele>360</ele>
        <time>2012-03-17T13:39:40Z</time>
      </trkpt>
      <trkpt lat="48.67411" lon="6.11779">
        <ele>355</ele>
        <time>2012-03-17T13:39:42Z</time>
      </trkpt>
      <trkpt lat="48.6741" lon="6.11771">
        <ele>351</ele>
        <time>2012-03-17T13:39:44Z</time>
      </trkpt>
      <trkpt lat="48.67409" lon="6.11763">
        <ele>351</ele>
        <time>2012-03-17T13:39:46Z</time>
      </trkpt>
      <trkpt lat="48.67408" lon="6.11755">
        <ele>351</ele>
        <time>2012-03-17T13:39:48Z</time>
      </trkpt>
      <trkpt lat="48.67409" lon="6.11747">
        <ele>353</ele>
        <time>2012-03-17T13:39:50Z</time>
      </trkpt>
      <trkpt lat="48.67411" lon="6.11737">
        <ele>356</ele>
        <time>2012-03-17T13:39:52Z</time>
      </trkpt>
      <trkpt lat="48.67412" lon="6.11723">
        <ele>354</ele>
        <time>2012-03-17T13:39:54Z</time>
      </trkpt>
      <trkpt lat="48.67413" lon="6.11711">
        <ele>352</ele>
        <time>2012-03-17T13:39:56Z</time>
      </trkpt>
      <trkpt lat="48.67414" lon="6.11702">
        <ele>354</ele>
        <time>2012-03-17T13:39:58Z</time>
      </trkpt>
      <trkpt lat="48.67415" lon="6.11695">
        <ele>353</ele>
        <time>2012-03-17T13:40:00Z</time>
      </trkpt>
      <trkpt lat="48.67415" lon="6.11685">
        <ele>352</ele>
        <time>2012-03-17T13:40:02Z</time>
      </trkpt>
      <trkpt lat="48.67416" lon="6.11677">
        <ele>352</ele>
        <time>2012-03-17T13:40:04Z</time>
      </trkpt>
      <trkpt lat="48.67417" lon="6.11669">
        <ele>352</ele>
        <time>2012-03-17T13:40:06Z</time>
      </trkpt>
      <trkpt lat="48.67418" lon="6.1166">
        <ele>354</ele>
        <time>2012-03-17T13:40:08Z</time>
      </trkpt>
      <trkpt lat="48.67418" lon="6.11649">
        <ele>355</ele>
        <time>2012-03-17T13:40:10Z</time>
      </trkpt>
      <trkpt lat="48.67419" lon="6.11639">
        <ele>354</ele>
        <time>2012-03-17T13:40:12Z</time>
      </trkpt>
      <trkpt lat="48.6742" lon="6.11628">
        <ele>354</ele>
        <time>2012-03-17T13:40:14Z</time>
      </trkpt>
      <trkpt lat="48.6742" lon="6.11615">
        <ele>355</ele>
        <time>2012-03-17T13:40:16Z</time>
      </trkpt>
      <trkpt lat="48.67421" lon="6.11601">
        <ele>353</ele>
        <time>2012-03-17T13:40:18Z</time>
      </trkpt>
      <trkpt lat="48.67423" lon="6.1159">
        <ele>352</ele>
        <time>2012-03-17T13:40:20Z</time>
      </trkpt>
      <trkpt lat="48.67422" lon="6.1158">
        <ele>348</ele>
        <time>2012-03-17T13:40:22Z</time>
      </trkpt>
      <trkpt lat="48.67421" lon="6.11571">
        <ele>347</ele>
        <time>2012-03-17T13:40:24Z</time>
      </trkpt>
      <trkpt lat="48.67423" lon="6.11562">
        <ele>345</ele>
        <time>2012-03-17T13:40:26Z</time>
      </trkpt>
      <trkpt lat="48.67424" lon="6.11553">
        <ele>342</ele>
        <time>2012-03-17T13:40:28Z</time>
      </trkpt>
      <trkpt lat="48.67424" lon="6.11548">
        <ele>340</ele>
        <time>2012-03-17T13:40:30Z</time>
      </trkpt>
      <trkpt lat="48.67424" lon="6.11545">
        <ele>330</ele>
        <time>2012-03-17T13:40:34Z</time>
      </trkpt>
      <trkpt lat="48.67424" lon="6.11544">
        <ele>330</ele>
        <time>2012-03-17T13:40:36Z</time>
      </trkpt>
      <trkpt lat="48.67424" lon="6.11542">
        <ele>330</ele>
        <time>2012-03-17T13:40:42Z</time>
      </trkpt>
      <trkpt lat="48.67427" lon="6.11538">
        <ele>330</ele>
        <time>2012-03-17T13:40:52Z</time>
      </trkpt>
      <trkpt lat="48.6743" lon="6.1153">
        <ele>322</ele>
        <time>2012-03-17T13:41:14Z</time>
      </trkpt>
      <trkpt lat="48.67431" lon="6.1153">
        <ele>335</ele>
        <time>2012-03-17T13:41:18Z</time>
      </trkpt>
      <trkpt lat="48.67431" lon="6.1153">
        <ele>337</ele>
        <time>2012-03-17T13:41:24Z</time>
      </trkpt>
      <trkpt lat="48.6743" lon="6.11518">
        <ele>333</ele>
        <time>2012-03-17T13:42:15Z</time>
      </trkpt>
      <trkpt lat="48.6743" lon="6.11514">
        <ele>333</ele>
        <time>2012-03-17T13:42:17Z</time>
      </trkpt>
      <trkpt lat="48.6743" lon="6.11512">
        <ele>331</ele>
        <time>2012-03-17T13:42:19Z</time>
      </trkpt>
      <trkpt lat="48.6743" lon="6.1151">
        <ele>328</ele>
        <time>2012-03-17T13:42:21Z</time>
      </trkpt>
      <trkpt lat="48.67429" lon="6.11506">
        <ele>328</ele>
        <time>2012-03-17T13:42:25Z</time>
      </trkpt>
      <trkpt lat="48.67428" lon="6.11503">
        <ele>325</ele>
        <time>2012-03-17T13:42:27Z</time>
      </trkpt>
      <trkpt lat="48.67427" lon="6.115">
        <ele>325</ele>
        <time>2012-03-17T13:42:29Z</time>
      </trkpt>
      <trkpt lat="48.67426" lon="6.11497">
        <ele>324</ele>
        <time>2012-03-17T13:42:31Z</time>
      </trkpt>
      <trkpt lat="48.67426" lon="6.11491">
        <ele>324</ele>
        <time>2012-03-17T13:42:37Z</time>
      </trkpt>
      <trkpt lat="48.67427" lon="6.11487">
        <ele>327</ele>
        <time>2012-03-17T13:42:39Z</time>
      </trkpt>
      <trkpt lat="48.67428" lon="6.11483">
        <ele>326</ele>
        <time>2012-03-17T13:42:41Z</time>
      </trkpt>
      <trkpt lat="48.67429" lon="6.11479">
        <ele>325</ele>
        <time>2012-03-17T13:42:43Z</time>
      </trkpt>
      <trkpt lat="48.67429" lon="6.11475">
        <ele>324</ele>
        <time>2012-03-17T13:42:45Z</time>
      </trkpt>
      <trkpt lat="48.67431" lon="6.1147">
        <ele>320</ele>
        <time>2012-03-17T13:42:47Z</time>
      </trkpt>
      <trkpt lat="48.67431" lon="6.1147">
        <ele>324</ele>
        <time>2012-03-17T13:42:49Z</time>
      </trkpt>
      <trkpt lat="48.67431" lon="6.11468">
        <ele>323</ele>
        <time>2012-03-17T13:42:51Z</time>
      </trkpt>
      <trkpt lat="48.67433" lon="6.11462">
        <ele>316</ele>
        <time>2012-03-17T13:42:53Z</time>
      </trkpt>
      <trkpt lat="48.67433" lon="6.11457">
        <ele>313</ele>
        <time>2012-03-17T13:42:55Z</time>
      </trkpt>
      <trkpt lat="48.67433" lon="6.11453">
        <ele>311</ele>
        <time>2012-03-17T13:42:57Z</time>
      </trkpt>
      <trkpt lat="48.67437" lon="6.11449">
        <ele>311</ele>
        <time>2012-03-17T13:42:59Z</time>
      </trkpt>
      <trkpt lat="48.67442" lon="6.11441">
        <ele>302</ele>
        <time>2012-03-17T13:43:09Z</time>
      </trkpt>
      <trkpt lat="48.67447" lon="6.11441">
        <ele>302</ele>
        <time>2012-03-17T13:43:11Z</time>
      </trkpt>
      <trkpt lat="48.67452" lon="6.11442">
        <ele>303</ele>
        <time>2012-03-17T13:43:13Z</time>
      </trkpt>
      <trkpt lat="48.67456" lon="6.11441">
        <ele>303</ele>
        <time>2012-03-17T13:43:15Z</time>
      </trkpt>
      <trkpt lat="48.67461" lon="6.1144">
        <ele>306</ele>
        <time>2012-03-17T13:43:17Z</time>
      </trkpt>
      <trkpt lat="48.67465" lon="6.11438">
        <ele>308</ele>
        <time>2012-03-17T13:43:19Z</time>
      </trkpt>
      <trkpt lat="48.67471" lon="6.11436">
        <ele>311</ele>
        <time>2012-03-17T13:43:21Z</time>
      </trkpt>
      <trkpt lat="48.67477" lon="6.11434">
        <ele>311</ele>
        <time>2012-03-17T13:43:23Z</time>
      </trkpt>
      <trkpt lat="48.67483" lon="6.11432">
        <ele>309</ele>
        <time>2012-03-17T13:43:25Z</time>
      </trkpt>
      <trkpt lat="48.6749" lon="6.1143">
        <ele>308</ele>
        <time>2012-03-17T13:43:27Z</time>
      </trkpt>
      <trkpt lat="48.67497" lon="6.11429">
        <ele>311</ele>
        <time>2012-03-17T13:43:29Z</time>
      </trkpt>
      <trkpt lat="48.67503" lon="6.11429">
        <ele>310</ele>
        <time>2012-03-17T13:43:31Z</time>
      </trkpt>
      <trkpt lat="48.67509" lon="6.11429">
        <ele>310</ele>
        <time>2012-03-17T13:43:33Z</time>
      </trkpt>
      <trkpt lat="48.67514" lon="6.11428">
        <ele>309</ele>
        <time>2012-03-17T13:43:35Z</time>
      </trkpt>
      <trkpt lat="48.67519" lon="6.11427">
        <ele>312</ele>
        <time>2012-03-17T13:43:37Z</time>
      </trkpt>
      <trkpt lat="48.67525" lon="6.11426">
        <ele>312</ele>
        <time>2012-03-17T13:43:39Z</time>
      </trkpt>
      <trkpt lat="48.6753" lon="6.11425">
        <ele>314</ele>
        <time>2012-03-17T13:43:41Z</time>
      </trkpt>
      <trkpt lat="48.67537" lon="6.11425">
        <ele>314</ele>
        <time>2012-03-17T13:43:43Z</time>
      </trkpt>
      <trkpt lat="48.67544" lon="6.11424">
        <ele>314</ele>
        <time>2012-03-17T13:43:45Z</time>
      </trkpt>
      <trkpt lat="48.67553" lon="6.11423">
        <ele>314</ele>
        <time>2012-03-17T13:43:47Z</time>
      </trkpt>
      <trkpt lat="48.67562" lon="6.11421">
        <ele>314</ele>
        <time>2012-03-17T13:43:49Z</time>
      </trkpt>
      <trkpt lat="48.67571" lon="6.11419">
        <ele>314</ele>
        <time>2012-03-17T13:43:51Z</time>
      </trkpt>
      <trkpt lat="48.67579" lon="6.11417">
        <ele>314</ele>
        <time>2012-03-17T13:43:53Z</time>
      </trkpt>
      <trkpt lat="48.67588" lon="6.11416">
        <ele>317</ele>
        <time>2012-03-17T13:43:55Z</time>
      </trkpt>
      <trkpt lat="48.67597" lon="6.11415">
        <ele>318</ele>
        <time>2012-03-17T13:43:57Z</time>
      </trkpt>
      <trkpt lat="48.67605" lon="6.11414">
        <ele>314</ele>
        <time>2012-03-17T13:43:59Z</time>
      </trkpt>
      <trkpt lat="48.67613" lon="6.11414">
        <ele>313</ele>
        <time>2012-03-17T13:44:01Z</time>
      </trkpt>
      <trkpt lat="48.6762" lon="6.11414">
        <ele>312</ele>
        <time>2012-03-17T13:44:03Z</time>
      </trkpt>
      <trkpt lat="48.67627" lon="6.11413">
        <ele>312</ele>
        <time>2012-03-17T13:44:05Z</time>
      </trkpt>
      <trkpt lat="48.67634" lon="6.11413">
        <ele>311</ele>
        <time>2012-03-17T13:44:07Z</time>
      </trkpt>
      <trkpt lat="48.67641" lon="6.11412">
        <ele>312</ele>
        <time>2012-03-17T13:44:09Z</time>
      </trkpt>
      <trkpt lat="48.6765" lon="6.11412">
        <ele>310</ele>
        <time>2012-03-17T13:44:11Z</time>
      </trkpt>
      <trkpt lat="48.67659" lon="6.11412">
        <ele>308</ele>
        <time>2012-03-17T13:44:13Z</time>
      </trkpt>
      <trkpt lat="48.67667" lon="6.11413">
        <ele>306</ele>
        <time>2012-03-17T13:44:15Z</time>
      </trkpt>
      <trkpt lat="48.67672" lon="6.11415">
        <ele>308</ele>
        <time>2012-03-17T13:44:17Z</time>
      </trkpt>
      <trkpt lat="48.67677" lon="6.11418">
        <ele>309</ele>
        <time>2012-03-17T13:44:19Z</time>
      </trkpt>
      <trkpt lat="48.67679" lon="6.1142">
        <ele>311</ele>
        <time>2012-03-17T13:44:20Z</time>
      </trkpt>
      <trkpt lat="48.67681" lon="6.11421">
        <ele>308</ele>
        <time>2012-03-17T13:44:21Z</time>
      </trkpt>
      <trkpt lat="48.67686" lon="6.11426">
        <ele>315</ele>
        <time>2012-03-17T13:44:23Z</time>
      </trkpt>
      <trkpt lat="48.67691" lon="6.11431">
        <ele>311</ele>
        <time>2012-03-17T13:44:25Z</time>
      </trkpt>
      <trkpt lat="48.67694" lon="6.11436">
        <ele>314</ele>
        <time>2012-03-17T13:44:27Z</time>
      </trkpt>
      <trkpt lat="48.67698" lon="6.1144">
        <ele>317</ele>
        <time>2012-03-17T13:44:29Z</time>
      </trkpt>
      <trkpt lat="48.67702" lon="6.11442">
        <ele>322</ele>
        <time>2012-03-17T13:44:31Z</time>
      </trkpt>
      <trkpt lat="48.67707" lon="6.11443">
        <ele>320</ele>
        <time>2012-03-17T13:44:33Z</time>
      </trkpt>
      <trkpt lat="48.67717" lon="6.11443">
        <ele>321</ele>
        <time>2012-03-17T13:44:35Z</time>
      </trkpt>
      <trkpt lat="48.6773" lon="6.11445">
        <ele>318</ele>
        <time>2012-03-17T13:44:37Z</time>
      </trkpt>
      <trkpt lat="48.6774" lon="6.1145">
        <ele>316</ele>
        <time>2012-03-17T13:44:39Z</time>
      </trkpt>
      <trkpt lat="48.67746" lon="6.11453">
        <ele>317</ele>
        <time>2012-03-17T13:44:41Z</time>
      </trkpt>
      <trkpt lat="48.67754" lon="6.11454">
        <ele>321</ele>
        <time>2012-03-17T13:44:43Z</time>
      </trkpt>
      <trkpt lat="48.67759" lon="6.11454">
        <ele>321</ele>
        <time>2012-03-17T13:44:45Z</time>
      </trkpt>
      <trkpt lat="48.67764" lon="6.11455">
        <ele>322</ele>
        <time>2012-03-17T13:44:47Z</time>
      </trkpt>
      <trkpt lat="48.67766" lon="6.11455">
        <ele>321</ele>
        <time>2012-03-17T13:44:49Z</time>
      </trkpt>
      <trkpt lat="48.67769" lon="6.11455">
        <ele>320</ele>
        <time>2012-03-17T13:44:51Z</time>
      </trkpt>
      <trkpt lat="48.67772" lon="6.11454">
        <ele>315</ele>
        <time>2012-03-17T13:44:53Z</time>
      </trkpt>
      <trkpt lat="48.67775" lon="6.11454">
        <ele>314</ele>
        <time>2012-03-17T13:44:55Z</time>
      </trkpt>
      <trkpt lat="48.67779" lon="6.11453">
        <ele>314</ele>
        <time>2012-03-17T13:44:57Z</time>
      </trkpt>
      <trkpt lat="48.67782" lon="6.11451">
        <ele>317</ele>
        <time>2012-03-17T13:44:59Z</time>
      </trkpt>
      <trkpt lat="48.67786" lon="6.11451">
        <ele>319</ele>
        <time>2012-03-17T13:45:01Z</time>
      </trkpt>
      <trkpt lat="48.6779" lon="6.11452">
        <ele>322</ele>
        <time>2012-03-17T13:45:03Z</time>
      </trkpt>
      <trkpt lat="48.67794" lon="6.11452">
        <ele>325</ele>
        <time>2012-03-17T13:45:05Z</time>
      </trkpt>
      <trkpt lat="48.678" lon="6.11453">
        <ele>324</ele>
        <time>2012-03-17T13:45:07Z</time>
      </trkpt>
      <trkpt lat="48.67804" lon="6.11453">
        <ele>324</ele>
        <time>2012-03-17T13:45:09Z</time>
      </trkpt>
      <trkpt lat="48.67809" lon="6.11452">
        <ele>325</ele>
        <time>2012-03-17T13:45:11Z</time>
      </trkpt>
      <trkpt lat="48.67814" lon="6.11453">
        <ele>326</ele>
        <time>2012-03-17T13:45:13Z</time>
      </trkpt>
      <trkpt lat="48.67818" lon="6.11451">
        <ele>326</ele>
        <time>2012-03-17T13:45:15Z</time>
      </trkpt>
      <trkpt lat="48.67825" lon="6.1145">
        <ele>327</ele>
        <time>2012-03-17T13:45:17Z</time>
      </trkpt>
      <trkpt lat="48.67831" lon="6.1145">
        <ele>328</ele>
        <time>2012-03-17T13:45:19Z</time>
      </trkpt>
      <trkpt lat="48.67835" lon="6.11449">
        <ele>328</ele>
        <time>2012-03-17T13:45:21Z</time>
      </trkpt>
      <trkpt lat="48.67839" lon="6.11449">
        <ele>329</ele>
        <time>2012-03-17T13:45:23Z</time>
      </trkpt>
      <trkpt lat="48.67844" lon="6.11449">
        <ele>329</ele>
        <time>2012-03-17T13:45:25Z</time>
      </trkpt>
      <trkpt lat="48.6785" lon="6.1145">
        <ele>327</ele>
        <time>2012-03-17T13:45:27Z</time>
      </trkpt>
      <trkpt lat="48.67855" lon="6.11448">
        <ele>327</ele>
        <time>2012-03-17T13:45:29Z</time>
      </trkpt>
      <trkpt lat="48.6786" lon="6.11447">
        <ele>327</ele>
        <time>2012-03-17T13:45:31Z</time>
      </trkpt>
      <trkpt lat="48.67865" lon="6.11444">
        <ele>328</ele>
        <time>2012-03-17T13:45:33Z</time>
      </trkpt>
      <trkpt lat="48.67869" lon="6.11441">
        <ele>328</ele>
        <time>2012-03-17T13:45:35Z</time>
      </trkpt>
      <trkpt lat="48.67871" lon="6.11438">
        <ele>331</ele>
        <time>2012-03-17T13:45:37Z</time>
      </trkpt>
      <trkpt lat="48.67872" lon="6.11434">
        <ele>329</ele>
        <time>2012-03-17T13:45:39Z</time>
      </trkpt>
      <trkpt lat="48.67873" lon="6.11431">
        <ele>328</ele>
        <time>2012-03-17T13:45:41Z</time>
      </trkpt>
      <trkpt lat="48.67878" lon="6.11426">
        <ele>330</ele>
        <time>2012-03-17T13:45:45Z</time>
      </trkpt>
      <trkpt lat="48.67879" lon="6.11421">
        <ele>330</ele>
        <time>2012-03-17T13:45:47Z</time>
      </trkpt>
      <trkpt lat="48.67881" lon="6.11414">
        <ele>330</ele>
        <time>2012-03-17T13:45:49Z</time>
      </trkpt>
      <trkpt lat="48.67881" lon="6.11409">
        <ele>332</ele>
        <time>2012-03-17T13:45:51Z</time>
      </trkpt>
      <trkpt lat="48.67884" lon="6.11401">
        <ele>334</ele>
        <time>2012-03-17T13:45:53Z</time>
      </trkpt>
      <trkpt lat="48.67884" lon="6.11393">
        <ele>332</ele>
        <time>2012-03-17T13:45:55Z</time>
      </trkpt>
      <trkpt lat="48.67883" lon="6.11386">
        <ele>332</ele>
        <time>2012-03-17T13:45:57Z</time>
      </trkpt>
      <trkpt lat="48.67883" lon="6.1138">
        <ele>333</ele>
        <time>2012-03-17T13:45:59Z</time>
      </trkpt>
      <trkpt lat="48.67884" lon="6.11372">
        <ele>334</ele>
        <time>2012-03-17T13:46:01Z</time>
      </trkpt>
      <trkpt lat="48.67884" lon="6.11366">
        <ele>334</ele>
        <time>2012-03-17T13:46:03Z</time>
      </trkpt>
      <trkpt lat="48.67884" lon="6.1136">
        <ele>334</ele>
        <time>2012-03-17T13:46:05Z</time>
      </trkpt>
      <trkpt lat="48.67884" lon="6.11355">
        <ele>334</ele>
        <time>2012-03-17T13:46:07Z</time>
      </trkpt>
      <trkpt lat="48.67883" lon="6.11348">
        <ele>334</ele>
        <time>2012-03-17T13:46:09Z</time>
      </trkpt>
      <trkpt lat="48.67883" lon="6.1134">
        <ele>332</ele>
        <time>2012-03-17T13:46:11Z</time>
      </trkpt>
      <trkpt lat="48.67882" lon="6.11333">
        <ele>332</ele>
        <time>2012-03-17T13:46:13Z</time>
      </trkpt>
      <trkpt lat="48.67881" lon="6.11326">
        <ele>332</ele>
        <time>2012-03-17T13:46:15Z</time>
      </trkpt>
      <trkpt lat="48.67881" lon="6.11319">
        <ele>332</ele>
        <time>2012-03-17T13:46:17Z</time>
      </trkpt>
      <trkpt lat="48.67881" lon="6.11311">
        <ele>331</ele>
        <time>2012-03-17T13:46:19Z</time>
      </trkpt>
      <trkpt lat="48.67881" lon="6.11303">
        <ele>331</ele>
        <time>2012-03-17T13:46:21Z</time>
      </trkpt>
      <trkpt lat="48.67881" lon="6.11297">
        <ele>331</ele>
        <time>2012-03-17T13:46:23Z</time>
      </trkpt>
      <trkpt lat="48.6788" lon="6.11291">
        <ele>331</ele>
        <time>2012-03-17T13:46:25Z</time>
      </trkpt>
      <trkpt lat="48.67879" lon="6.11285">
        <ele>331</ele>
        <time>2012-03-17T13:46:27Z</time>
      </trkpt>
      <trkpt lat="48.67878" lon="6.1128">
        <ele>332</ele>
        <time>2012-03-17T13:46:29Z</time>
      </trkpt>
      <trkpt lat="48.67878" lon="6.11273">
        <ele>332</ele>
        <time>2012-03-17T13:46:31Z</time>
      </trkpt>
      <trkpt lat="48.67878" lon="6.11266">
        <ele>331</ele>
        <time>2012-03-17T13:46:33Z</time>
      </trkpt>
      <trkpt lat="48.67877" lon="6.11261">
        <ele>333</ele>
        <time>2012-03-17T13:46:35Z</time>
      </trkpt>
      <trkpt lat="48.67876" lon="6.11254">
        <ele>333</ele>
        <time>2012-03-17T13:46:37Z</time>
      </trkpt>
      <trkpt lat="48.67875" lon="6.11247">
        <ele>333</ele>
        <time>2012-03-17T13:46:39Z</time>
      </trkpt>
      <trkpt lat="48.67875" lon="6.11241">
        <ele>334</ele>
        <time>2012-03-17T13:46:41Z</time>
      </trkpt>
      <trkpt lat="48.67873" lon="6.11236">
        <ele>336</ele>
        <time>2012-03-17T13:46:43Z</time>
      </trkpt>
      <trkpt lat="48.67871" lon="6.1123">
        <ele>336</ele>
        <time>2012-03-17T13:46:45Z</time>
      </trkpt>
      <trkpt lat="48.6787" lon="6.11223">
        <ele>337</ele>
        <time>2012-03-17T13:46:47Z</time>
      </trkpt>
      <trkpt lat="48.67869" lon="6.11215">
        <ele>334</ele>
        <time>2012-03-17T13:46:49Z</time>
      </trkpt>
      <trkpt lat="48.67869" lon="6.11207">
        <ele>332</ele>
        <time>2012-03-17T13:46:51Z</time>
      </trkpt>
      <trkpt lat="48.67868" lon="6.11201">
        <ele>333</ele>
        <time>2012-03-17T13:46:53Z</time>
      </trkpt>
      <trkpt lat="48.67867" lon="6.11197">
        <ele>334</ele>
        <time>2012-03-17T13:46:55Z</time>
      </trkpt>
      <trkpt lat="48.67866" lon="6.11191">
        <ele>336</ele>
        <time>2012-03-17T13:46:57Z</time>
      </trkpt>
      <trkpt lat="48.67865" lon="6.11186">
        <ele>337</ele>
        <time>2012-03-17T13:46:59Z</time>
      </trkpt>
      <trkpt lat="48.67865" lon="6.11178">
        <ele>337</ele>
        <time>2012-03-17T13:47:01Z</time>
      </trkpt>
      <trkpt lat="48.67865" lon="6.11172">
        <ele>335</ele>
        <time>2012-03-17T13:47:03Z</time>
      </trkpt>
      <trkpt lat="48.67864" lon="6.11166">
        <ele>335</ele>
        <time>2012-03-17T13:47:05Z</time>
      </trkpt>
      <trkpt lat="48.67863" lon="6.1116">
        <ele>335</ele>
        <time>2012-03-17T13:47:07Z</time>
      </trkpt>
      <trkpt lat="48.67862" lon="6.11153">
        <ele>336</ele>
        <time>2012-03-17T13:47:09Z</time>
      </trkpt>
      <trkpt lat="48.67862" lon="6.11145">
        <ele>334</ele>
        <time>2012-03-17T13:47:11Z</time>
      </trkpt>
      <trkpt lat="48.67861" lon="6.11138">
        <ele>335</ele>
        <time>2012-03-17T13:47:13Z</time>
      </trkpt>
      <trkpt lat="48.67862" lon="6.11132">
        <ele>336</ele>
        <time>2012-03-17T13:47:15Z</time>
      </trkpt>
      <trkpt lat="48.67861" lon="6.11126">
        <ele>336</ele>
        <time>2012-03-17T13:47:17Z</time>
      </trkpt>
      <trkpt lat="48.67861" lon="6.1112">
        <ele>338</ele>
        <time>2012-03-17T13:47:19Z</time>
      </trkpt>
      <trkpt lat="48.6786" lon="6.11115">
        <ele>337</ele>
        <time>2012-03-17T13:47:21Z</time>
      </trkpt>
      <trkpt lat="48.67859" lon="6.1111">
        <ele>340</ele>
        <time>2012-03-17T13:47:23Z</time>
      </trkpt>
      <trkpt lat="48.67859" lon="6.11104">
        <ele>342</ele>
        <time>2012-03-17T13:47:25Z</time>
      </trkpt>
      <trkpt lat="48.67858" lon="6.11097">
        <ele>341</ele>
        <time>2012-03-17T13:47:27Z</time>
      </trkpt>
      <trkpt lat="48.67857" lon="6.11092">
        <ele>343</ele>
        <time>2012-03-17T13:47:29Z</time>
      </trkpt>
      <trkpt lat="48.67856" lon="6.11087">
        <ele>345</ele>
        <time>2012-03-17T13:47:31Z</time>
      </trkpt>
      <trkpt lat="48.67856" lon="6.1108">
        <ele>347</ele>
        <time>2012-03-17T13:47:33Z</time>
      </trkpt>
      <trkpt lat="48.67856" lon="6.11074">
        <ele>348</ele>
        <time>2012-03-17T13:47:35Z</time>
      </trkpt>
      <trkpt lat="48.67854" lon="6.1107">
        <ele>349</ele>
        <time>2012-03-17T13:47:37Z</time>
      </trkpt>
      <trkpt lat="48.67853" lon="6.11064">
        <ele>349</ele>
        <time>2012-03-17T13:47:39Z</time>
      </trkpt>
      <trkpt lat="48.67851" lon="6.11059">
        <ele>349</ele>
        <time>2012-03-17T13:47:41Z</time>
      </trkpt>
      <trkpt lat="48.67851" lon="6.11052">
        <ele>347</ele>
        <time>2012-03-17T13:47:43Z</time>
      </trkpt>
      <trkpt lat="48.67849" lon="6.11043">
        <ele>347</ele>
        <time>2012-03-17T13:47:45Z</time>
      </trkpt>
      <trkpt lat="48.67849" lon="6.11033">
        <ele>346</ele>
        <time>2012-03-17T13:47:47Z</time>
      </trkpt>
      <trkpt lat="48.67847" lon="6.11027">
        <ele>348</ele>
        <time>2012-03-17T13:47:49Z</time>
      </trkpt>
      <trkpt lat="48.67847" lon="6.11021">
        <ele>349</ele>
        <time>2012-03-17T13:47:51Z</time>
      </trkpt>
      <trkpt lat="48.67847" lon="6.11015">
        <ele>350</ele>
        <time>2012-03-17T13:47:53Z</time>
      </trkpt>
      <trkpt lat="48.67846" lon="6.11007">
        <ele>348</ele>
        <time>2012-03-17T13:47:55Z</time>
      </trkpt>
      <trkpt lat="48.67844" lon="6.11001">
        <ele>348</ele>
        <time>2012-03-17T13:47:57Z</time>
      </trkpt>
      <trkpt lat="48.67844" lon="6.10994">
        <ele>349</ele>
        <time>2012-03-17T13:47:59Z</time>
      </trkpt>
      <trkpt lat="48.67844" lon="6.10987">
        <ele>349</ele>
        <time>2012-03-17T13:48:01Z</time>
      </trkpt>
      <trkpt lat="48.67844" lon="6.10979">
        <ele>351</ele>
        <time>2012-03-17T13:48:03Z</time>
      </trkpt>
      <trkpt lat="48.67842" lon="6.10972">
        <ele>351</ele>
        <time>2012-03-17T13:48:05Z</time>
      </trkpt>
      <trkpt lat="48.67841" lon="6.10963">
        <ele>350</ele>
        <time>2012-03-17T13:48:07Z</time>
      </trkpt>
      <trkpt lat="48.6784" lon="6.10954">
        <ele>349</ele>
        <time>2012-03-17T13:48:09Z</time>
      </trkpt>
      <trkpt lat="48.67837" lon="6.10945">
        <ele>346</ele>
        <time>2012-03-17T13:48:11Z</time>
      </trkpt>
      <trkpt lat="48.67835" lon="6.10936">
        <ele>347</ele>
        <time>2012-03-17T13:48:13Z</time>
      </trkpt>
      <trkpt lat="48.67833" lon="6.10929">
        <ele>347</ele>
        <time>2012-03-17T13:48:15Z</time>
      </trkpt>
      <trkpt lat="48.6783" lon="6.10921">
        <ele>348</ele>
        <time>2012-03-17T13:48:17Z</time>
      </trkpt>
      <trkpt lat="48.67828" lon="6.10911">
        <ele>348</ele>
        <time>2012-03-17T13:48:19Z</time>
      </trkpt>
      <trkpt lat="48.67827" lon="6.10902">
        <ele>349</ele>
        <time>2012-03-17T13:48:21Z</time>
      </trkpt>
      <trkpt lat="48.67825" lon="6.10892">
        <ele>348</ele>
        <time>2012-03-17T13:48:23Z</time>
      </trkpt>
      <trkpt lat="48.67824" lon="6.10882">
        <ele>348</ele>
        <time>2012-03-17T13:48:25Z</time>
      </trkpt>
      <trkpt lat="48.67823" lon="6.10871">
        <ele>348</ele>
        <time>2012-03-17T13:48:27Z</time>
      </trkpt>
      <trkpt lat="48.67821" lon="6.10861">
        <ele>347</ele>
        <time>2012-03-17T13:48:29Z</time>
      </trkpt>
      <trkpt lat="48.6782" lon="6.1085">
        <ele>347</ele>
        <time>2012-03-17T13:48:31Z</time>
      </trkpt>
      <trkpt lat="48.67819" lon="6.10838">
        <ele>347</ele>
        <time>2012-03-17T13:48:33Z</time>
      </trkpt>
      <trkpt lat="48.67818" lon="6.10826">
        <ele>348</ele>
        <time>2012-03-17T13:48:35Z</time>
      </trkpt>
      <trkpt lat="48.67817" lon="6.10814">
        <ele>347</ele>
        <time>2012-03-17T13:48:37Z</time>
      </trkpt>
      <trkpt lat="48.67817" lon="6.108">
        <ele>344</ele>
        <time>2012-03-17T13:48:39Z</time>
      </trkpt>
      <trkpt lat="48.67816" lon="6.10787">
        <ele>342</ele>
        <time>2012-03-17T13:48:41Z</time>
      </trkpt>
      <trkpt lat="48.67815" lon="6.10775">
        <ele>341</ele>
        <time>2012-03-17T13:48:43Z</time>
      </trkpt>
      <trkpt lat="48.67814" lon="6.10765">
        <ele>342</ele>
        <time>2012-03-17T13:48:45Z</time>
      </trkpt>
      <trkpt lat="48.67813" lon="6.10753">
        <ele>342</ele>
        <time>2012-03-17T13:48:47Z</time>
      </trkpt>
      <trkpt lat="48.67811" lon="6.10743">
        <ele>341</ele>
        <time>2012-03-17T13:48:49Z</time>
      </trkpt>
      <trkpt lat="48.6781" lon="6.10729">
        <ele>338</ele>
        <time>2012-03-17T13:48:51Z</time>
      </trkpt>
      <trkpt lat="48.67807" lon="6.10717">
        <ele>337</ele>
        <time>2012-03-17T13:48:53Z</time>
      </trkpt>
      <trkpt lat="48.67806" lon="6.10707">
        <ele>337</ele>
        <time>2012-03-17T13:48:55Z</time>
      </trkpt>
      <trkpt lat="48.67804" lon="6.10697">
        <ele>335</ele>
        <time>2012-03-17T13:48:57Z</time>
      </trkpt>
      <trkpt lat="48.67802" lon="6.10684">
        <ele>336</ele>
        <time>2012-03-17T13:48:59Z</time>
      </trkpt>
      <trkpt lat="48.67801" lon="6.10672">
        <ele>337</ele>
        <time>2012-03-17T13:49:01Z</time>
      </trkpt>
      <trkpt lat="48.678" lon="6.10659">
        <ele>336</ele>
        <time>2012-03-17T13:49:03Z</time>
      </trkpt>
      <trkpt lat="48.67798" lon="6.10648">
        <ele>337</ele>
        <time>2012-03-17T13:49:05Z</time>
      </trkpt>
      <trkpt lat="48.67796" lon="6.10635">
        <ele>337</ele>
        <time>2012-03-17T13:49:07Z</time>
      </trkpt>
      <trkpt lat="48.67794" lon="6.10621">
        <ele>337</ele>
        <time>2012-03-17T13:49:09Z</time>
      </trkpt>
      <trkpt lat="48.67792" lon="6.10604">
        <ele>335</ele>
        <time>2012-03-17T13:49:11Z</time>
      </trkpt>
      <trkpt lat="48.67791" lon="6.10587">
        <ele>334</ele>
        <time>2012-03-17T13:49:13Z</time>
      </trkpt>
      <trkpt lat="48.67789" lon="6.10573">
        <ele>335</ele>
        <time>2012-03-17T13:49:15Z</time>
      </trkpt>
      <trkpt lat="48.67787" lon="6.10557">
        <ele>333</ele>
        <time>2012-03-17T13:49:17Z</time>
      </trkpt>
      <trkpt lat="48.67786" lon="6.10541">
        <ele>333</ele>
        <time>2012-03-17T13:49:19Z</time>
      </trkpt>
      <trkpt lat="48.67784" lon="6.10526">
        <ele>334</ele>
        <time>2012-03-17T13:49:21Z</time>
      </trkpt>
      <trkpt lat="48.67782" lon="6.10512">
        <ele>334</ele>
        <time>2012-03-17T13:49:23Z</time>
      </trkpt>
      <trkpt lat="48.6778" lon="6.10494">
        <ele>332</ele>
        <time>2012-03-17T13:49:25Z</time>
      </trkpt>
      <trkpt lat="48.67778" lon="6.1048">
        <ele>334</ele>
        <time>2012-03-17T13:49:27Z</time>
      </trkpt>
      <trkpt lat="48.67776" lon="6.10465">
        <ele>333</ele>
        <time>2012-03-17T13:49:29Z</time>
      </trkpt>
      <trkpt lat="48.67774" lon="6.10449">
        <ele>333</ele>
        <time>2012-03-17T13:49:31Z</time>
      </trkpt>
      <trkpt lat="48.67772" lon="6.10433">
        <ele>332</ele>
        <time>2012-03-17T13:49:33Z</time>
      </trkpt>
      <trkpt lat="48.6777" lon="6.10416">
        <ele>330</ele>
        <time>2012-03-17T13:49:35Z</time>
      </trkpt>
      <trkpt lat="48.67768" lon="6.104">
        <ele>330</ele>
        <time>2012-03-17T13:49:37Z</time>
      </trkpt>
      <trkpt lat="48.67765" lon="6.10384">
        <ele>330</ele>
        <time>2012-03-17T13:49:39Z</time>
      </trkpt>
      <trkpt lat="48.67764" lon="6.10366">
        <ele>331</ele>
        <time>2012-03-17T13:49:41Z</time>
      </trkpt>
      <trkpt lat="48.67761" lon="6.10346">
        <ele>331</ele>
        <time>2012-03-17T13:49:43Z</time>
      </trkpt>
      <trkpt lat="48.67759" lon="6.10326">
        <ele>331</ele>
        <time>2012-03-17T13:49:45Z</time>
      </trkpt>
      <trkpt lat="48.67759" lon="6.10307">
        <ele>334</ele>
        <time>2012-03-17T13:49:47Z</time>
      </trkpt>
      <trkpt lat="48.67758" lon="6.1029">
        <ele>333</ele>
        <time>2012-03-17T13:49:49Z</time>
      </trkpt>
      <trkpt lat="48.67756" lon="6.10278">
        <ele>333</ele>
        <time>2012-03-17T13:49:51Z</time>
      </trkpt>
      <trkpt lat="48.67754" lon="6.1027">
        <ele>334</ele>
        <time>2012-03-17T13:49:53Z</time>
      </trkpt>
      <trkpt lat="48.67751" lon="6.10261">
        <ele>334</ele>
        <time>2012-03-17T13:49:55Z</time>
      </trkpt>
      <trkpt lat="48.67748" lon="6.10253">
        <ele>334</ele>
        <time>2012-03-17T13:49:57Z</time>
      </trkpt>
      <trkpt lat="48.67746" lon="6.10243">
        <ele>334</ele>
        <time>2012-03-17T13:49:59Z</time>
      </trkpt>
      <trkpt lat="48.67743" lon="6.10233">
        <ele>335</ele>
        <time>2012-03-17T13:50:01Z</time>
      </trkpt>
      <trkpt lat="48.67741" lon="6.10221">
        <ele>336</ele>
        <time>2012-03-17T13:50:03Z</time>
      </trkpt>
      <trkpt lat="48.6774" lon="6.10211">
        <ele>337</ele>
        <time>2012-03-17T13:50:05Z</time>
      </trkpt>
      <trkpt lat="48.67739" lon="6.102">
        <ele>338</ele>
        <time>2012-03-17T13:50:07Z</time>
      </trkpt>
      <trkpt lat="48.67737" lon="6.10188">
        <ele>338</ele>
        <time>2012-03-17T13:50:09Z</time>
      </trkpt>
      <trkpt lat="48.67735" lon="6.10178">
        <ele>338</ele>
        <time>2012-03-17T13:50:11Z</time>
      </trkpt>
      <trkpt lat="48.67733" lon="6.10168">
        <ele>339</ele>
        <time>2012-03-17T13:50:13Z</time>
      </trkpt>
      <trkpt lat="48.67731" lon="6.10158">
        <ele>340</ele>
        <time>2012-03-17T13:50:15Z</time>
      </trkpt>
      <trkpt lat="48.67729" lon="6.10149">
        <ele>341</ele>
        <time>2012-03-17T13:50:17Z</time>
      </trkpt>
      <trkpt lat="48.67727" lon="6.10141">
        <ele>342</ele>
        <time>2012-03-17T13:50:19Z</time>
      </trkpt>
      <trkpt lat="48.67725" lon="6.10131">
        <ele>342</ele>
        <time>2012-03-17T13:50:21Z</time>
      </trkpt>
      <trkpt lat="48.67724" lon="6.10122">
        <ele>343</ele>
        <time>2012-03-17T13:50:23Z</time>
      </trkpt>
      <trkpt lat="48.67722" lon="6.1011">
        <ele>344</ele>
        <time>2012-03-17T13:50:25Z</time>
      </trkpt>
      <trkpt lat="48.67719" lon="6.10099">
        <ele>343</ele>
        <time>2012-03-17T13:50:27Z</time>
      </trkpt>
      <trkpt lat="48.67716" lon="6.10086">
        <ele>342</ele>
        <time>2012-03-17T13:50:29Z</time>
      </trkpt>
      <trkpt lat="48.67713" lon="6.10075">
        <ele>342</ele>
        <time>2012-03-17T13:50:31Z</time>
      </trkpt>
      <trkpt lat="48.67712" lon="6.10061">
        <ele>341</ele>
        <time>2012-03-17T13:50:33Z</time>
      </trkpt>
      <trkpt lat="48.67711" lon="6.10048">
        <ele>340</ele>
        <time>2012-03-17T13:50:35Z</time>
      </trkpt>
      <trkpt lat="48.67708" lon="6.10039">
        <ele>340</ele>
        <time>2012-03-17T13:50:37Z</time>
      </trkpt>
      <trkpt lat="48.67707" lon="6.10028">
        <ele>340</ele>
        <time>2012-03-17T13:50:39Z</time>
      </trkpt>
      <trkpt lat="48.67707" lon="6.10016">
        <ele>341</ele>
        <time>2012-03-17T13:50:41Z</time>
      </trkpt>
      <trkpt lat="48.67706" lon="6.10006">
        <ele>343</ele>
        <time>2012-03-17T13:50:43Z</time>
      </trkpt>
      <trkpt lat="48.67704" lon="6.09994">
        <ele>342</ele>
        <time>2012-03-17T13:50:45Z</time>
      </trkpt>
      <trkpt lat="48.67703" lon="6.09983">
        <ele>345</ele>
        <time>2012-03-17T13:50:47Z</time>
      </trkpt>
      <trkpt lat="48.67699" lon="6.09973">
        <ele>345</ele>
        <time>2012-03-17T13:50:49Z</time>
      </trkpt>
      <trkpt lat="48.67697" lon="6.09963">
        <ele>347</ele>
        <time>2012-03-17T13:50:51Z</time>
      </trkpt>
      <trkpt lat="48.67696" lon="6.0995">
        <ele>349</ele>
        <time>2012-03-17T13:50:53Z</time>
      </trkpt>
      <trkpt lat="48.67698" lon="6.09937">
        <ele>348</ele>
        <time>2012-03-17T13:50:55Z</time>
      </trkpt>
      <trkpt lat="48.67697" lon="6.09924">
        <ele>347</ele>
        <time>2012-03-17T13:50:57Z</time>
      </trkpt>
      <trkpt lat="48.67696" lon="6.09913">
        <ele>347</ele>
        <time>2012-03-17T13:50:59Z</time>
      </trkpt>
      <trkpt lat="48.67694" lon="6.09903">
        <ele>347</ele>
        <time>2012-03-17T13:51:01Z</time>
      </trkpt>
      <trkpt lat="48.67693" lon="6.09893">
        <ele>346</ele>
        <time>2012-03-17T13:51:03Z</time>
      </trkpt>
      <trkpt lat="48.6769" lon="6.09885">
        <ele>346</ele>
        <time>2012-03-17T13:51:05Z</time>
      </trkpt>
      <trkpt lat="48.67689" lon="6.09875">
        <ele>348</ele>
        <time>2012-03-17T13:51:07Z</time>
      </trkpt>
      <trkpt lat="48.67685" lon="6.09868">
        <ele>350</ele>
        <time>2012-03-17T13:51:09Z</time>
      </trkpt>
      <trkpt lat="48.67682" lon="6.09859">
        <ele>350</ele>
        <time>2012-03-17T13:51:11Z</time>
      </trkpt>
      <trkpt lat="48.67681" lon="6.0985">
        <ele>349</ele>
        <time>2012-03-17T13:51:13Z</time>
      </trkpt>
      <trkpt lat="48.6768" lon="6.0984">
        <ele>350</ele>
        <time>2012-03-17T13:51:15Z</time>
      </trkpt>
      <trkpt lat="48.6768" lon="6.09832">
        <ele>352</ele>
        <time>2012-03-17T13:51:17Z</time>
      </trkpt>
      <trkpt lat="48.67679" lon="6.09825">
        <ele>353</ele>
        <time>2012-03-17T13:51:19Z</time>
      </trkpt>
      <trkpt lat="48.67679" lon="6.09816">
        <ele>353</ele>
        <time>2012-03-17T13:51:21Z</time>
      </trkpt>
      <trkpt lat="48.67679" lon="6.09808">
        <ele>351</ele>
        <time>2012-03-17T13:51:23Z</time>
      </trkpt>
      <trkpt lat="48.67679" lon="6.09798">
        <ele>348</ele>
        <time>2012-03-17T13:51:25Z</time>
      </trkpt>
      <trkpt lat="48.6768" lon="6.09786">
        <ele>346</ele>
        <time>2012-03-17T13:51:27Z</time>
      </trkpt>
      <trkpt lat="48.6768" lon="6.09776">
        <ele>345</ele>
        <time>2012-03-17T13:51:29Z</time>
      </trkpt>
      <trkpt lat="48.6768" lon="6.09768">
        <ele>347</ele>
        <time>2012-03-17T13:51:31Z</time>
      </trkpt>
      <trkpt lat="48.6768" lon="6.09762">
        <ele>347</ele>
        <time>2012-03-17T13:51:33Z</time>
      </trkpt>
      <trkpt lat="48.6768" lon="6.09752">
        <ele>349</ele>
        <time>2012-03-17T13:51:35Z</time>
      </trkpt>
      <trkpt lat="48.67682" lon="6.09738">
        <ele>349</ele>
        <time>2012-03-17T13:51:37Z</time>
      </trkpt>
      <trkpt lat="48.67684" lon="6.09726">
        <ele>349</ele>
        <time>2012-03-17T13:51:39Z</time>
      </trkpt>
      <trkpt lat="48.67686" lon="6.09713">
        <ele>349</ele>
        <time>2012-03-17T13:51:41Z</time>
      </trkpt>
      <trkpt lat="48.67689" lon="6.09701">
        <ele>349</ele>
        <time>2012-03-17T13:51:43Z</time>
      </trkpt>
      <trkpt lat="48.6769" lon="6.0969">
        <ele>347</ele>
        <time>2012-03-17T13:51:45Z</time>
      </trkpt>
      <trkpt lat="48.67692" lon="6.09679">
        <ele>347</ele>
        <time>2012-03-17T13:51:47Z</time>
      </trkpt>
      <trkpt lat="48.67693" lon="6.09669">
        <ele>348</ele>
        <time>2012-03-17T13:51:49Z</time>
      </trkpt>
      <trkpt lat="48.67695" lon="6.09658">
        <ele>347</ele>
        <time>2012-03-17T13:51:51Z</time>
      </trkpt>
      <trkpt lat="48.67697" lon="6.09647">
        <ele>347</ele>
        <time>2012-03-17T13:51:53Z</time>
      </trkpt>
      <trkpt lat="48.67698" lon="6.09637">
        <ele>348</ele>
        <time>2012-03-17T13:51:55Z</time>
      </trkpt>
      <trkpt lat="48.677" lon="6.09627">
        <ele>347</ele>
        <time>2012-03-17T13:51:57Z</time>
      </trkpt>
      <trkpt lat="48.67701" lon="6.09618">
        <ele>348</ele>
        <time>2012-03-17T13:51:59Z</time>
      </trkpt>
      <trkpt lat="48.67702" lon="6.09608">
        <ele>348</ele>
        <time>2012-03-17T13:52:01Z</time>
      </trkpt>
      <trkpt lat="48.67704" lon="6.09597">
        <ele>347</ele>
        <time>2012-03-17T13:52:03Z</time>
      </trkpt>
      <trkpt lat="48.67705" lon="6.09586">
        <ele>347</ele>
        <time>2012-03-17T13:52:05Z</time>
      </trkpt>
      <trkpt lat="48.67707" lon="6.09575">
        <ele>346</ele>
        <time>2012-03-17T13:52:07Z</time>
      </trkpt>
      <trkpt lat="48.67708" lon="6.09567">
        <ele>348</ele>
        <time>2012-03-17T13:52:09Z</time>
      </trkpt>
      <trkpt lat="48.67709" lon="6.09558">
        <ele>348</ele>
        <time>2012-03-17T13:52:11Z</time>
      </trkpt>
      <trkpt lat="48.67709" lon="6.09549">
        <ele>349</ele>
        <time>2012-03-17T13:52:13Z</time>
      </trkpt>
      <trkpt lat="48.6771" lon="6.0954">
        <ele>349</ele>
        <time>2012-03-17T13:52:15Z</time>
      </trkpt>
      <trkpt lat="48.67711" lon="6.09532">
        <ele>350</ele>
        <time>2012-03-17T13:52:17Z</time>
      </trkpt>
      <trkpt lat="48.67712" lon="6.09523">
        <ele>350</ele>
        <time>2012-03-17T13:52:19Z</time>
      </trkpt>
      <trkpt lat="48.67713" lon="6.09512">
        <ele>350</ele>
        <time>2012-03-17T13:52:21Z</time>
      </trkpt>
      <trkpt lat="48.67714" lon="6.09502">
        <ele>350</ele>
        <time>2012-03-17T13:52:23Z</time>
      </trkpt>
      <trkpt lat="48.67716" lon="6.09491">
        <ele>350</ele>
        <time>2012-03-17T13:52:25Z</time>
      </trkpt>
      <trkpt lat="48.67717" lon="6.09481">
        <ele>349</ele>
        <time>2012-03-17T13:52:27Z</time>
      </trkpt>
      <trkpt lat="48.67718" lon="6.0947">
        <ele>350</ele>
        <time>2012-03-17T13:52:29Z</time>
      </trkpt>
      <trkpt lat="48.67719" lon="6.09459">
        <ele>349</ele>
        <time>2012-03-17T13:52:31Z</time>
      </trkpt>
      <trkpt lat="48.6772" lon="6.09449">
        <ele>349</ele>
        <time>2012-03-17T13:52:33Z</time>
      </trkpt>
      <trkpt lat="48.67721" lon="6.09439">
        <ele>350</ele>
        <time>2012-03-17T13:52:35Z</time>
      </trkpt>
      <trkpt lat="48.67722" lon="6.09429">
        <ele>350</ele>
        <time>2012-03-17T13:52:37Z</time>
      </trkpt>
      <trkpt lat="48.67723" lon="6.09418">
        <ele>350</ele>
        <time>2012-03-17T13:52:39Z</time>
      </trkpt>
      <trkpt lat="48.67725" lon="6.09406">
        <ele>350</ele>
        <time>2012-03-17T13:52:41Z</time>
      </trkpt>
      <trkpt lat="48.67726" lon="6.09394">
        <ele>350</ele>
        <time>2012-03-17T13:52:43Z</time>
      </trkpt>
      <trkpt lat="48.67727" lon="6.09382">
        <ele>350</ele>
        <time>2012-03-17T13:52:45Z</time>
      </trkpt>
      <trkpt lat="48.67728" lon="6.0937">
        <ele>351</ele>
        <time>2012-03-17T13:52:47Z</time>
      </trkpt>
      <trkpt lat="48.67729" lon="6.09357">
        <ele>350</ele>
        <time>2012-03-17T13:52:49Z</time>
      </trkpt>
      <trkpt lat="48.6773" lon="6.09343">
        <ele>349</ele>
        <time>2012-03-17T13:52:51Z</time>
      </trkpt>
      <trkpt lat="48.67732" lon="6.09329">
        <ele>348</ele>
        <time>2012-03-17T13:52:53Z</time>
      </trkpt>
      <trkpt lat="48.67733" lon="6.09316">
        <ele>347</ele>
        <time>2012-03-17T13:52:55Z</time>
      </trkpt>
      <trkpt lat="48.67734" lon="6.09306">
        <ele>348</ele>
        <time>2012-03-17T13:52:57Z</time>
      </trkpt>
      <trkpt lat="48.67735" lon="6.09296">
        <ele>350</ele>
        <time>2012-03-17T13:52:59Z</time>
      </trkpt>
      <trkpt lat="48.67735" lon="6.09286">
        <ele>350</ele>
        <time>2012-03-17T13:53:01Z</time>
      </trkpt>
      <trkpt lat="48.67736" lon="6.09274">
        <ele>349</ele>
        <time>2012-03-17T13:53:03Z</time>
      </trkpt>
      <trkpt lat="48.67737" lon="6.0926">
        <ele>348</ele>
        <time>2012-03-17T13:53:05Z</time>
      </trkpt>
      <trkpt lat="48.67738" lon="6.09248">
        <ele>348</ele>
        <time>2012-03-17T13:53:07Z</time>
      </trkpt>
      <trkpt lat="48.67739" lon="6.09237">
        <ele>349</ele>
        <time>2012-03-17T13:53:09Z</time>
      </trkpt>
      <trkpt lat="48.6774" lon="6.09225">
        <ele>349</ele>
        <time>2012-03-17T13:53:11Z</time>
      </trkpt>
      <trkpt lat="48.6774" lon="6.09214">
        <ele>349</ele>
        <time>2012-03-17T13:53:13Z</time>
      </trkpt>
      <trkpt lat="48.67741" lon="6.09201">
        <ele>348</ele>
        <time>2012-03-17T13:53:15Z</time>
      </trkpt>
      <trkpt lat="48.67743" lon="6.09188">
        <ele>348</ele>
        <time>2012-03-17T13:53:17Z</time>
      </trkpt>
      <trkpt lat="48.67744" lon="6.09175">
        <ele>348</ele>
        <time>2012-03-17T13:53:19Z</time>
      </trkpt>
      <trkpt lat="48.67744" lon="6.09163">
        <ele>348</ele>
        <time>2012-03-17T13:53:21Z</time>
      </trkpt>
      <trkpt lat="48.67745" lon="6.0915">
        <ele>348</ele>
        <time>2012-03-17T13:53:23Z</time>
      </trkpt>
      <trkpt lat="48.67745" lon="6.09137">
        <ele>348</ele>
        <time>2012-03-17T13:53:25Z</time>
      </trkpt>
      <trkpt lat="48.67746" lon="6.09124">
        <ele>348</ele>
        <time>2012-03-17T13:53:27Z</time>
      </trkpt>
      <trkpt lat="48.67747" lon="6.0911">
        <ele>348</ele>
        <time>2012-03-17T13:53:29Z</time>
      </trkpt>
      <trkpt lat="48.67749" lon="6.09091">
        <ele>344</ele>
        <time>2012-03-17T13:53:31Z</time>
      </trkpt>
      <trkpt lat="48.67751" lon="6.09071">
        <ele>341</ele>
        <time>2012-03-17T13:53:33Z</time>
      </trkpt>
      <trkpt lat="48.67753" lon="6.09053">
        <ele>339</ele>
        <time>2012-03-17T13:53:35Z</time>
      </trkpt>
      <trkpt lat="48.67754" lon="6.09036">
        <ele>339</ele>
        <time>2012-03-17T13:53:37Z</time>
      </trkpt>
      <trkpt lat="48.67756" lon="6.09019">
        <ele>338</ele>
        <time>2012-03-17T13:53:39Z</time>
      </trkpt>
      <trkpt lat="48.67756" lon="6.09005">
        <ele>339</ele>
        <time>2012-03-17T13:53:41Z</time>
      </trkpt>
      <trkpt lat="48.67753" lon="6.08993">
        <ele>340</ele>
        <time>2012-03-17T13:53:43Z</time>
      </trkpt>
      <trkpt lat="48.67748" lon="6.08983">
        <ele>341</ele>
        <time>2012-03-17T13:53:45Z</time>
      </trkpt>
      <trkpt lat="48.67741" lon="6.08975">
        <ele>341</ele>
        <time>2012-03-17T13:53:47Z</time>
      </trkpt>
      <trkpt lat="48.67734" lon="6.08968">
        <ele>344</ele>
        <time>2012-03-17T13:53:49Z</time>
      </trkpt>
      <trkpt lat="48.67726" lon="6.0896">
        <ele>343</ele>
        <time>2012-03-17T13:53:51Z</time>
      </trkpt>
      <trkpt lat="48.67717" lon="6.08953">
        <ele>342</ele>
        <time>2012-03-17T13:53:53Z</time>
      </trkpt>
      <trkpt lat="48.6771" lon="6.08946">
        <ele>342</ele>
        <time>2012-03-17T13:53:55Z</time>
      </trkpt>
      <trkpt lat="48.67703" lon="6.08938">
        <ele>340</ele>
        <time>2012-03-17T13:53:57Z</time>
      </trkpt>
      <trkpt lat="48.67697" lon="6.08931">
        <ele>340</ele>
        <time>2012-03-17T13:53:59Z</time>
      </trkpt>
      <trkpt lat="48.67691" lon="6.08925">
        <ele>340</ele>
        <time>2012-03-17T13:54:01Z</time>
      </trkpt>
      <trkpt lat="48.67685" lon="6.08918">
        <ele>340</ele>
        <time>2012-03-17T13:54:03Z</time>
      </trkpt>
      <trkpt lat="48.67679" lon="6.08911">
        <ele>340</ele>
        <time>2012-03-17T13:54:05Z</time>
      </trkpt>
      <trkpt lat="48.67673" lon="6.08904">
        <ele>342</ele>
        <time>2012-03-17T13:54:07Z</time>
      </trkpt>
      <trkpt lat="48.67666" lon="6.08897">
        <ele>343</ele>
        <time>2012-03-17T13:54:09Z</time>
      </trkpt>
      <trkpt lat="48.67658" lon="6.08889">
        <ele>343</ele>
        <time>2012-03-17T13:54:11Z</time>
      </trkpt>
      <trkpt lat="48.67648" lon="6.08882">
        <ele>342</ele>
        <time>2012-03-17T13:54:13Z</time>
      </trkpt>
      <trkpt lat="48.67637" lon="6.08874">
        <ele>342</ele>
        <time>2012-03-17T13:54:15Z</time>
      </trkpt>
      <trkpt lat="48.67623" lon="6.08869">
        <ele>343</ele>
        <time>2012-03-17T13:54:17Z</time>
      </trkpt>
      <trkpt lat="48.6761" lon="6.08867">
        <ele>342</ele>
        <time>2012-03-17T13:54:19Z</time>
      </trkpt>
      <trkpt lat="48.67594" lon="6.08866">
        <ele>341</ele>
        <time>2012-03-17T13:54:21Z</time>
      </trkpt>
      <trkpt lat="48.67576" lon="6.08866">
        <ele>341</ele>
        <time>2012-03-17T13:54:23Z</time>
      </trkpt>
      <trkpt lat="48.67556" lon="6.08864">
        <ele>338</ele>
        <time>2012-03-17T13:54:25Z</time>
      </trkpt>
      <trkpt lat="48.67537" lon="6.08859">
        <ele>338</ele>
        <time>2012-03-17T13:54:27Z</time>
      </trkpt>
      <trkpt lat="48.67518" lon="6.08853">
        <ele>337</ele>
        <time>2012-03-17T13:54:29Z</time>
      </trkpt>
      <trkpt lat="48.67499" lon="6.08847">
        <ele>338</ele>
        <time>2012-03-17T13:54:31Z</time>
      </trkpt>
      <trkpt lat="48.67481" lon="6.08841">
        <ele>335</ele>
        <time>2012-03-17T13:54:33Z</time>
      </trkpt>
      <trkpt lat="48.67461" lon="6.08837">
        <ele>334</ele>
        <time>2012-03-17T13:54:35Z</time>
      </trkpt>
      <trkpt lat="48.6744" lon="6.08837">
        <ele>330</ele>
        <time>2012-03-17T13:54:37Z</time>
      </trkpt>
      <trkpt lat="48.67419" lon="6.0884">
        <ele>326</ele>
        <time>2012-03-17T13:54:39Z</time>
      </trkpt>
      <trkpt lat="48.674" lon="6.08846">
        <ele>322</ele>
        <time>2012-03-17T13:54:41Z</time>
      </trkpt>
      <trkpt lat="48.67387" lon="6.08851">
        <ele>321</ele>
        <time>2012-03-17T13:54:43Z</time>
      </trkpt>
      <trkpt lat="48.67373" lon="6.08849">
        <ele>319</ele>
        <time>2012-03-17T13:54:45Z</time>
      </trkpt>
      <trkpt lat="48.6736" lon="6.08834">
        <ele>320</ele>
        <time>2012-03-17T13:54:47Z</time>
      </trkpt>
      <trkpt lat="48.67352" lon="6.08812">
        <ele>323</ele>
        <time>2012-03-17T13:54:49Z</time>
      </trkpt>
      <trkpt lat="48.67351" lon="6.08789">
        <ele>323</ele>
        <time>2012-03-17T13:54:51Z</time>
      </trkpt>
      <trkpt lat="48.67351" lon="6.08769">
        <ele>323</ele>
        <time>2012-03-17T13:54:53Z</time>
      </trkpt>
      <trkpt lat="48.67352" lon="6.08751">
        <ele>326</ele>
        <time>2012-03-17T13:54:55Z</time>
      </trkpt>
      <trkpt lat="48.67352" lon="6.08735">
        <ele>325</ele>
        <time>2012-03-17T13:54:57Z</time>
      </trkpt>
      <trkpt lat="48.67351" lon="6.08722">
        <ele>326</ele>
        <time>2012-03-17T13:54:59Z</time>
      </trkpt>
      <trkpt lat="48.67348" lon="6.08714">
        <ele>325</ele>
        <time>2012-03-17T13:55:01Z</time>
      </trkpt>
      <trkpt lat="48.67342" lon="6.08705">
        <ele>323</ele>
        <time>2012-03-17T13:55:03Z</time>
      </trkpt>
      <trkpt lat="48.67339" lon="6.08698">
        <ele>325</ele>
        <time>2012-03-17T13:55:05Z</time>
      </trkpt>
      <trkpt lat="48.67336" lon="6.08692">
        <ele>329</ele>
        <time>2012-03-17T13:55:07Z</time>
      </trkpt>
      <trkpt lat="48.67332" lon="6.0869">
        <ele>333</ele>
        <time>2012-03-17T13:55:09Z</time>
      </trkpt>
      <trkpt lat="48.67329" lon="6.08685">
        <ele>331</ele>
        <time>2012-03-17T13:55:11Z</time>
      </trkpt>
      <trkpt lat="48.67315" lon="6.08656">
        <ele>339</ele>
        <time>2012-03-17T13:55:21Z</time>
      </trkpt>
      <trkpt lat="48.67312" lon="6.0865">
        <ele>341</ele>
        <time>2012-03-17T13:55:23Z</time>
      </trkpt>
      <trkpt lat="48.67307" lon="6.08645">
        <ele>344</ele>
        <time>2012-03-17T13:55:25Z</time>
      </trkpt>
      <trkpt lat="48.67302" lon="6.08642">
        <ele>347</ele>
        <time>2012-03-17T13:55:27Z</time>
      </trkpt>
      <trkpt lat="48.67297" lon="6.08637">
        <ele>348</ele>
        <time>2012-03-17T13:55:29Z</time>
      </trkpt>
      <trkpt lat="48.67292" lon="6.08632">
        <ele>345</ele>
        <time>2012-03-17T13:55:31Z</time>
      </trkpt>
      <trkpt lat="48.67288" lon="6.08625">
        <ele>343</ele>
        <time>2012-03-17T13:55:33Z</time>
      </trkpt>
      <trkpt lat="48.67284" lon="6.08619">
        <ele>342</ele>
        <time>2012-03-17T13:55:35Z</time>
      </trkpt>
      <trkpt lat="48.67279" lon="6.08612">
        <ele>342</ele>
        <time>2012-03-17T13:55:37Z</time>
      </trkpt>
      <trkpt lat="48.67275" lon="6.08606">
        <ele>344</ele>
        <time>2012-03-17T13:55:39Z</time>
      </trkpt>
      <trkpt lat="48.67271" lon="6.086">
        <ele>343</ele>
        <time>2012-03-17T13:55:41Z</time>
      </trkpt>
      <trkpt lat="48.67266" lon="6.08594">
        <ele>345</ele>
        <time>2012-03-17T13:55:43Z</time>
      </trkpt>
      <trkpt lat="48.67261" lon="6.08589">
        <ele>345</ele>
        <time>2012-03-17T13:55:45Z</time>
      </trkpt>
      <trkpt lat="48.67255" lon="6.08585">
        <ele>344</ele>
        <time>2012-03-17T13:55:47Z</time>
      </trkpt>
      <trkpt lat="48.6725" lon="6.0858">
        <ele>343</ele>
        <time>2012-03-17T13:55:49Z</time>
      </trkpt>
      <trkpt lat="48.67246" lon="6.08575">
        <ele>342</ele>
        <time>2012-03-17T13:55:51Z</time>
      </trkpt>
      <trkpt lat="48.67242" lon="6.08569">
        <ele>342</ele>
        <time>2012-03-17T13:55:53Z</time>
      </trkpt>
      <trkpt lat="48.67238" lon="6.08561">
        <ele>342</ele>
        <time>2012-03-17T13:55:55Z</time>
      </trkpt>
      <trkpt lat="48.67233" lon="6.08556">
        <ele>342</ele>
        <time>2012-03-17T13:55:57Z</time>
      </trkpt>
      <trkpt lat="48.67229" lon="6.08551">
        <ele>342</ele>
        <time>2012-03-17T13:55:59Z</time>
      </trkpt>
      <trkpt lat="48.67225" lon="6.08546">
        <ele>343</ele>
        <time>2012-03-17T13:56:01Z</time>
      </trkpt>
      <trkpt lat="48.67222" lon="6.08539">
        <ele>343</ele>
        <time>2012-03-17T13:56:03Z</time>
      </trkpt>
      <trkpt lat="48.67218" lon="6.08532">
        <ele>344</ele>
        <time>2012-03-17T13:56:05Z</time>
      </trkpt>
      <trkpt lat="48.67215" lon="6.08526">
        <ele>347</ele>
        <time>2012-03-17T13:56:07Z</time>
      </trkpt>
      <trkpt lat="48.6721" lon="6.0852">
        <ele>348</ele>
        <time>2012-03-17T13:56:09Z</time>
      </trkpt>
      <trkpt lat="48.67206" lon="6.08515">
        <ele>347</ele>
        <time>2012-03-17T13:56:11Z</time>
      </trkpt>
      <trkpt lat="48.67202" lon="6.08511">
        <ele>347</ele>
        <time>2012-03-17T13:56:13Z</time>
      </trkpt>
      <trkpt lat="48.67198" lon="6.08508">
        <ele>348</ele>
        <time>2012-03-17T13:56:15Z</time>
      </trkpt>
      <trkpt lat="48.67194" lon="6.08501">
        <ele>348</ele>
        <time>2012-03-17T13:56:17Z</time>
      </trkpt>
      <trkpt lat="48.67191" lon="6.08495">
        <ele>348</ele>
        <time>2012-03-17T13:56:19Z</time>
      </trkpt>
      <trkpt lat="48.67189" lon="6.08491">
        <ele>347</ele>
        <time>2012-03-17T13:56:21Z</time>
      </trkpt>
      <trkpt lat="48.67188" lon="6.08486">
        <ele>352</ele>
        <time>2012-03-17T13:56:23Z</time>
      </trkpt>
      <trkpt lat="48.67186" lon="6.08481">
        <ele>352</ele>
        <time>2012-03-17T13:56:25Z</time>
      </trkpt>
      <trkpt lat="48.67184" lon="6.08474">
        <ele>353</ele>
        <time>2012-03-17T13:56:27Z</time>
      </trkpt>
      <trkpt lat="48.67183" lon="6.08468">
        <ele>355</ele>
        <time>2012-03-17T13:56:29Z</time>
      </trkpt>
      <trkpt lat="48.67181" lon="6.08464">
        <ele>355</ele>
        <time>2012-03-17T13:56:31Z</time>
      </trkpt>
      <trkpt lat="48.67179" lon="6.0846">
        <ele>354</ele>
        <time>2012-03-17T13:56:33Z</time>
      </trkpt>
      <trkpt lat="48.67177" lon="6.08456">
        <ele>352</ele>
        <time>2012-03-17T13:56:35Z</time>
      </trkpt>
      <trkpt lat="48.67175" lon="6.08452">
        <ele>349</ele>
        <time>2012-03-17T13:56:37Z</time>
      </trkpt>
      <trkpt lat="48.67172" lon="6.08449">
        <ele>350</ele>
        <time>2012-03-17T13:56:39Z</time>
      </trkpt>
      <trkpt lat="48.67168" lon="6.08446">
        <ele>350</ele>
        <time>2012-03-17T13:56:41Z</time>
      </trkpt>
      <trkpt lat="48.67165" lon="6.08443">
        <ele>352</ele>
        <time>2012-03-17T13:56:43Z</time>
      </trkpt>
      <trkpt lat="48.67161" lon="6.0844">
        <ele>352</ele>
        <time>2012-03-17T13:56:45Z</time>
      </trkpt>
      <trkpt lat="48.67158" lon="6.08436">
        <ele>351</ele>
        <time>2012-03-17T13:56:47Z</time>
      </trkpt>
      <trkpt lat="48.67154" lon="6.08433">
        <ele>351</ele>
        <time>2012-03-17T13:56:49Z</time>
      </trkpt>
      <trkpt lat="48.6715" lon="6.08429">
        <ele>351</ele>
        <time>2012-03-17T13:56:51Z</time>
      </trkpt>
      <trkpt lat="48.67147" lon="6.08427">
        <ele>351</ele>
        <time>2012-03-17T13:56:53Z</time>
      </trkpt>
      <trkpt lat="48.67144" lon="6.08424">
        <ele>351</ele>
        <time>2012-03-17T13:56:55Z</time>
      </trkpt>
      <trkpt lat="48.6714" lon="6.08419">
        <ele>349</ele>
        <time>2012-03-17T13:56:57Z</time>
      </trkpt>
      <trkpt lat="48.67136" lon="6.08415">
        <ele>348</ele>
        <time>2012-03-17T13:56:59Z</time>
      </trkpt>
      <trkpt lat="48.67132" lon="6.0841">
        <ele>347</ele>
        <time>2012-03-17T13:57:01Z</time>
      </trkpt>
      <trkpt lat="48.67128" lon="6.08407">
        <ele>348</ele>
        <time>2012-03-17T13:57:03Z</time>
      </trkpt>
      <trkpt lat="48.67124" lon="6.08405">
        <ele>347</ele>
        <time>2012-03-17T13:57:05Z</time>
      </trkpt>
      <trkpt lat="48.6712" lon="6.08402">
        <ele>347</ele>
        <time>2012-03-17T13:57:07Z</time>
      </trkpt>
      <trkpt lat="48.67114" lon="6.08399">
        <ele>345</ele>
        <time>2012-03-17T13:57:09Z</time>
      </trkpt>
      <trkpt lat="48.6711" lon="6.08395">
        <ele>346</ele>
        <time>2012-03-17T13:57:11Z</time>
      </trkpt>
      <trkpt lat="48.67106" lon="6.08392">
        <ele>345</ele>
        <time>2012-03-17T13:57:13Z</time>
      </trkpt>
      <trkpt lat="48.67103" lon="6.08388">
        <ele>346</ele>
        <time>2012-03-17T13:57:15Z</time>
      </trkpt>
      <trkpt lat="48.671" lon="6.08384">
        <ele>347</ele>
        <time>2012-03-17T13:57:17Z</time>
      </trkpt>
      <trkpt lat="48.67096" lon="6.08379">
        <ele>346</ele>
        <time>2012-03-17T13:57:19Z</time>
      </trkpt>
      <trkpt lat="48.67093" lon="6.08376">
        <ele>346</ele>
        <time>2012-03-17T13:57:21Z</time>
      </trkpt>
      <trkpt lat="48.6709" lon="6.08372">
        <ele>347</ele>
        <time>2012-03-17T13:57:23Z</time>
      </trkpt>
      <trkpt lat="48.67086" lon="6.08369">
        <ele>348</ele>
        <time>2012-03-17T13:57:25Z</time>
      </trkpt>
      <trkpt lat="48.67083" lon="6.08366">
        <ele>349</ele>
        <time>2012-03-17T13:57:27Z</time>
      </trkpt>
      <trkpt lat="48.67078" lon="6.08364">
        <ele>349</ele>
        <time>2012-03-17T13:57:29Z</time>
      </trkpt>
      <trkpt lat="48.67075" lon="6.08361">
        <ele>349</ele>
        <time>2012-03-17T13:57:31Z</time>
      </trkpt>
      <trkpt lat="48.67071" lon="6.08358">
        <ele>350</ele>
        <time>2012-03-17T13:57:33Z</time>
      </trkpt>
      <trkpt lat="48.67068" lon="6.08355">
        <ele>349</ele>
        <time>2012-03-17T13:57:35Z</time>
      </trkpt>
      <trkpt lat="48.67064" lon="6.08352">
        <ele>350</ele>
        <time>2012-03-17T13:57:37Z</time>
      </trkpt>
      <trkpt lat="48.6706" lon="6.08349">
        <ele>349</ele>
        <time>2012-03-17T13:57:39Z</time>
      </trkpt>
      <trkpt lat="48.67056" lon="6.08346">
        <ele>350</ele>
        <time>2012-03-17T13:57:41Z</time>
      </trkpt>
      <trkpt lat="48.67053" lon="6.08342">
        <ele>351</ele>
        <time>2012-03-17T13:57:43Z</time>
      </trkpt>
      <trkpt lat="48.6705" lon="6.08337">
        <ele>352</ele>
        <time>2012-03-17T13:57:45Z</time>
      </trkpt>
      <trkpt lat="48.67047" lon="6.08333">
        <ele>353</ele>
        <time>2012-03-17T13:57:47Z</time>
      </trkpt>
      <trkpt lat="48.67043" lon="6.08328">
        <ele>353</ele>
        <time>2012-03-17T13:57:49Z</time>
      </trkpt>
      <trkpt lat="48.6704" lon="6.08324">
        <ele>354</ele>
        <time>2012-03-17T13:57:51Z</time>
      </trkpt>
      <trkpt lat="48.67036" lon="6.08321">
        <ele>355</ele>
        <time>2012-03-17T13:57:53Z</time>
      </trkpt>
      <trkpt lat="48.67033" lon="6.08318">
        <ele>356</ele>
        <time>2012-03-17T13:57:55Z</time>
      </trkpt>
      <trkpt lat="48.6703" lon="6.08315">
        <ele>357</ele>
        <time>2012-03-17T13:57:57Z</time>
      </trkpt>
      <trkpt lat="48.67026" lon="6.08311">
        <ele>356</ele>
        <time>2012-03-17T13:57:59Z</time>
      </trkpt>
      <trkpt lat="48.67022" lon="6.08307">
        <ele>356</ele>
        <time>2012-03-17T13:58:01Z</time>
      </trkpt>
      <trkpt lat="48.67018" lon="6.08303">
        <ele>356</ele>
        <time>2012-03-17T13:58:03Z</time>
      </trkpt>
      <trkpt lat="48.67015" lon="6.083">
        <ele>358</ele>
        <time>2012-03-17T13:58:05Z</time>
      </trkpt>
      <trkpt lat="48.67011" lon="6.08297">
        <ele>358</ele>
        <time>2012-03-17T13:58:07Z</time>
      </trkpt>
      <trkpt lat="48.67007" lon="6.08292">
        <ele>359</ele>
        <time>2012-03-17T13:58:09Z</time>
      </trkpt>
      <trkpt lat="48.67003" lon="6.08288">
        <ele>359</ele>
        <time>2012-03-17T13:58:11Z</time>
      </trkpt>
      <trkpt lat="48.66999" lon="6.08285">
        <ele>361</ele>
        <time>2012-03-17T13:58:13Z</time>
      </trkpt>
      <trkpt lat="48.66995" lon="6.08282">
        <ele>362</ele>
        <time>2012-03-17T13:58:15Z</time>
      </trkpt>
      <trkpt lat="48.66991" lon="6.08278">
        <ele>363</ele>
        <time>2012-03-17T13:58:17Z</time>
      </trkpt>
      <trkpt lat="48.66986" lon="6.08274">
        <ele>362</ele>
        <time>2012-03-17T13:58:19Z</time>
      </trkpt>
      <trkpt lat="48.66981" lon="6.0827">
        <ele>362</ele>
        <time>2012-03-17T13:58:21Z</time>
      </trkpt>
      <trkpt lat="48.66977" lon="6.08265">
        <ele>362</ele>
        <time>2012-03-17T13:58:23Z</time>
      </trkpt>
      <trkpt lat="48.66972" lon="6.0826">
        <ele>363</ele>
        <time>2012-03-17T13:58:25Z</time>
      </trkpt>
      <trkpt lat="48.66968" lon="6.08257">
        <ele>364</ele>
        <time>2012-03-17T13:58:27Z</time>
      </trkpt>
      <trkpt lat="48.66963" lon="6.08255">
        <ele>364</ele>
        <time>2012-03-17T13:58:29Z</time>
      </trkpt>
      <trkpt lat="48.66959" lon="6.08251">
        <ele>364</ele>
        <time>2012-03-17T13:58:31Z</time>
      </trkpt>
      <trkpt lat="48.66954" lon="6.08246">
        <ele>364</ele>
        <time>2012-03-17T13:58:33Z</time>
      </trkpt>
      <trkpt lat="48.6695" lon="6.08241">
        <ele>364</ele>
        <time>2012-03-17T13:58:35Z</time>
      </trkpt>
      <trkpt lat="48.66944" lon="6.08239">
        <ele>364</ele>
        <time>2012-03-17T13:58:37Z</time>
      </trkpt>
      <trkpt lat="48.66939" lon="6.08235">
        <ele>364</ele>
        <time>2012-03-17T13:58:39Z</time>
      </trkpt>
      <trkpt lat="48.66934" lon="6.08231">
        <ele>363</ele>
        <time>2012-03-17T13:58:41Z</time>
      </trkpt>
      <trkpt lat="48.66929" lon="6.08226">
        <ele>364</ele>
        <time>2012-03-17T13:58:43Z</time>
      </trkpt>
      <trkpt lat="48.66924" lon="6.08221">
        <ele>364</ele>
        <time>2012-03-17T13:58:45Z</time>
      </trkpt>
      <trkpt lat="48.6692" lon="6.08217">
        <ele>365</ele>
        <time>2012-03-17T13:58:47Z</time>
      </trkpt>
      <trkpt lat="48.66915" lon="6.08214">
        <ele>366</ele>
        <time>2012-03-17T13:58:49Z</time>
      </trkpt>
      <trkpt lat="48.66911" lon="6.08209">
        <ele>365</ele>
        <time>2012-03-17T13:58:51Z</time>
      </trkpt>
      <trkpt lat="48.66906" lon="6.08205">
        <ele>366</ele>
        <time>2012-03-17T13:58:53Z</time>
      </trkpt>
      <trkpt lat="48.66901" lon="6.08201">
        <ele>366</ele>
        <time>2012-03-17T13:58:55Z</time>
      </trkpt>
      <trkpt lat="48.66896" lon="6.08197">
        <ele>366</ele>
        <time>2012-03-17T13:58:57Z</time>
      </trkpt>
      <trkpt lat="48.66891" lon="6.08192">
        <ele>366</ele>
        <time>2012-03-17T13:58:59Z</time>
      </trkpt>
      <trkpt lat="48.66886" lon="6.08187">
        <ele>366</ele>
        <time>2012-03-17T13:59:01Z</time>
      </trkpt>
      <trkpt lat="48.66881" lon="6.08182">
        <ele>366</ele>
        <time>2012-03-17T13:59:03Z</time>
      </trkpt>
      <trkpt lat="48.66876" lon="6.08178">
        <ele>366</ele>
        <time>2012-03-17T13:59:05Z</time>
      </trkpt>
      <trkpt lat="48.66871" lon="6.08177">
        <ele>367</ele>
        <time>2012-03-17T13:59:07Z</time>
      </trkpt>
      <trkpt lat="48.66866" lon="6.08173">
        <ele>368</ele>
        <time>2012-03-17T13:59:09Z</time>
      </trkpt>
      <trkpt lat="48.66862" lon="6.08169">
        <ele>369</ele>
        <time>2012-03-17T13:59:11Z</time>
      </trkpt>
      <trkpt lat="48.66857" lon="6.08164">
        <ele>369</ele>
        <time>2012-03-17T13:59:13Z</time>
      </trkpt>
      <trkpt lat="48.66853" lon="6.0816">
        <ele>371</ele>
        <time>2012-03-17T13:59:15Z</time>
      </trkpt>
      <trkpt lat="48.66848" lon="6.08155">
        <ele>372</ele>
        <time>2012-03-17T13:59:17Z</time>
      </trkpt>
      <trkpt lat="48.66843" lon="6.0815">
        <ele>373</ele>
        <time>2012-03-17T13:59:19Z</time>
      </trkpt>
      <trkpt lat="48.66838" lon="6.08143">
        <ele>371</ele>
        <time>2012-03-17T13:59:21Z</time>
      </trkpt>
      <trkpt lat="48.66833" lon="6.08137">
        <ele>373</ele>
        <time>2012-03-17T13:59:23Z</time>
      </trkpt>
      <trkpt lat="48.66829" lon="6.08133">
        <ele>376</ele>
        <time>2012-03-17T13:59:25Z</time>
      </trkpt>
      <trkpt lat="48.66825" lon="6.08128">
        <ele>378</ele>
        <time>2012-03-17T13:59:27Z</time>
      </trkpt>
      <trkpt lat="48.66821" lon="6.08123">
        <ele>380</ele>
        <time>2012-03-17T13:59:29Z</time>
      </trkpt>
      <trkpt lat="48.66816" lon="6.08118">
        <ele>380</ele>
        <time>2012-03-17T13:59:31Z</time>
      </trkpt>
      <trkpt lat="48.66811" lon="6.08113">
        <ele>382</ele>
        <time>2012-03-17T13:59:33Z</time>
      </trkpt>
      <trkpt lat="48.66805" lon="6.08106">
        <ele>382</ele>
        <time>2012-03-17T13:59:35Z</time>
      </trkpt>
      <trkpt lat="48.66799" lon="6.08102">
        <ele>381</ele>
        <time>2012-03-17T13:59:37Z</time>
      </trkpt>
      <trkpt lat="48.66794" lon="6.08099">
        <ele>383</ele>
        <time>2012-03-17T13:59:39Z</time>
      </trkpt>
      <trkpt lat="48.66789" lon="6.08095">
        <ele>388</ele>
        <time>2012-03-17T13:59:41Z</time>
      </trkpt>
      <trkpt lat="48.66783" lon="6.08089">
        <ele>387</ele>
        <time>2012-03-17T13:59:43Z</time>
      </trkpt>
      <trkpt lat="48.66777" lon="6.08083">
        <ele>386</ele>
        <time>2012-03-17T13:59:45Z</time>
      </trkpt>
      <trkpt lat="48.6677" lon="6.08075">
        <ele>384</ele>
        <time>2012-03-17T13:59:47Z</time>
      </trkpt>
      <trkpt lat="48.66766" lon="6.08067">
        <ele>385</ele>
        <time>2012-03-17T13:59:49Z</time>
      </trkpt>
      <trkpt lat="48.66763" lon="6.08061">
        <ele>384</ele>
        <time>2012-03-17T13:59:51Z</time>
      </trkpt>
      <trkpt lat="48.66758" lon="6.08056">
        <ele>382</ele>
        <time>2012-03-17T13:59:53Z</time>
      </trkpt>
      <trkpt lat="48.66752" lon="6.08048">
        <ele>383</ele>
        <time>2012-03-17T13:59:55Z</time>
      </trkpt>
      <trkpt lat="48.66749" lon="6.08041">
        <ele>380</ele>
        <time>2012-03-17T13:59:57Z</time>
      </trkpt>
      <trkpt lat="48.66744" lon="6.08035">
        <ele>378</ele>
        <time>2012-03-17T13:59:59Z</time>
      </trkpt>
      <trkpt lat="48.66738" lon="6.08034">
        <ele>374</ele>
        <time>2012-03-17T14:00:01Z</time>
      </trkpt>
      <trkpt lat="48.66735" lon="6.08036">
        <ele>369</ele>
        <time>2012-03-17T14:00:03Z</time>
      </trkpt>
      <trkpt lat="48.66731" lon="6.08041">
        <ele>367</ele>
        <time>2012-03-17T14:00:05Z</time>
      </trkpt>
      <trkpt lat="48.66724" lon="6.08044">
        <ele>366</ele>
        <time>2012-03-17T14:00:07Z</time>
      </trkpt>
      <trkpt lat="48.66718" lon="6.08046">
        <ele>367</ele>
        <time>2012-03-17T14:00:09Z</time>
      </trkpt>
      <trkpt lat="48.66711" lon="6.08049">
        <ele>369</ele>
        <time>2012-03-17T14:00:11Z</time>
      </trkpt>
      <trkpt lat="48.66705" lon="6.08051">
        <ele>369</ele>
        <time>2012-03-17T14:00:13Z</time>
      </trkpt>
      <trkpt lat="48.66699" lon="6.08053">
        <ele>371</ele>
        <time>2012-03-17T14:00:15Z</time>
      </trkpt>
      <trkpt lat="48.66691" lon="6.08056">
        <ele>373</ele>
        <time>2012-03-17T14:00:17Z</time>
      </trkpt>
      <trkpt lat="48.66685" lon="6.08058">
        <ele>375</ele>
        <time>2012-03-17T14:00:19Z</time>
      </trkpt>
      <trkpt lat="48.6668" lon="6.08061">
        <ele>376</ele>
        <time>2012-03-17T14:00:21Z</time>
      </trkpt>
      <trkpt lat="48.66675" lon="6.08064">
        <ele>377</ele>
        <time>2012-03-17T14:00:23Z</time>
      </trkpt>
      <trkpt lat="48.66668" lon="6.08066">
        <ele>381</ele>
        <time>2012-03-17T14:00:25Z</time>
      </trkpt>
      <trkpt lat="48.66661" lon="6.08069">
        <ele>380</ele>
        <time>2012-03-17T14:00:27Z</time>
      </trkpt>
      <trkpt lat="48.66653" lon="6.08071">
        <ele>382</ele>
        <time>2012-03-17T14:00:29Z</time>
      </trkpt>
      <trkpt lat="48.66644" lon="6.08073">
        <ele>386</ele>
        <time>2012-03-17T14:00:31Z</time>
      </trkpt>
      <trkpt lat="48.66633" lon="6.08075">
        <ele>386</ele>
        <time>2012-03-17T14:00:33Z</time>
      </trkpt>
      <trkpt lat="48.66623" lon="6.08078">
        <ele>387</ele>
        <time>2012-03-17T14:00:35Z</time>
      </trkpt>
      <trkpt lat="48.66612" lon="6.08082">
        <ele>387</ele>
        <time>2012-03-17T14:00:37Z</time>
      </trkpt>
      <trkpt lat="48.666" lon="6.08087">
        <ele>384</ele>
        <time>2012-03-17T14:00:39Z</time>
      </trkpt>
      <trkpt lat="48.66587" lon="6.08089">
        <ele>383</ele>
        <time>2012-03-17T14:00:41Z</time>
      </trkpt>
      <trkpt lat="48.66575" lon="6.08092">
        <ele>385</ele>
        <time>2012-03-17T14:00:43Z</time>
      </trkpt>
      <trkpt lat="48.66563" lon="6.08097">
        <ele>385</ele>
        <time>2012-03-17T14:00:45Z</time>
      </trkpt>
      <trkpt lat="48.66553" lon="6.081">
        <ele>385</ele>
        <time>2012-03-17T14:00:47Z</time>
      </trkpt>
      <trkpt lat="48.66541" lon="6.08103">
        <ele>382</ele>
        <time>2012-03-17T14:00:49Z</time>
      </trkpt>
      <trkpt lat="48.66529" lon="6.08107">
        <ele>381</ele>
        <time>2012-03-17T14:00:51Z</time>
      </trkpt>
      <trkpt lat="48.66515" lon="6.08112">
        <ele>382</ele>
        <time>2012-03-17T14:00:53Z</time>
      </trkpt>
      <trkpt lat="48.66501" lon="6.08116">
        <ele>383</ele>
        <time>2012-03-17T14:00:55Z</time>
      </trkpt>
      <trkpt lat="48.66488" lon="6.08118">
        <ele>381</ele>
        <time>2012-03-17T14:00:57Z</time>
      </trkpt>
      <trkpt lat="48.66477" lon="6.08121">
        <ele>384</ele>
        <time>2012-03-17T14:00:59Z</time>
      </trkpt>
      <trkpt lat="48.66468" lon="6.08123">
        <ele>386</ele>
        <time>2012-03-17T14:01:01Z</time>
      </trkpt>
      <trkpt lat="48.6646" lon="6.08124">
        <ele>386</ele>
        <time>2012-03-17T14:01:03Z</time>
      </trkpt>
      <trkpt lat="48.66452" lon="6.08127">
        <ele>387</ele>
        <time>2012-03-17T14:01:05Z</time>
      </trkpt>
      <trkpt lat="48.66445" lon="6.08128">
        <ele>387</ele>
        <time>2012-03-17T14:01:07Z</time>
      </trkpt>
      <trkpt lat="48.66438" lon="6.08129">
        <ele>386</ele>
        <time>2012-03-17T14:01:09Z</time>
      </trkpt>
      <trkpt lat="48.66431" lon="6.08131">
        <ele>382</ele>
        <time>2012-03-17T14:01:11Z</time>
      </trkpt>
      <trkpt lat="48.66425" lon="6.08132">
        <ele>380</ele>
        <time>2012-03-17T14:01:13Z</time>
      </trkpt>
      <trkpt lat="48.66418" lon="6.08133">
        <ele>379</ele>
        <time>2012-03-17T14:01:15Z</time>
      </trkpt>
      <trkpt lat="48.66413" lon="6.08134">
        <ele>379</ele>
        <time>2012-03-17T14:01:17Z</time>
      </trkpt>
      <trkpt lat="48.66408" lon="6.08135">
        <ele>379</ele>
        <time>2012-03-17T14:01:19Z</time>
      </trkpt>
      <trkpt lat="48.66402" lon="6.08138">
        <ele>381</ele>
        <time>2012-03-17T14:01:21Z</time>
      </trkpt>
      <trkpt lat="48.66398" lon="6.0814">
        <ele>385</ele>
        <time>2012-03-17T14:01:23Z</time>
      </trkpt>
      <trkpt lat="48.66394" lon="6.08142">
        <ele>385</ele>
        <time>2012-03-17T14:01:25Z</time>
      </trkpt>
      <trkpt lat="48.6639" lon="6.08143">
        <ele>382</ele>
        <time>2012-03-17T14:01:27Z</time>
      </trkpt>
      <trkpt lat="48.66385" lon="6.08145">
        <ele>378</ele>
        <time>2012-03-17T14:01:29Z</time>
      </trkpt>
      <trkpt lat="48.66381" lon="6.08146">
        <ele>380</ele>
        <time>2012-03-17T14:01:31Z</time>
      </trkpt>
      <trkpt lat="48.66376" lon="6.08147">
        <ele>383</ele>
        <time>2012-03-17T14:01:33Z</time>
      </trkpt>
      <trkpt lat="48.6637" lon="6.08148">
        <ele>383</ele>
        <time>2012-03-17T14:01:35Z</time>
      </trkpt>
      <trkpt lat="48.66366" lon="6.08149">
        <ele>386</ele>
        <time>2012-03-17T14:01:37Z</time>
      </trkpt>
      <trkpt lat="48.6636" lon="6.0815">
        <ele>387</ele>
        <time>2012-03-17T14:01:39Z</time>
      </trkpt>
      <trkpt lat="48.66354" lon="6.0815">
        <ele>389</ele>
        <time>2012-03-17T14:01:41Z</time>
      </trkpt>
      <trkpt lat="48.66349" lon="6.08152">
        <ele>390</ele>
        <time>2012-03-17T14:01:43Z</time>
      </trkpt>
      <trkpt lat="48.66343" lon="6.08154">
        <ele>388</ele>
        <time>2012-03-17T14:01:45Z</time>
      </trkpt>
      <trkpt lat="48.66338" lon="6.08156">
        <ele>392</ele>
        <time>2012-03-17T14:01:47Z</time>
      </trkpt>
      <trkpt lat="48.66333" lon="6.08157">
        <ele>391</ele>
        <time>2012-03-17T14:01:49Z</time>
      </trkpt>
      <trkpt lat="48.66328" lon="6.08158">
        <ele>389</ele>
        <time>2012-03-17T14:01:51Z</time>
      </trkpt>
      <trkpt lat="48.66324" lon="6.0816">
        <ele>390</ele>
        <time>2012-03-17T14:01:53Z</time>
      </trkpt>
      <trkpt lat="48.6632" lon="6.08161">
        <ele>392</ele>
        <time>2012-03-17T14:01:55Z</time>
      </trkpt>
      <trkpt lat="48.66316" lon="6.08162">
        <ele>393</ele>
        <time>2012-03-17T14:01:57Z</time>
      </trkpt>
      <trkpt lat="48.66311" lon="6.08164">
        <ele>391</ele>
        <time>2012-03-17T14:01:59Z</time>
      </trkpt>
      <trkpt lat="48.66306" lon="6.08165">
        <ele>391</ele>
        <time>2012-03-17T14:02:01Z</time>
      </trkpt>
      <trkpt lat="48.663" lon="6.08167">
        <ele>392</ele>
        <time>2012-03-17T14:02:03Z</time>
      </trkpt>
      <trkpt lat="48.66296" lon="6.08169">
        <ele>395</ele>
        <time>2012-03-17T14:02:05Z</time>
      </trkpt>
      <trkpt lat="48.6629" lon="6.08171">
        <ele>396</ele>
        <time>2012-03-17T14:02:07Z</time>
      </trkpt>
      <trkpt lat="48.66286" lon="6.08172">
        <ele>398</ele>
        <time>2012-03-17T14:02:09Z</time>
      </trkpt>
      <trkpt lat="48.66282" lon="6.08174">
        <ele>399</ele>
        <time>2012-03-17T14:02:11Z</time>
      </trkpt>
      <trkpt lat="48.66276" lon="6.08175">
        <ele>396</ele>
        <time>2012-03-17T14:02:13Z</time>
      </trkpt>
      <trkpt lat="48.66272" lon="6.08176">
        <ele>397</ele>
        <time>2012-03-17T14:02:15Z</time>
      </trkpt>
      <trkpt lat="48.66267" lon="6.08177">
        <ele>396</ele>
        <time>2012-03-17T14:02:17Z</time>
      </trkpt>
      <trkpt lat="48.66262" lon="6.08178">
        <ele>396</ele>
        <time>2012-03-17T14:02:19Z</time>
      </trkpt>
      <trkpt lat="48.66257" lon="6.0818">
        <ele>395</ele>
        <time>2012-03-17T14:02:21Z</time>
      </trkpt>
      <trkpt lat="48.66252" lon="6.08182">
        <ele>394</ele>
        <time>2012-03-17T14:02:23Z</time>
      </trkpt>
      <trkpt lat="48.66247" lon="6.08183">
        <ele>396</ele>
        <time>2012-03-17T14:02:25Z</time>
      </trkpt>
      <trkpt lat="48.66242" lon="6.08185">
        <ele>396</ele>
        <time>2012-03-17T14:02:27Z</time>
      </trkpt>
      <trkpt lat="48.66237" lon="6.08187">
        <ele>395</ele>
        <time>2012-03-17T14:02:29Z</time>
      </trkpt>
      <trkpt lat="48.66232" lon="6.08188">
        <ele>393</ele>
        <time>2012-03-17T14:02:31Z</time>
      </trkpt>
      <trkpt lat="48.66226" lon="6.08189">
        <ele>394</ele>
        <time>2012-03-17T14:02:33Z</time>
      </trkpt>
      <trkpt lat="48.66221" lon="6.0819">
        <ele>393</ele>
        <time>2012-03-17T14:02:35Z</time>
      </trkpt>
      <trkpt lat="48.66214" lon="6.08192">
        <ele>390</ele>
        <time>2012-03-17T14:02:37Z</time>
      </trkpt>
      <trkpt lat="48.66209" lon="6.08194">
        <ele>392</ele>
        <time>2012-03-17T14:02:39Z</time>
      </trkpt>
      <trkpt lat="48.66205" lon="6.08195">
        <ele>393</ele>
        <time>2012-03-17T14:02:41Z</time>
      </trkpt>
      <trkpt lat="48.66199" lon="6.08195">
        <ele>394</ele>
        <time>2012-03-17T14:02:43Z</time>
      </trkpt>
      <trkpt lat="48.66194" lon="6.08196">
        <ele>392</ele>
        <time>2012-03-17T14:02:45Z</time>
      </trkpt>
      <trkpt lat="48.6619" lon="6.08198">
        <ele>392</ele>
        <time>2012-03-17T14:02:47Z</time>
      </trkpt>
      <trkpt lat="48.6618" lon="6.08199">
        <ele>390</ele>
        <time>2012-03-17T14:02:51Z</time>
      </trkpt>
      <trkpt lat="48.66168" lon="6.08202">
        <ele>395</ele>
        <time>2012-03-17T14:02:55Z</time>
      </trkpt>
      <trkpt lat="48.66163" lon="6.08204">
        <ele>395</ele>
        <time>2012-03-17T14:02:57Z</time>
      </trkpt>
      <trkpt lat="48.66157" lon="6.08205">
        <ele>396</ele>
        <time>2012-03-17T14:02:59Z</time>
      </trkpt>
      <trkpt lat="48.66153" lon="6.08207">
        <ele>397</ele>
        <time>2012-03-17T14:03:01Z</time>
      </trkpt>
      <trkpt lat="48.66147" lon="6.08208">
        <ele>398</ele>
        <time>2012-03-17T14:03:03Z</time>
      </trkpt>
      <trkpt lat="48.66142" lon="6.0821">
        <ele>399</ele>
        <time>2012-03-17T14:03:05Z</time>
      </trkpt>
      <trkpt lat="48.66137" lon="6.08211">
        <ele>403</ele>
        <time>2012-03-17T14:03:07Z</time>
      </trkpt>
      <trkpt lat="48.66132" lon="6.08212">
        <ele>408</ele>
        <time>2012-03-17T14:03:09Z</time>
      </trkpt>
      <trkpt lat="48.66126" lon="6.08214">
        <ele>410</ele>
        <time>2012-03-17T14:03:11Z</time>
      </trkpt>
      <trkpt lat="48.66121" lon="6.08217">
        <ele>411</ele>
        <time>2012-03-17T14:03:13Z</time>
      </trkpt>
      <trkpt lat="48.66116" lon="6.0822">
        <ele>412</ele>
        <time>2012-03-17T14:03:15Z</time>
      </trkpt>
      <trkpt lat="48.66111" lon="6.08222">
        <ele>412</ele>
        <time>2012-03-17T14:03:17Z</time>
      </trkpt>
      <trkpt lat="48.66106" lon="6.08224">
        <ele>413</ele>
        <time>2012-03-17T14:03:19Z</time>
      </trkpt>
      <trkpt lat="48.661" lon="6.08225">
        <ele>412</ele>
        <time>2012-03-17T14:03:21Z</time>
      </trkpt>
      <trkpt lat="48.66093" lon="6.08226">
        <ele>409</ele>
        <time>2012-03-17T14:03:23Z</time>
      </trkpt>
      <trkpt lat="48.66087" lon="6.08227">
        <ele>411</ele>
        <time>2012-03-17T14:03:25Z</time>
      </trkpt>
      <trkpt lat="48.6608" lon="6.08229">
        <ele>413</ele>
        <time>2012-03-17T14:03:27Z</time>
      </trkpt>
      <trkpt lat="48.66073" lon="6.08231">
        <ele>413</ele>
        <time>2012-03-17T14:03:29Z</time>
      </trkpt>
      <trkpt lat="48.66066" lon="6.08234">
        <ele>411</ele>
        <time>2012-03-17T14:03:31Z</time>
      </trkpt>
      <trkpt lat="48.6606" lon="6.08237">
        <ele>415</ele>
        <time>2012-03-17T14:03:33Z</time>
      </trkpt>
      <trkpt lat="48.66053" lon="6.08239">
        <ele>413</ele>
        <time>2012-03-17T14:03:35Z</time>
      </trkpt>
      <trkpt lat="48.66046" lon="6.08242">
        <ele>413</ele>
        <time>2012-03-17T14:03:37Z</time>
      </trkpt>
      <trkpt lat="48.66039" lon="6.08246">
        <ele>412</ele>
        <time>2012-03-17T14:03:39Z</time>
      </trkpt>
      <trkpt lat="48.66031" lon="6.08249">
        <ele>411</ele>
        <time>2012-03-17T14:03:41Z</time>
      </trkpt>
      <trkpt lat="48.66021" lon="6.08251">
        <ele>412</ele>
        <time>2012-03-17T14:03:43Z</time>
      </trkpt>
      <trkpt lat="48.66012" lon="6.08253">
        <ele>413</ele>
        <time>2012-03-17T14:03:45Z</time>
      </trkpt>
      <trkpt lat="48.66004" lon="6.08255">
        <ele>411</ele>
        <time>2012-03-17T14:03:47Z</time>
      </trkpt>
      <trkpt lat="48.65996" lon="6.08257">
        <ele>410</ele>
        <time>2012-03-17T14:03:49Z</time>
      </trkpt>
      <trkpt lat="48.65987" lon="6.08259">
        <ele>410</ele>
        <time>2012-03-17T14:03:51Z</time>
      </trkpt>
      <trkpt lat="48.65976" lon="6.08262">
        <ele>411</ele>
        <time>2012-03-17T14:03:53Z</time>
      </trkpt>
      <trkpt lat="48.65966" lon="6.08265">
        <ele>409</ele>
        <time>2012-03-17T14:03:55Z</time>
      </trkpt>
      <trkpt lat="48.65958" lon="6.08268">
        <ele>409</ele>
        <time>2012-03-17T14:03:57Z</time>
      </trkpt>
      <trkpt lat="48.6595" lon="6.0827">
        <ele>409</ele>
        <time>2012-03-17T14:03:59Z</time>
      </trkpt>
      <trkpt lat="48.65941" lon="6.08273">
        <ele>411</ele>
        <time>2012-03-17T14:04:01Z</time>
      </trkpt>
      <trkpt lat="48.65932" lon="6.08275">
        <ele>410</ele>
        <time>2012-03-17T14:04:03Z</time>
      </trkpt>
      <trkpt lat="48.65923" lon="6.08279">
        <ele>411</ele>
        <time>2012-03-17T14:04:05Z</time>
      </trkpt>
      <trkpt lat="48.65913" lon="6.08281">
        <ele>407</ele>
        <time>2012-03-17T14:04:07Z</time>
      </trkpt>
      <trkpt lat="48.65903" lon="6.08283">
        <ele>407</ele>
        <time>2012-03-17T14:04:09Z</time>
      </trkpt>
      <trkpt lat="48.65895" lon="6.08285">
        <ele>408</ele>
        <time>2012-03-17T14:04:11Z</time>
      </trkpt>
      <trkpt lat="48.65885" lon="6.08288">
        <ele>408</ele>
        <time>2012-03-17T14:04:13Z</time>
      </trkpt>
      <trkpt lat="48.65875" lon="6.0829">
        <ele>409</ele>
        <time>2012-03-17T14:04:15Z</time>
      </trkpt>
      <trkpt lat="48.65865" lon="6.08294">
        <ele>407</ele>
        <time>2012-03-17T14:04:17Z</time>
      </trkpt>
      <trkpt lat="48.65856" lon="6.08297">
        <ele>408</ele>
        <time>2012-03-17T14:04:19Z</time>
      </trkpt>
      <trkpt lat="48.65847" lon="6.08301">
        <ele>409</ele>
        <time>2012-03-17T14:04:21Z</time>
      </trkpt>
      <trkpt lat="48.65837" lon="6.08304">
        <ele>409</ele>
        <time>2012-03-17T14:04:23Z</time>
      </trkpt>
      <trkpt lat="48.65826" lon="6.08307">
        <ele>409</ele>
        <time>2012-03-17T14:04:25Z</time>
      </trkpt>
      <trkpt lat="48.65815" lon="6.08311">
        <ele>406</ele>
        <time>2012-03-17T14:04:27Z</time>
      </trkpt>
      <trkpt lat="48.65803" lon="6.08316">
        <ele>406</ele>
        <time>2012-03-17T14:04:29Z</time>
      </trkpt>
      <trkpt lat="48.65791" lon="6.0832">
        <ele>404</ele>
        <time>2012-03-17T14:04:31Z</time>
      </trkpt>
      <trkpt lat="48.65778" lon="6.08324">
        <ele>403</ele>
        <time>2012-03-17T14:04:33Z</time>
      </trkpt>
      <trkpt lat="48.65767" lon="6.08326">
        <ele>407</ele>
        <time>2012-03-17T14:04:35Z</time>
      </trkpt>
      <trkpt lat="48.65755" lon="6.08329">
        <ele>405</ele>
        <time>2012-03-17T14:04:37Z</time>
      </trkpt>
      <trkpt lat="48.65743" lon="6.08334">
        <ele>405</ele>
        <time>2012-03-17T14:04:39Z</time>
      </trkpt>
      <trkpt lat="48.65729" lon="6.08337">
        <ele>403</ele>
        <time>2012-03-17T14:04:41Z</time>
      </trkpt>
      <trkpt lat="48.65716" lon="6.0834">
        <ele>403</ele>
        <time>2012-03-17T14:04:43Z</time>
      </trkpt>
      <trkpt lat="48.65704" lon="6.08343">
        <ele>403</ele>
        <time>2012-03-17T14:04:45Z</time>
      </trkpt>
      <trkpt lat="48.65691" lon="6.08346">
        <ele>405</ele>
        <time>2012-03-17T14:04:47Z</time>
      </trkpt>
      <trkpt lat="48.65678" lon="6.08349">
        <ele>402</ele>
        <time>2012-03-17T14:04:49Z</time>
      </trkpt>
      <trkpt lat="48.65664" lon="6.08354">
        <ele>398</ele>
        <time>2012-03-17T14:04:51Z</time>
      </trkpt>
      <trkpt lat="48.65649" lon="6.08359">
        <ele>397</ele>
        <time>2012-03-17T14:04:53Z</time>
      </trkpt>
      <trkpt lat="48.65632" lon="6.08364">
        <ele>394</ele>
        <time>2012-03-17T14:04:55Z</time>
      </trkpt>
      <trkpt lat="48.65617" lon="6.08369">
        <ele>392</ele>
        <time>2012-03-17T14:04:57Z</time>
      </trkpt>
      <trkpt lat="48.65601" lon="6.08374">
        <ele>391</ele>
        <time>2012-03-17T14:04:59Z</time>
      </trkpt>
      <trkpt lat="48.65585" lon="6.08378">
        <ele>390</ele>
        <time>2012-03-17T14:05:01Z</time>
      </trkpt>
      <trkpt lat="48.65572" lon="6.08384">
        <ele>394</ele>
        <time>2012-03-17T14:05:03Z</time>
      </trkpt>
      <trkpt lat="48.65559" lon="6.0839">
        <ele>395</ele>
        <time>2012-03-17T14:05:05Z</time>
      </trkpt>
      <trkpt lat="48.6555" lon="6.08394">
        <ele>397</ele>
        <time>2012-03-17T14:05:07Z</time>
      </trkpt>
      <trkpt lat="48.65541" lon="6.08398">
        <ele>401</ele>
        <time>2012-03-17T14:05:09Z</time>
      </trkpt>
      <trkpt lat="48.65532" lon="6.08401">
        <ele>398</ele>
        <time>2012-03-17T14:05:11Z</time>
      </trkpt>
      <trkpt lat="48.65525" lon="6.08403">
        <ele>396</ele>
        <time>2012-03-17T14:05:13Z</time>
      </trkpt>
      <trkpt lat="48.65521" lon="6.08405">
        <ele>395</ele>
        <time>2012-03-17T14:05:15Z</time>
      </trkpt>
      <trkpt lat="48.65515" lon="6.08406">
        <ele>397</ele>
        <time>2012-03-17T14:05:17Z</time>
      </trkpt>
      <trkpt lat="48.6551" lon="6.08407">
        <ele>401</ele>
        <time>2012-03-17T14:05:19Z</time>
      </trkpt>
      <trkpt lat="48.65504" lon="6.08409">
        <ele>404</ele>
        <time>2012-03-17T14:05:21Z</time>
      </trkpt>
      <trkpt lat="48.65498" lon="6.08411">
        <ele>404</ele>
        <time>2012-03-17T14:05:23Z</time>
      </trkpt>
      <trkpt lat="48.65491" lon="6.08413">
        <ele>404</ele>
        <time>2012-03-17T14:05:25Z</time>
      </trkpt>
      <trkpt lat="48.65485" lon="6.08415">
        <ele>403</ele>
        <time>2012-03-17T14:05:27Z</time>
      </trkpt>
      <trkpt lat="48.65482" lon="6.08416">
        <ele>404</ele>
        <time>2012-03-17T14:05:29Z</time>
      </trkpt>
      <trkpt lat="48.65477" lon="6.08417">
        <ele>404</ele>
        <time>2012-03-17T14:05:31Z</time>
      </trkpt>
      <trkpt lat="48.65471" lon="6.08419">
        <ele>405</ele>
        <time>2012-03-17T14:05:33Z</time>
      </trkpt>
      <trkpt lat="48.65466" lon="6.0842">
        <ele>405</ele>
        <time>2012-03-17T14:05:35Z</time>
      </trkpt>
      <trkpt lat="48.65461" lon="6.08422">
        <ele>406</ele>
        <time>2012-03-17T14:05:37Z</time>
      </trkpt>
      <trkpt lat="48.65456" lon="6.08423">
        <ele>407</ele>
        <time>2012-03-17T14:05:39Z</time>
      </trkpt>
      <trkpt lat="48.6545" lon="6.08425">
        <ele>407</ele>
        <time>2012-03-17T14:05:41Z</time>
      </trkpt>
      <trkpt lat="48.65445" lon="6.08426">
        <ele>409</ele>
        <time>2012-03-17T14:05:43Z</time>
      </trkpt>
      <trkpt lat="48.65441" lon="6.08427">
        <ele>412</ele>
        <time>2012-03-17T14:05:45Z</time>
      </trkpt>
      <trkpt lat="48.65437" lon="6.08429">
        <ele>413</ele>
        <time>2012-03-17T14:05:47Z</time>
      </trkpt>
      <trkpt lat="48.65432" lon="6.0843">
        <ele>410</ele>
        <time>2012-03-17T14:05:49Z</time>
      </trkpt>
      <trkpt lat="48.65427" lon="6.08431">
        <ele>411</ele>
        <time>2012-03-17T14:05:51Z</time>
      </trkpt>
      <trkpt lat="48.65417" lon="6.08433">
        <ele>409</ele>
        <time>2012-03-17T14:05:55Z</time>
      </trkpt>
      <trkpt lat="48.65413" lon="6.08433">
        <ele>412</ele>
        <time>2012-03-17T14:05:57Z</time>
      </trkpt>
      <trkpt lat="48.65407" lon="6.08434">
        <ele>410</ele>
        <time>2012-03-17T14:05:59Z</time>
      </trkpt>
      <trkpt lat="48.65401" lon="6.08435">
        <ele>411</ele>
        <time>2012-03-17T14:06:01Z</time>
      </trkpt>
      <trkpt lat="48.65395" lon="6.08437">
        <ele>413</ele>
        <time>2012-03-17T14:06:03Z</time>
      </trkpt>
      <trkpt lat="48.6539" lon="6.0844">
        <ele>415</ele>
        <time>2012-03-17T14:06:05Z</time>
      </trkpt>
      <trkpt lat="48.65385" lon="6.08442">
        <ele>415</ele>
        <time>2012-03-17T14:06:07Z</time>
      </trkpt>
      <trkpt lat="48.65379" lon="6.08444">
        <ele>415</ele>
        <time>2012-03-17T14:06:09Z</time>
      </trkpt>
      <trkpt lat="48.65374" lon="6.08446">
        <ele>413</ele>
        <time>2012-03-17T14:06:11Z</time>
      </trkpt>
      <trkpt lat="48.65368" lon="6.08447">
        <ele>412</ele>
        <time>2012-03-17T14:06:13Z</time>
      </trkpt>
      <trkpt lat="48.65362" lon="6.08449">
        <ele>412</ele>
        <time>2012-03-17T14:06:15Z</time>
      </trkpt>
      <trkpt lat="48.65356" lon="6.08451">
        <ele>410</ele>
        <time>2012-03-17T14:06:17Z</time>
      </trkpt>
      <trkpt lat="48.65351" lon="6.08453">
        <ele>409</ele>
        <time>2012-03-17T14:06:19Z</time>
      </trkpt>
      <trkpt lat="48.65345" lon="6.08456">
        <ele>410</ele>
        <time>2012-03-17T14:06:21Z</time>
      </trkpt>
      <trkpt lat="48.65338" lon="6.08458">
        <ele>411</ele>
        <time>2012-03-17T14:06:23Z</time>
      </trkpt>
      <trkpt lat="48.65331" lon="6.0846">
        <ele>411</ele>
        <time>2012-03-17T14:06:25Z</time>
      </trkpt>
      <trkpt lat="48.65325" lon="6.08461">
        <ele>410</ele>
        <time>2012-03-17T14:06:27Z</time>
      </trkpt>
      <trkpt lat="48.65319" lon="6.08465">
        <ele>411</ele>
        <time>2012-03-17T14:06:29Z</time>
      </trkpt>
      <trkpt lat="48.65314" lon="6.08467">
        <ele>411</ele>
        <time>2012-03-17T14:06:31Z</time>
      </trkpt>
      <trkpt lat="48.6531" lon="6.08468">
        <ele>412</ele>
        <time>2012-03-17T14:06:33Z</time>
      </trkpt>
      <trkpt lat="48.65305" lon="6.08469">
        <ele>412</ele>
        <time>2012-03-17T14:06:35Z</time>
      </trkpt>
      <trkpt lat="48.653" lon="6.0847">
        <ele>414</ele>
        <time>2012-03-17T14:06:37Z</time>
      </trkpt>
      <trkpt lat="48.65295" lon="6.08471">
        <ele>413</ele>
        <time>2012-03-17T14:06:39Z</time>
      </trkpt>
      <trkpt lat="48.6529" lon="6.08472">
        <ele>413</ele>
        <time>2012-03-17T14:06:41Z</time>
      </trkpt>
      <trkpt lat="48.65284" lon="6.08474">
        <ele>414</ele>
        <time>2012-03-17T14:06:43Z</time>
      </trkpt>
      <trkpt lat="48.65278" lon="6.08475">
        <ele>414</ele>
        <time>2012-03-17T14:06:45Z</time>
      </trkpt>
      <trkpt lat="48.65273" lon="6.08477">
        <ele>416</ele>
        <time>2012-03-17T14:06:47Z</time>
      </trkpt>
      <trkpt lat="48.65268" lon="6.08478">
        <ele>414</ele>
        <time>2012-03-17T14:06:49Z</time>
      </trkpt>
      <trkpt lat="48.65263" lon="6.08481">
        <ele>414</ele>
        <time>2012-03-17T14:06:51Z</time>
      </trkpt>
      <trkpt lat="48.65257" lon="6.08483">
        <ele>413</ele>
        <time>2012-03-17T14:06:53Z</time>
      </trkpt>
      <trkpt lat="48.6525" lon="6.08485">
        <ele>412</ele>
        <time>2012-03-17T14:06:55Z</time>
      </trkpt>
      <trkpt lat="48.65244" lon="6.08487">
        <ele>411</ele>
        <time>2012-03-17T14:06:57Z</time>
      </trkpt>
      <trkpt lat="48.65237" lon="6.08489">
        <ele>412</ele>
        <time>2012-03-17T14:06:59Z</time>
      </trkpt>
      <trkpt lat="48.65232" lon="6.08491">
        <ele>414</ele>
        <time>2012-03-17T14:07:01Z</time>
      </trkpt>
      <trkpt lat="48.65226" lon="6.08494">
        <ele>415</ele>
        <time>2012-03-17T14:07:03Z</time>
      </trkpt>
      <trkpt lat="48.65219" lon="6.08496">
        <ele>414</ele>
        <time>2012-03-17T14:07:05Z</time>
      </trkpt>
      <trkpt lat="48.65212" lon="6.08499">
        <ele>413</ele>
        <time>2012-03-17T14:07:07Z</time>
      </trkpt>
      <trkpt lat="48.65207" lon="6.08502">
        <ele>414</ele>
        <time>2012-03-17T14:07:09Z</time>
      </trkpt>
      <trkpt lat="48.65199" lon="6.08505">
        <ele>414</ele>
        <time>2012-03-17T14:07:11Z</time>
      </trkpt>
      <trkpt lat="48.65192" lon="6.08507">
        <ele>411</ele>
        <time>2012-03-17T14:07:13Z</time>
      </trkpt>
      <trkpt lat="48.65183" lon="6.08509">
        <ele>410</ele>
        <time>2012-03-17T14:07:15Z</time>
      </trkpt>
      <trkpt lat="48.65177" lon="6.08511">
        <ele>410</ele>
        <time>2012-03-17T14:07:17Z</time>
      </trkpt>
      <trkpt lat="48.6517" lon="6.08513">
        <ele>409</ele>
        <time>2012-03-17T14:07:19Z</time>
      </trkpt>
      <trkpt lat="48.65163" lon="6.08515">
        <ele>410</ele>
        <time>2012-03-17T14:07:21Z</time>
      </trkpt>
      <trkpt lat="48.65157" lon="6.08518">
        <ele>411</ele>
        <time>2012-03-17T14:07:23Z</time>
      </trkpt>
      <trkpt lat="48.65151" lon="6.0852">
        <ele>413</ele>
        <time>2012-03-17T14:07:25Z</time>
      </trkpt>
      <trkpt lat="48.65145" lon="6.08522">
        <ele>414</ele>
        <time>2012-03-17T14:07:27Z</time>
      </trkpt>
      <trkpt lat="48.65137" lon="6.08525">
        <ele>412</ele>
        <time>2012-03-17T14:07:29Z</time>
      </trkpt>
      <trkpt lat="48.65127" lon="6.08528">
        <ele>409</ele>
        <time>2012-03-17T14:07:31Z</time>
      </trkpt>
      <trkpt lat="48.65116" lon="6.08532">
        <ele>407</ele>
        <time>2012-03-17T14:07:33Z</time>
      </trkpt>
      <trkpt lat="48.65107" lon="6.08535">
        <ele>405</ele>
        <time>2012-03-17T14:07:35Z</time>
      </trkpt>
      <trkpt lat="48.65097" lon="6.08538">
        <ele>402</ele>
        <time>2012-03-17T14:07:37Z</time>
      </trkpt>
      <trkpt lat="48.65088" lon="6.0854">
        <ele>400</ele>
        <time>2012-03-17T14:07:39Z</time>
      </trkpt>
      <trkpt lat="48.65079" lon="6.08542">
        <ele>397</ele>
        <time>2012-03-17T14:07:41Z</time>
      </trkpt>
      <trkpt lat="48.6507" lon="6.08544">
        <ele>396</ele>
        <time>2012-03-17T14:07:43Z</time>
      </trkpt>
      <trkpt lat="48.65062" lon="6.08546">
        <ele>396</ele>
        <time>2012-03-17T14:07:45Z</time>
      </trkpt>
      <trkpt lat="48.65054" lon="6.08549">
        <ele>396</ele>
        <time>2012-03-17T14:07:47Z</time>
      </trkpt>
      <trkpt lat="48.65047" lon="6.08552">
        <ele>398</ele>
        <time>2012-03-17T14:07:49Z</time>
      </trkpt>
      <trkpt lat="48.6504" lon="6.08555">
        <ele>399</ele>
        <time>2012-03-17T14:07:51Z</time>
      </trkpt>
      <trkpt lat="48.65033" lon="6.08557">
        <ele>401</ele>
        <time>2012-03-17T14:07:53Z</time>
      </trkpt>
      <trkpt lat="48.65027" lon="6.08558">
        <ele>402</ele>
        <time>2012-03-17T14:07:55Z</time>
      </trkpt>
      <trkpt lat="48.65021" lon="6.08559">
        <ele>401</ele>
        <time>2012-03-17T14:07:57Z</time>
      </trkpt>
      <trkpt lat="48.65015" lon="6.0856">
        <ele>404</ele>
        <time>2012-03-17T14:07:59Z</time>
      </trkpt>
      <trkpt lat="48.65011" lon="6.08561">
        <ele>405</ele>
        <time>2012-03-17T14:08:01Z</time>
      </trkpt>
      <trkpt lat="48.65006" lon="6.08564">
        <ele>405</ele>
        <time>2012-03-17T14:08:03Z</time>
      </trkpt>
      <trkpt lat="48.65001" lon="6.08568">
        <ele>405</ele>
        <time>2012-03-17T14:08:05Z</time>
      </trkpt>
      <trkpt lat="48.65" lon="6.08573">
        <ele>398</ele>
        <time>2012-03-17T14:08:07Z</time>
      </trkpt>
      <trkpt lat="48.65" lon="6.08582">
        <ele>396</ele>
        <time>2012-03-17T14:08:09Z</time>
      </trkpt>
      <trkpt lat="48.65001" lon="6.08591">
        <ele>393</ele>
        <time>2012-03-17T14:08:11Z</time>
      </trkpt>
      <trkpt lat="48.65003" lon="6.086">
        <ele>392</ele>
        <time>2012-03-17T14:08:13Z</time>
      </trkpt>
      <trkpt lat="48.65005" lon="6.08609">
        <ele>390</ele>
        <time>2012-03-17T14:08:15Z</time>
      </trkpt>
      <trkpt lat="48.65007" lon="6.08619">
        <ele>390</ele>
        <time>2012-03-17T14:08:17Z</time>
      </trkpt>
      <trkpt lat="48.6501" lon="6.08628">
        <ele>390</ele>
        <time>2012-03-17T14:08:19Z</time>
      </trkpt>
      <trkpt lat="48.65013" lon="6.08638">
        <ele>389</ele>
        <time>2012-03-17T14:08:21Z</time>
      </trkpt>
      <trkpt lat="48.65016" lon="6.08649">
        <ele>388</ele>
        <time>2012-03-17T14:08:23Z</time>
      </trkpt>
      <trkpt lat="48.65019" lon="6.08659">
        <ele>388</ele>
        <time>2012-03-17T14:08:25Z</time>
      </trkpt>
      <trkpt lat="48.65021" lon="6.0867">
        <ele>388</ele>
        <time>2012-03-17T14:08:27Z</time>
      </trkpt>
      <trkpt lat="48.65024" lon="6.0868">
        <ele>388</ele>
        <time>2012-03-17T14:08:29Z</time>
      </trkpt>
      <trkpt lat="48.65027" lon="6.08692">
        <ele>387</ele>
        <time>2012-03-17T14:08:31Z</time>
      </trkpt>
      <trkpt lat="48.65029" lon="6.08703">
        <ele>388</ele>
        <time>2012-03-17T14:08:33Z</time>
      </trkpt>
      <trkpt lat="48.65032" lon="6.08714">
        <ele>387</ele>
        <time>2012-03-17T14:08:35Z</time>
      </trkpt>
      <trkpt lat="48.65035" lon="6.08726">
        <ele>388</ele>
        <time>2012-03-17T14:08:37Z</time>
      </trkpt>
      <trkpt lat="48.65039" lon="6.08738">
        <ele>388</ele>
        <time>2012-03-17T14:08:39Z</time>
      </trkpt>
      <trkpt lat="48.65042" lon="6.08751">
        <ele>388</ele>
        <time>2012-03-17T14:08:41Z</time>
      </trkpt>
      <trkpt lat="48.65045" lon="6.08763">
        <ele>387</ele>
        <time>2012-03-17T14:08:43Z</time>
      </trkpt>
      <trkpt lat="48.65048" lon="6.08775">
        <ele>387</ele>
        <time>2012-03-17T14:08:45Z</time>
      </trkpt>
      <trkpt lat="48.65051" lon="6.08786">
        <ele>389</ele>
        <time>2012-03-17T14:08:47Z</time>
      </trkpt>
      <trkpt lat="48.65055" lon="6.08797">
        <ele>392</ele>
        <time>2012-03-17T14:08:49Z</time>
      </trkpt>
      <trkpt lat="48.65058" lon="6.08808">
        <ele>395</ele>
        <time>2012-03-17T14:08:51Z</time>
      </trkpt>
      <trkpt lat="48.65061" lon="6.0882">
        <ele>396</ele>
        <time>2012-03-17T14:08:53Z</time>
      </trkpt>
      <trkpt lat="48.65064" lon="6.08833">
        <ele>396</ele>
        <time>2012-03-17T14:08:55Z</time>
      </trkpt>
      <trkpt lat="48.65066" lon="6.0884">
        <ele>396</ele>
        <time>2012-03-17T14:08:56Z</time>
      </trkpt>
      <trkpt lat="48.65067" lon="6.08847">
        <ele>396</ele>
        <time>2012-03-17T14:08:57Z</time>
      </trkpt>
      <trkpt lat="48.65068" lon="6.08854">
        <ele>396</ele>
        <time>2012-03-17T14:08:58Z</time>
      </trkpt>
      <trkpt lat="48.6507" lon="6.0886">
        <ele>396</ele>
        <time>2012-03-17T14:08:59Z</time>
      </trkpt>
      <trkpt lat="48.65073" lon="6.08874">
        <ele>395</ele>
        <time>2012-03-17T14:09:01Z</time>
      </trkpt>
      <trkpt lat="48.65077" lon="6.08888">
        <ele>395</ele>
        <time>2012-03-17T14:09:03Z</time>
      </trkpt>
      <trkpt lat="48.65081" lon="6.08903">
        <ele>394</ele>
        <time>2012-03-17T14:09:05Z</time>
      </trkpt>
      <trkpt lat="48.65085" lon="6.08918">
        <ele>394</ele>
        <time>2012-03-17T14:09:07Z</time>
      </trkpt>
      <trkpt lat="48.65088" lon="6.08932">
        <ele>396</ele>
        <time>2012-03-17T14:09:09Z</time>
      </trkpt>
      <trkpt lat="48.65091" lon="6.08948">
        <ele>394</ele>
        <time>2012-03-17T14:09:11Z</time>
      </trkpt>
      <trkpt lat="48.65093" lon="6.08964">
        <ele>394</ele>
        <time>2012-03-17T14:09:13Z</time>
      </trkpt>
      <trkpt lat="48.65095" lon="6.08981">
        <ele>393</ele>
        <time>2012-03-17T14:09:15Z</time>
      </trkpt>
      <trkpt lat="48.65096" lon="6.08998">
        <ele>393</ele>
        <time>2012-03-17T14:09:17Z</time>
      </trkpt>
      <trkpt lat="48.65098" lon="6.09015">
        <ele>392</ele>
        <time>2012-03-17T14:09:19Z</time>
      </trkpt>
      <trkpt lat="48.65099" lon="6.09033">
        <ele>391</ele>
        <time>2012-03-17T14:09:21Z</time>
      </trkpt>
      <trkpt lat="48.65099" lon="6.09051">
        <ele>392</ele>
        <time>2012-03-17T14:09:23Z</time>
      </trkpt>
      <trkpt lat="48.65101" lon="6.09068">
        <ele>392</ele>
        <time>2012-03-17T14:09:25Z</time>
      </trkpt>
      <trkpt lat="48.65102" lon="6.09085">
        <ele>393</ele>
        <time>2012-03-17T14:09:27Z</time>
      </trkpt>
      <trkpt lat="48.65103" lon="6.09104">
        <ele>393</ele>
        <time>2012-03-17T14:09:29Z</time>
      </trkpt>
      <trkpt lat="48.65104" lon="6.09122">
        <ele>391</ele>
        <time>2012-03-17T14:09:31Z</time>
      </trkpt>
      <trkpt lat="48.65107" lon="6.0914">
        <ele>392</ele>
        <time>2012-03-17T14:09:33Z</time>
      </trkpt>
      <trkpt lat="48.65109" lon="6.09158">
        <ele>392</ele>
        <time>2012-03-17T14:09:35Z</time>
      </trkpt>
      <trkpt lat="48.65112" lon="6.09176">
        <ele>391</ele>
        <time>2012-03-17T14:09:37Z</time>
      </trkpt>
      <trkpt lat="48.65115" lon="6.09195">
        <ele>391</ele>
        <time>2012-03-17T14:09:39Z</time>
      </trkpt>
      <trkpt lat="48.65119" lon="6.09214">
        <ele>390</ele>
        <time>2012-03-17T14:09:41Z</time>
      </trkpt>
      <trkpt lat="48.65124" lon="6.09234">
        <ele>389</ele>
        <time>2012-03-17T14:09:43Z</time>
      </trkpt>
      <trkpt lat="48.65128" lon="6.09253">
        <ele>389</ele>
        <time>2012-03-17T14:09:45Z</time>
      </trkpt>
      <trkpt lat="48.65133" lon="6.09273">
        <ele>389</ele>
        <time>2012-03-17T14:09:47Z</time>
      </trkpt>
      <trkpt lat="48.65138" lon="6.09291">
        <ele>390</ele>
        <time>2012-03-17T14:09:49Z</time>
      </trkpt>
      <trkpt lat="48.65145" lon="6.09312">
        <ele>389</ele>
        <time>2012-03-17T14:09:51Z</time>
      </trkpt>
      <trkpt lat="48.65152" lon="6.09333">
        <ele>389</ele>
        <time>2012-03-17T14:09:53Z</time>
      </trkpt>
      <trkpt lat="48.65157" lon="6.09355">
        <ele>389</ele>
        <time>2012-03-17T14:09:55Z</time>
      </trkpt>
      <trkpt lat="48.65163" lon="6.09378">
        <ele>387</ele>
        <time>2012-03-17T14:09:57Z</time>
      </trkpt>
      <trkpt lat="48.6517" lon="6.09401">
        <ele>387</ele>
        <time>2012-03-17T14:09:59Z</time>
      </trkpt>
      <trkpt lat="48.65175" lon="6.09423">
        <ele>387</ele>
        <time>2012-03-17T14:10:01Z</time>
      </trkpt>
      <trkpt lat="48.65181" lon="6.09446">
        <ele>387</ele>
        <time>2012-03-17T14:10:03Z</time>
      </trkpt>
      <trkpt lat="48.65187" lon="6.09469">
        <ele>387</ele>
        <time>2012-03-17T14:10:05Z</time>
      </trkpt>
      <trkpt lat="48.65194" lon="6.09492">
        <ele>385</ele>
        <time>2012-03-17T14:10:07Z</time>
      </trkpt>
      <trkpt lat="48.652" lon="6.09516">
        <ele>385</ele>
        <time>2012-03-17T14:10:09Z</time>
      </trkpt>
      <trkpt lat="48.65206" lon="6.0954">
        <ele>384</ele>
        <time>2012-03-17T14:10:11Z</time>
      </trkpt>
      <trkpt lat="48.65213" lon="6.09563">
        <ele>384</ele>
        <time>2012-03-17T14:10:13Z</time>
      </trkpt>
      <trkpt lat="48.65221" lon="6.09587">
        <ele>384</ele>
        <time>2012-03-17T14:10:15Z</time>
      </trkpt>
      <trkpt lat="48.6523" lon="6.0961">
        <ele>383</ele>
        <time>2012-03-17T14:10:17Z</time>
      </trkpt>
      <trkpt lat="48.65239" lon="6.09635">
        <ele>382</ele>
        <time>2012-03-17T14:10:19Z</time>
      </trkpt>
      <trkpt lat="48.65249" lon="6.09659">
        <ele>382</ele>
        <time>2012-03-17T14:10:21Z</time>
      </trkpt>
      <trkpt lat="48.65259" lon="6.09683">
        <ele>382</ele>
        <time>2012-03-17T14:10:23Z</time>
      </trkpt>
      <trkpt lat="48.65269" lon="6.09709">
        <ele>381</ele>
        <time>2012-03-17T14:10:25Z</time>
      </trkpt>
      <trkpt lat="48.6528" lon="6.09735">
        <ele>381</ele>
        <time>2012-03-17T14:10:27Z</time>
      </trkpt>
      <trkpt lat="48.6529" lon="6.09763">
        <ele>380</ele>
        <time>2012-03-17T14:10:29Z</time>
      </trkpt>
      <trkpt lat="48.653" lon="6.09792">
        <ele>378</ele>
        <time>2012-03-17T14:10:31Z</time>
      </trkpt>
      <trkpt lat="48.65309" lon="6.09821">
        <ele>377</ele>
        <time>2012-03-17T14:10:33Z</time>
      </trkpt>
      <trkpt lat="48.65318" lon="6.09851">
        <ele>378</ele>
        <time>2012-03-17T14:10:35Z</time>
      </trkpt>
      <trkpt lat="48.65326" lon="6.09882">
        <ele>377</ele>
        <time>2012-03-17T14:10:37Z</time>
      </trkpt>
      <trkpt lat="48.65335" lon="6.09914">
        <ele>377</ele>
        <time>2012-03-17T14:10:39Z</time>
      </trkpt>
      <trkpt lat="48.65343" lon="6.09946">
        <ele>380</ele>
        <time>2012-03-17T14:10:41Z</time>
      </trkpt>
      <trkpt lat="48.65351" lon="6.09981">
        <ele>379</ele>
        <time>2012-03-17T14:10:43Z</time>
      </trkpt>
      <trkpt lat="48.65357" lon="6.10018">
        <ele>378</ele>
        <time>2012-03-17T14:10:45Z</time>
      </trkpt>
      <trkpt lat="48.65362" lon="6.10057">
        <ele>376</ele>
        <time>2012-03-17T14:10:47Z</time>
      </trkpt>
      <trkpt lat="48.65366" lon="6.10099">
        <ele>372</ele>
        <time>2012-03-17T14:10:49Z</time>
      </trkpt>
      <trkpt lat="48.65369" lon="6.10142">
        <ele>371</ele>
        <time>2012-03-17T14:10:51Z</time>
      </trkpt>
      <trkpt lat="48.65375" lon="6.10189">
        <ele>368</ele>
        <time>2012-03-17T14:10:53Z</time>
      </trkpt>
      <trkpt lat="48.65382" lon="6.10237">
        <ele>364</ele>
        <time>2012-03-17T14:10:55Z</time>
      </trkpt>
      <trkpt lat="48.65392" lon="6.10284">
        <ele>360</ele>
        <time>2012-03-17T14:10:57Z</time>
      </trkpt>
      <trkpt lat="48.65403" lon="6.10327">
        <ele>362</ele>
        <time>2012-03-17T14:10:59Z</time>
      </trkpt>
      <trkpt lat="48.65416" lon="6.10368">
        <ele>365</ele>
        <time>2012-03-17T14:11:01Z</time>
      </trkpt>
      <trkpt lat="48.65429" lon="6.10408">
        <ele>365</ele>
        <time>2012-03-17T14:11:03Z</time>
      </trkpt>
      <trkpt lat="48.65443" lon="6.10448">
        <ele>361</ele>
        <time>2012-03-17T14:11:05Z</time>
      </trkpt>
      <trkpt lat="48.65457" lon="6.10485">
        <ele>360</ele>
        <time>2012-03-17T14:11:07Z</time>
      </trkpt>
      <trkpt lat="48.65469" lon="6.10521">
        <ele>360</ele>
        <time>2012-03-17T14:11:09Z</time>
      </trkpt>
      <trkpt lat="48.65481" lon="6.10555">
        <ele>364</ele>
        <time>2012-03-17T14:11:11Z</time>
      </trkpt>
      <trkpt lat="48.65491" lon="6.10589">
        <ele>362</ele>
        <time>2012-03-17T14:11:13Z</time>
      </trkpt>
      <trkpt lat="48.655" lon="6.10622">
        <ele>362</ele>
        <time>2012-03-17T14:11:15Z</time>
      </trkpt>
      <trkpt lat="48.65508" lon="6.10655">
        <ele>362</ele>
        <time>2012-03-17T14:11:17Z</time>
      </trkpt>
      <trkpt lat="48.65513" lon="6.10688">
        <ele>359</ele>
        <time>2012-03-17T14:11:19Z</time>
      </trkpt>
      <trkpt lat="48.65519" lon="6.1072">
        <ele>358</ele>
        <time>2012-03-17T14:11:21Z</time>
      </trkpt>
      <trkpt lat="48.65525" lon="6.10749">
        <ele>358</ele>
        <time>2012-03-17T14:11:23Z</time>
      </trkpt>
      <trkpt lat="48.65533" lon="6.10776">
        <ele>357</ele>
        <time>2012-03-17T14:11:25Z</time>
      </trkpt>
      <trkpt lat="48.65542" lon="6.10802">
        <ele>356</ele>
        <time>2012-03-17T14:11:27Z</time>
      </trkpt>
      <trkpt lat="48.65552" lon="6.10828">
        <ele>354</ele>
        <time>2012-03-17T14:11:29Z</time>
      </trkpt>
      <trkpt lat="48.65562" lon="6.10853">
        <ele>353</ele>
        <time>2012-03-17T14:11:31Z</time>
      </trkpt>
      <trkpt lat="48.65572" lon="6.10878">
        <ele>352</ele>
        <time>2012-03-17T14:11:33Z</time>
      </trkpt>
      <trkpt lat="48.65582" lon="6.10903">
        <ele>351</ele>
        <time>2012-03-17T14:11:35Z</time>
      </trkpt>
      <trkpt lat="48.65593" lon="6.10927">
        <ele>351</ele>
        <time>2012-03-17T14:11:37Z</time>
      </trkpt>
      <trkpt lat="48.65604" lon="6.10952">
        <ele>351</ele>
        <time>2012-03-17T14:11:39Z</time>
      </trkpt>
      <trkpt lat="48.65615" lon="6.10977">
        <ele>350</ele>
        <time>2012-03-17T14:11:41Z</time>
      </trkpt>
      <trkpt lat="48.65626" lon="6.11002">
        <ele>349</ele>
        <time>2012-03-17T14:11:43Z</time>
      </trkpt>
      <trkpt lat="48.65638" lon="6.11029">
        <ele>350</ele>
        <time>2012-03-17T14:11:45Z</time>
      </trkpt>
      <trkpt lat="48.65649" lon="6.11055">
        <ele>349</ele>
        <time>2012-03-17T14:11:47Z</time>
      </trkpt>
      <trkpt lat="48.6566" lon="6.11081">
        <ele>347</ele>
        <time>2012-03-17T14:11:49Z</time>
      </trkpt>
      <trkpt lat="48.65671" lon="6.11106">
        <ele>349</ele>
        <time>2012-03-17T14:11:51Z</time>
      </trkpt>
      <trkpt lat="48.65682" lon="6.11128">
        <ele>350</ele>
        <time>2012-03-17T14:11:53Z</time>
      </trkpt>
      <trkpt lat="48.6569" lon="6.11148">
        <ele>347</ele>
        <time>2012-03-17T14:11:55Z</time>
      </trkpt>
      <trkpt lat="48.65698" lon="6.11165">
        <ele>345</ele>
        <time>2012-03-17T14:11:57Z</time>
      </trkpt>
      <trkpt lat="48.65701" lon="6.11173">
        <ele>344</ele>
        <time>2012-03-17T14:11:59Z</time>
      </trkpt>
      <trkpt lat="48.65702" lon="6.11176">
        <ele>343</ele>
        <time>2012-03-17T14:12:01Z</time>
      </trkpt>
      <trkpt lat="48.65704" lon="6.1118">
        <ele>343</ele>
        <time>2012-03-17T14:12:03Z</time>
      </trkpt>
      <trkpt lat="48.65706" lon="6.11185">
        <ele>343</ele>
        <time>2012-03-17T14:12:05Z</time>
      </trkpt>
      <trkpt lat="48.65709" lon="6.11192">
        <ele>343</ele>
        <time>2012-03-17T14:12:07Z</time>
      </trkpt>
      <trkpt lat="48.65713" lon="6.112">
        <ele>341</ele>
        <time>2012-03-17T14:12:09Z</time>
      </trkpt>
      <trkpt lat="48.65719" lon="6.11203">
        <ele>342</ele>
        <time>2012-03-17T14:12:11Z</time>
      </trkpt>
      <trkpt lat="48.65726" lon="6.11204">
        <ele>344</ele>
        <time>2012-03-17T14:12:13Z</time>
      </trkpt>
      <trkpt lat="48.65732" lon="6.11213">
        <ele>343</ele>
        <time>2012-03-17T14:12:15Z</time>
      </trkpt>
      <trkpt lat="48.65737" lon="6.11224">
        <ele>341</ele>
        <time>2012-03-17T14:12:17Z</time>
      </trkpt>
      <trkpt lat="48.65742" lon="6.11236">
        <ele>339</ele>
        <time>2012-03-17T14:12:19Z</time>
      </trkpt>
      <trkpt lat="48.65747" lon="6.11249">
        <ele>338</ele>
        <time>2012-03-17T14:12:21Z</time>
      </trkpt>
      <trkpt lat="48.65752" lon="6.11262">
        <ele>338</ele>
        <time>2012-03-17T14:12:23Z</time>
      </trkpt>
      <trkpt lat="48.65757" lon="6.11274">
        <ele>337</ele>
        <time>2012-03-17T14:12:25Z</time>
      </trkpt>
      <trkpt lat="48.65763" lon="6.11287">
        <ele>336</ele>
        <time>2012-03-17T14:12:27Z</time>
      </trkpt>
      <trkpt lat="48.65769" lon="6.11301">
        <ele>336</ele>
        <time>2012-03-17T14:12:29Z</time>
      </trkpt>
      <trkpt lat="48.65775" lon="6.11315">
        <ele>336</ele>
        <time>2012-03-17T14:12:31Z</time>
      </trkpt>
      <trkpt lat="48.65781" lon="6.1133">
        <ele>336</ele>
        <time>2012-03-17T14:12:33Z</time>
      </trkpt>
      <trkpt lat="48.65787" lon="6.11345">
        <ele>335</ele>
        <time>2012-03-17T14:12:35Z</time>
      </trkpt>
      <trkpt lat="48.65794" lon="6.11361">
        <ele>335</ele>
        <time>2012-03-17T14:12:37Z</time>
      </trkpt>
      <trkpt lat="48.65801" lon="6.11378">
        <ele>335</ele>
        <time>2012-03-17T14:12:39Z</time>
      </trkpt>
      <trkpt lat="48.65809" lon="6.11397">
        <ele>334</ele>
        <time>2012-03-17T14:12:41Z</time>
      </trkpt>
      <trkpt lat="48.65818" lon="6.11416">
        <ele>333</ele>
        <time>2012-03-17T14:12:43Z</time>
      </trkpt>
      <trkpt lat="48.65825" lon="6.11432">
        <ele>333</ele>
        <time>2012-03-17T14:12:45Z</time>
      </trkpt>
      <trkpt lat="48.65831" lon="6.11447">
        <ele>337</ele>
        <time>2012-03-17T14:12:47Z</time>
      </trkpt>
      <trkpt lat="48.65836" lon="6.11456">
        <ele>335</ele>
        <time>2012-03-17T14:12:49Z</time>
      </trkpt>
      <trkpt lat="48.65841" lon="6.11461">
        <ele>337</ele>
        <time>2012-03-17T14:12:51Z</time>
      </trkpt>
      <trkpt lat="48.65844" lon="6.11464">
        <ele>338</ele>
        <time>2012-03-17T14:12:53Z</time>
      </trkpt>
      <trkpt lat="48.6585" lon="6.11468">
        <ele>335</ele>
        <time>2012-03-17T14:12:57Z</time>
      </trkpt>
      <trkpt lat="48.65853" lon="6.11475">
        <ele>335</ele>
        <time>2012-03-17T14:12:59Z</time>
      </trkpt>
      <trkpt lat="48.65853" lon="6.1148">
        <ele>336</ele>
        <time>2012-03-17T14:13:01Z</time>
      </trkpt>
      <trkpt lat="48.65854" lon="6.11489">
        <ele>339</ele>
        <time>2012-03-17T14:13:03Z</time>
      </trkpt>
      <trkpt lat="48.65857" lon="6.11501">
        <ele>338</ele>
        <time>2012-03-17T14:13:05Z</time>
      </trkpt>
      <trkpt lat="48.65861" lon="6.11515">
        <ele>336</ele>
        <time>2012-03-17T14:13:07Z</time>
      </trkpt>
      <trkpt lat="48.65865" lon="6.1153">
        <ele>335</ele>
        <time>2012-03-17T14:13:09Z</time>
      </trkpt>
      <trkpt lat="48.6587" lon="6.11548">
        <ele>334</ele>
        <time>2012-03-17T14:13:11Z</time>
      </trkpt>
      <trkpt lat="48.65875" lon="6.11568">
        <ele>331</ele>
        <time>2012-03-17T14:13:13Z</time>
      </trkpt>
      <trkpt lat="48.65879" lon="6.11591">
        <ele>328</ele>
        <time>2012-03-17T14:13:15Z</time>
      </trkpt>
      <trkpt lat="48.65883" lon="6.11614">
        <ele>327</ele>
        <time>2012-03-17T14:13:17Z</time>
      </trkpt>
      <trkpt lat="48.65886" lon="6.11639">
        <ele>325</ele>
        <time>2012-03-17T14:13:19Z</time>
      </trkpt>
      <trkpt lat="48.65888" lon="6.11665">
        <ele>325</ele>
        <time>2012-03-17T14:13:21Z</time>
      </trkpt>
      <trkpt lat="48.6589" lon="6.11691">
        <ele>325</ele>
        <time>2012-03-17T14:13:23Z</time>
      </trkpt>
      <trkpt lat="48.65892" lon="6.11716">
        <ele>324</ele>
        <time>2012-03-17T14:13:25Z</time>
      </trkpt>
      <trkpt lat="48.65894" lon="6.11739">
        <ele>324</ele>
        <time>2012-03-17T14:13:27Z</time>
      </trkpt>
      <trkpt lat="48.65895" lon="6.11761">
        <ele>324</ele>
        <time>2012-03-17T14:13:29Z</time>
      </trkpt>
      <trkpt lat="48.65894" lon="6.11782">
        <ele>323</ele>
        <time>2012-03-17T14:13:31Z</time>
      </trkpt>
      <trkpt lat="48.65893" lon="6.118">
        <ele>322</ele>
        <time>2012-03-17T14:13:33Z</time>
      </trkpt>
      <trkpt lat="48.65892" lon="6.11814">
        <ele>322</ele>
        <time>2012-03-17T14:13:35Z</time>
      </trkpt>
      <trkpt lat="48.6589" lon="6.11823">
        <ele>321</ele>
        <time>2012-03-17T14:13:37Z</time>
      </trkpt>
      <trkpt lat="48.65888" lon="6.11829">
        <ele>323</ele>
        <time>2012-03-17T14:13:39Z</time>
      </trkpt>
      <trkpt lat="48.65886" lon="6.11836">
        <ele>322</ele>
        <time>2012-03-17T14:13:41Z</time>
      </trkpt>
      <trkpt lat="48.65884" lon="6.1184">
        <ele>324</ele>
        <time>2012-03-17T14:13:43Z</time>
      </trkpt>
      <trkpt lat="48.65884" lon="6.11844">
        <ele>322</ele>
        <time>2012-03-17T14:13:45Z</time>
      </trkpt>
      <trkpt lat="48.65883" lon="6.11849">
        <ele>324</ele>
        <time>2012-03-17T14:13:47Z</time>
      </trkpt>
      <trkpt lat="48.65882" lon="6.11855">
        <ele>326</ele>
        <time>2012-03-17T14:13:49Z</time>
      </trkpt>
      <trkpt lat="48.6588" lon="6.11861">
        <ele>325</ele>
        <time>2012-03-17T14:13:51Z</time>
      </trkpt>
      <trkpt lat="48.65879" lon="6.11866">
        <ele>327</ele>
        <time>2012-03-17T14:13:53Z</time>
      </trkpt>
      <trkpt lat="48.65878" lon="6.11871">
        <ele>327</ele>
        <time>2012-03-17T14:13:55Z</time>
      </trkpt>
      <trkpt lat="48.65876" lon="6.11877">
        <ele>326</ele>
        <time>2012-03-17T14:13:57Z</time>
      </trkpt>
      <trkpt lat="48.65874" lon="6.11882">
        <ele>327</ele>
        <time>2012-03-17T14:13:59Z</time>
      </trkpt>
      <trkpt lat="48.65873" lon="6.11887">
        <ele>329</ele>
        <time>2012-03-17T14:14:01Z</time>
      </trkpt>
      <trkpt lat="48.65871" lon="6.11894">
        <ele>327</ele>
        <time>2012-03-17T14:14:03Z</time>
      </trkpt>
      <trkpt lat="48.6587" lon="6.11902">
        <ele>324</ele>
        <time>2012-03-17T14:14:05Z</time>
      </trkpt>
      <trkpt lat="48.65868" lon="6.1191">
        <ele>325</ele>
        <time>2012-03-17T14:14:07Z</time>
      </trkpt>
      <trkpt lat="48.65867" lon="6.11916">
        <ele>325</ele>
        <time>2012-03-17T14:14:09Z</time>
      </trkpt>
      <trkpt lat="48.65865" lon="6.11922">
        <ele>323</ele>
        <time>2012-03-17T14:14:11Z</time>
      </trkpt>
      <trkpt lat="48.65863" lon="6.11929">
        <ele>322</ele>
        <time>2012-03-17T14:14:13Z</time>
      </trkpt>
      <trkpt lat="48.65862" lon="6.11935">
        <ele>323</ele>
        <time>2012-03-17T14:14:15Z</time>
      </trkpt>
      <trkpt lat="48.6586" lon="6.11941">
        <ele>326</ele>
        <time>2012-03-17T14:14:17Z</time>
      </trkpt>
      <trkpt lat="48.65859" lon="6.11946">
        <ele>328</ele>
        <time>2012-03-17T14:14:19Z</time>
      </trkpt>
      <trkpt lat="48.65857" lon="6.11951">
        <ele>331</ele>
        <time>2012-03-17T14:14:21Z</time>
      </trkpt>
      <trkpt lat="48.65856" lon="6.11957">
        <ele>332</ele>
        <time>2012-03-17T14:14:23Z</time>
      </trkpt>
      <trkpt lat="48.65854" lon="6.11963">
        <ele>331</ele>
        <time>2012-03-17T14:14:25Z</time>
      </trkpt>
      <trkpt lat="48.65853" lon="6.11971">
        <ele>329</ele>
        <time>2012-03-17T14:14:27Z</time>
      </trkpt>
      <trkpt lat="48.65851" lon="6.11977">
        <ele>330</ele>
        <time>2012-03-17T14:14:29Z</time>
      </trkpt>
      <trkpt lat="48.65849" lon="6.11984">
        <ele>329</ele>
        <time>2012-03-17T14:14:31Z</time>
      </trkpt>
      <trkpt lat="48.65847" lon="6.11991">
        <ele>328</ele>
        <time>2012-03-17T14:14:33Z</time>
      </trkpt>
      <trkpt lat="48.65846" lon="6.11997">
        <ele>329</ele>
        <time>2012-03-17T14:14:35Z</time>
      </trkpt>
      <trkpt lat="48.65844" lon="6.12003">
        <ele>330</ele>
        <time>2012-03-17T14:14:37Z</time>
      </trkpt>
      <trkpt lat="48.65843" lon="6.12009">
        <ele>331</ele>
        <time>2012-03-17T14:14:39Z</time>
      </trkpt>
      <trkpt lat="48.65841" lon="6.12015">
        <ele>333</ele>
        <time>2012-03-17T14:14:41Z</time>
      </trkpt>
      <trkpt lat="48.6584" lon="6.12021">
        <ele>333</ele>
        <time>2012-03-17T14:14:43Z</time>
      </trkpt>
      <trkpt lat="48.65839" lon="6.12028">
        <ele>334</ele>
        <time>2012-03-17T14:14:45Z</time>
      </trkpt>
      <trkpt lat="48.65838" lon="6.12034">
        <ele>335</ele>
        <time>2012-03-17T14:14:47Z</time>
      </trkpt>
      <trkpt lat="48.65838" lon="6.1204">
        <ele>337</ele>
        <time>2012-03-17T14:14:49Z</time>
      </trkpt>
      <trkpt lat="48.65838" lon="6.12047">
        <ele>337</ele>
        <time>2012-03-17T14:14:51Z</time>
      </trkpt>
      <trkpt lat="48.65839" lon="6.12055">
        <ele>338</ele>
        <time>2012-03-17T14:14:53Z</time>
      </trkpt>
      <trkpt lat="48.65839" lon="6.12062">
        <ele>339</ele>
        <time>2012-03-17T14:14:55Z</time>
      </trkpt>
      <trkpt lat="48.6584" lon="6.12069">
        <ele>341</ele>
        <time>2012-03-17T14:14:57Z</time>
      </trkpt>
      <trkpt lat="48.65841" lon="6.12075">
        <ele>342</ele>
        <time>2012-03-17T14:14:59Z</time>
      </trkpt>
      <trkpt lat="48.65841" lon="6.12082">
        <ele>343</ele>
        <time>2012-03-17T14:15:01Z</time>
      </trkpt>
      <trkpt lat="48.65842" lon="6.12089">
        <ele>344</ele>
        <time>2012-03-17T14:15:03Z</time>
      </trkpt>
      <trkpt lat="48.65844" lon="6.12097">
        <ele>343</ele>
        <time>2012-03-17T14:15:05Z</time>
      </trkpt>
      <trkpt lat="48.65845" lon="6.12105">
        <ele>344</ele>
        <time>2012-03-17T14:15:07Z</time>
      </trkpt>
      <trkpt lat="48.65846" lon="6.12112">
        <ele>344</ele>
        <time>2012-03-17T14:15:09Z</time>
      </trkpt>
      <trkpt lat="48.65847" lon="6.1212">
        <ele>343</ele>
        <time>2012-03-17T14:15:11Z</time>
      </trkpt>
      <trkpt lat="48.65849" lon="6.12129">
        <ele>342</ele>
        <time>2012-03-17T14:15:13Z</time>
      </trkpt>
      <trkpt lat="48.6585" lon="6.12136">
        <ele>341</ele>
        <time>2012-03-17T14:15:15Z</time>
      </trkpt>
      <trkpt lat="48.65852" lon="6.12145">
        <ele>341</ele>
        <time>2012-03-17T14:15:17Z</time>
      </trkpt>
      <trkpt lat="48.65854" lon="6.12152">
        <ele>342</ele>
        <time>2012-03-17T14:15:19Z</time>
      </trkpt>
      <trkpt lat="48.65855" lon="6.1216">
        <ele>342</ele>
        <time>2012-03-17T14:15:21Z</time>
      </trkpt>
      <trkpt lat="48.65856" lon="6.12167">
        <ele>346</ele>
        <time>2012-03-17T14:15:23Z</time>
      </trkpt>
      <trkpt lat="48.65858" lon="6.12174">
        <ele>352</ele>
        <time>2012-03-17T14:15:25Z</time>
      </trkpt>
      <trkpt lat="48.6586" lon="6.12182">
        <ele>349</ele>
        <time>2012-03-17T14:15:27Z</time>
      </trkpt>
      <trkpt lat="48.65862" lon="6.12191">
        <ele>348</ele>
        <time>2012-03-17T14:15:29Z</time>
      </trkpt>
      <trkpt lat="48.65863" lon="6.12199">
        <ele>348</ele>
        <time>2012-03-17T14:15:31Z</time>
      </trkpt>
      <trkpt lat="48.65865" lon="6.12209">
        <ele>347</ele>
        <time>2012-03-17T14:15:33Z</time>
      </trkpt>
      <trkpt lat="48.65868" lon="6.12218">
        <ele>347</ele>
        <time>2012-03-17T14:15:35Z</time>
      </trkpt>
      <trkpt lat="48.6587" lon="6.12227">
        <ele>346</ele>
        <time>2012-03-17T14:15:37Z</time>
      </trkpt>
      <trkpt lat="48.65873" lon="6.12234">
        <ele>350</ele>
        <time>2012-03-17T14:15:39Z</time>
      </trkpt>
      <trkpt lat="48.65876" lon="6.12242">
        <ele>349</ele>
        <time>2012-03-17T14:15:41Z</time>
      </trkpt>
      <trkpt lat="48.65878" lon="6.12249">
        <ele>349</ele>
        <time>2012-03-17T14:15:43Z</time>
      </trkpt>
      <trkpt lat="48.65881" lon="6.12258">
        <ele>347</ele>
        <time>2012-03-17T14:15:45Z</time>
      </trkpt>
      <trkpt lat="48.65883" lon="6.12267">
        <ele>348</ele>
        <time>2012-03-17T14:15:47Z</time>
      </trkpt>
      <trkpt lat="48.65886" lon="6.12275">
        <ele>347</ele>
        <time>2012-03-17T14:15:49Z</time>
      </trkpt>
      <trkpt lat="48.65889" lon="6.12284">
        <ele>348</ele>
        <time>2012-03-17T14:15:51Z</time>
      </trkpt>
      <trkpt lat="48.65891" lon="6.12292">
        <ele>348</ele>
        <time>2012-03-17T14:15:53Z</time>
      </trkpt>
      <trkpt lat="48.65893" lon="6.12301">
        <ele>349</ele>
        <time>2012-03-17T14:15:55Z</time>
      </trkpt>
      <trkpt lat="48.65896" lon="6.12308">
        <ele>351</ele>
        <time>2012-03-17T14:15:57Z</time>
      </trkpt>
      <trkpt lat="48.65899" lon="6.12315">
        <ele>356</ele>
        <time>2012-03-17T14:15:59Z</time>
      </trkpt>
      <trkpt lat="48.65902" lon="6.12322">
        <ele>360</ele>
        <time>2012-03-17T14:16:01Z</time>
      </trkpt>
      <trkpt lat="48.65904" lon="6.1233">
        <ele>360</ele>
        <time>2012-03-17T14:16:03Z</time>
      </trkpt>
      <trkpt lat="48.65907" lon="6.12338">
        <ele>360</ele>
        <time>2012-03-17T14:16:05Z</time>
      </trkpt>
      <trkpt lat="48.6591" lon="6.12346">
        <ele>360</ele>
        <time>2012-03-17T14:16:07Z</time>
      </trkpt>
      <trkpt lat="48.65912" lon="6.12353">
        <ele>362</ele>
        <time>2012-03-17T14:16:09Z</time>
      </trkpt>
      <trkpt lat="48.65915" lon="6.1236">
        <ele>363</ele>
        <time>2012-03-17T14:16:11Z</time>
      </trkpt>
      <trkpt lat="48.65918" lon="6.12368">
        <ele>360</ele>
        <time>2012-03-17T14:16:13Z</time>
      </trkpt>
      <trkpt lat="48.65921" lon="6.12377">
        <ele>356</ele>
        <time>2012-03-17T14:16:15Z</time>
      </trkpt>
      <trkpt lat="48.65923" lon="6.12386">
        <ele>357</ele>
        <time>2012-03-17T14:16:17Z</time>
      </trkpt>
      <trkpt lat="48.65925" lon="6.12395">
        <ele>358</ele>
        <time>2012-03-17T14:16:19Z</time>
      </trkpt>
      <trkpt lat="48.65927" lon="6.12404">
        <ele>358</ele>
        <time>2012-03-17T14:16:21Z</time>
      </trkpt>
      <trkpt lat="48.65929" lon="6.12413">
        <ele>359</ele>
        <time>2012-03-17T14:16:23Z</time>
      </trkpt>
      <trkpt lat="48.65931" lon="6.12422">
        <ele>360</ele>
        <time>2012-03-17T14:16:25Z</time>
      </trkpt>
      <trkpt lat="48.65933" lon="6.12431">
        <ele>360</ele>
        <time>2012-03-17T14:16:27Z</time>
      </trkpt>
      <trkpt lat="48.65936" lon="6.12441">
        <ele>356</ele>
        <time>2012-03-17T14:16:29Z</time>
      </trkpt>
      <trkpt lat="48.65937" lon="6.1245">
        <ele>356</ele>
        <time>2012-03-17T14:16:31Z</time>
      </trkpt>
      <trkpt lat="48.6594" lon="6.12458">
        <ele>358</ele>
        <time>2012-03-17T14:16:33Z</time>
      </trkpt>
      <trkpt lat="48.65942" lon="6.12467">
        <ele>358</ele>
        <time>2012-03-17T14:16:35Z</time>
      </trkpt>
      <trkpt lat="48.65945" lon="6.12476">
        <ele>359</ele>
        <time>2012-03-17T14:16:37Z</time>
      </trkpt>
      <trkpt lat="48.65948" lon="6.12485">
        <ele>359</ele>
        <time>2012-03-17T14:16:39Z</time>
      </trkpt>
      <trkpt lat="48.65951" lon="6.12494">
        <ele>359</ele>
        <time>2012-03-17T14:16:41Z</time>
      </trkpt>
      <trkpt lat="48.65955" lon="6.12503">
        <ele>359</ele>
        <time>2012-03-17T14:16:43Z</time>
      </trkpt>
      <trkpt lat="48.65958" lon="6.12512">
        <ele>357</ele>
        <time>2012-03-17T14:16:45Z</time>
      </trkpt>
      <trkpt lat="48.65961" lon="6.12521">
        <ele>355</ele>
        <time>2012-03-17T14:16:47Z</time>
      </trkpt>
      <trkpt lat="48.65966" lon="6.1253">
        <ele>355</ele>
        <time>2012-03-17T14:16:49Z</time>
      </trkpt>
      <trkpt lat="48.6597" lon="6.12538">
        <ele>355</ele>
        <time>2012-03-17T14:16:51Z</time>
      </trkpt>
      <trkpt lat="48.65972" lon="6.12541">
        <ele>355</ele>
        <time>2012-03-17T14:16:52Z</time>
      </trkpt>
      <trkpt lat="48.65974" lon="6.12546">
        <ele>353</ele>
        <time>2012-03-17T14:16:53Z</time>
      </trkpt>
      <trkpt lat="48.65977" lon="6.12554">
        <ele>351</ele>
        <time>2012-03-17T14:16:55Z</time>
      </trkpt>
      <trkpt lat="48.6598" lon="6.12562">
        <ele>351</ele>
        <time>2012-03-17T14:16:57Z</time>
      </trkpt>
      <trkpt lat="48.65984" lon="6.12569">
        <ele>356</ele>
        <time>2012-03-17T14:16:59Z</time>
      </trkpt>
      <trkpt lat="48.6599" lon="6.12576">
        <ele>360</ele>
        <time>2012-03-17T14:17:01Z</time>
      </trkpt>
      <trkpt lat="48.65995" lon="6.12583">
        <ele>361</ele>
        <time>2012-03-17T14:17:03Z</time>
      </trkpt>
      <trkpt lat="48.66" lon="6.12592">
        <ele>358</ele>
        <time>2012-03-17T14:17:05Z</time>
      </trkpt>
      <trkpt lat="48.66003" lon="6.12601">
        <ele>356</ele>
        <time>2012-03-17T14:17:07Z</time>
      </trkpt>
      <trkpt lat="48.66007" lon="6.12609">
        <ele>356</ele>
        <time>2012-03-17T14:17:09Z</time>
      </trkpt>
      <trkpt lat="48.66011" lon="6.12618">
        <ele>355</ele>
        <time>2012-03-17T14:17:11Z</time>
      </trkpt>
      <trkpt lat="48.66015" lon="6.12627">
        <ele>355</ele>
        <time>2012-03-17T14:17:13Z</time>
      </trkpt>
      <trkpt lat="48.66018" lon="6.12635">
        <ele>355</ele>
        <time>2012-03-17T14:17:15Z</time>
      </trkpt>
      <trkpt lat="48.66022" lon="6.12644">
        <ele>355</ele>
        <time>2012-03-17T14:17:17Z</time>
      </trkpt>
      <trkpt lat="48.66026" lon="6.12654">
        <ele>355</ele>
        <time>2012-03-17T14:17:19Z</time>
      </trkpt>
      <trkpt lat="48.66029" lon="6.12665">
        <ele>355</ele>
        <time>2012-03-17T14:17:21Z</time>
      </trkpt>
      <trkpt lat="48.66032" lon="6.12674">
        <ele>357</ele>
        <time>2012-03-17T14:17:23Z</time>
      </trkpt>
      <trkpt lat="48.66035" lon="6.12685">
        <ele>356</ele>
        <time>2012-03-17T14:17:25Z</time>
      </trkpt>
      <trkpt lat="48.66038" lon="6.12695">
        <ele>358</ele>
        <time>2012-03-17T14:17:27Z</time>
      </trkpt>
      <trkpt lat="48.66041" lon="6.12705">
        <ele>358</ele>
        <time>2012-03-17T14:17:29Z</time>
      </trkpt>
      <trkpt lat="48.66044" lon="6.12716">
        <ele>358</ele>
        <time>2012-03-17T14:17:31Z</time>
      </trkpt>
      <trkpt lat="48.66047" lon="6.12728">
        <ele>357</ele>
        <time>2012-03-17T14:17:33Z</time>
      </trkpt>
      <trkpt lat="48.6605" lon="6.1274">
        <ele>357</ele>
        <time>2012-03-17T14:17:35Z</time>
      </trkpt>
      <trkpt lat="48.66053" lon="6.12752">
        <ele>358</ele>
        <time>2012-03-17T14:17:37Z</time>
      </trkpt>
      <trkpt lat="48.66055" lon="6.12763">
        <ele>360</ele>
        <time>2012-03-17T14:17:39Z</time>
      </trkpt>
      <trkpt lat="48.66058" lon="6.12775">
        <ele>364</ele>
        <time>2012-03-17T14:17:41Z</time>
      </trkpt>
      <trkpt lat="48.66061" lon="6.12788">
        <ele>361</ele>
        <time>2012-03-17T14:17:43Z</time>
      </trkpt>
      <trkpt lat="48.66063" lon="6.12799">
        <ele>362</ele>
        <time>2012-03-17T14:17:45Z</time>
      </trkpt>
      <trkpt lat="48.66066" lon="6.12811">
        <ele>358</ele>
        <time>2012-03-17T14:17:47Z</time>
      </trkpt>
      <trkpt lat="48.66068" lon="6.12827">
        <ele>360</ele>
        <time>2012-03-17T14:17:49Z</time>
      </trkpt>
      <trkpt lat="48.66071" lon="6.12834">
        <ele>360</ele>
        <time>2012-03-17T14:17:51Z</time>
      </trkpt>
      <trkpt lat="48.66073" lon="6.12844">
        <ele>360</ele>
        <time>2012-03-17T14:17:53Z</time>
      </trkpt>
      <trkpt lat="48.66074" lon="6.12853">
        <ele>358</ele>
        <time>2012-03-17T14:17:55Z</time>
      </trkpt>
      <trkpt lat="48.66076" lon="6.12863">
        <ele>357</ele>
        <time>2012-03-17T14:17:57Z</time>
      </trkpt>
      <trkpt lat="48.66078" lon="6.12871">
        <ele>358</ele>
        <time>2012-03-17T14:17:59Z</time>
      </trkpt>
      <trkpt lat="48.6608" lon="6.12879">
        <ele>362</ele>
        <time>2012-03-17T14:18:01Z</time>
      </trkpt>
      <trkpt lat="48.66082" lon="6.12889">
        <ele>366</ele>
        <time>2012-03-17T14:18:03Z</time>
      </trkpt>
      <trkpt lat="48.66082" lon="6.129">
        <ele>365</ele>
        <time>2012-03-17T14:18:05Z</time>
      </trkpt>
      <trkpt lat="48.66082" lon="6.12913">
        <ele>364</ele>
        <time>2012-03-17T14:18:07Z</time>
      </trkpt>
      <trkpt lat="48.66084" lon="6.12926">
        <ele>360</ele>
        <time>2012-03-17T14:18:09Z</time>
      </trkpt>
      <trkpt lat="48.66087" lon="6.12938">
        <ele>358</ele>
        <time>2012-03-17T14:18:11Z</time>
      </trkpt>
      <trkpt lat="48.66092" lon="6.1295">
        <ele>356</ele>
        <time>2012-03-17T14:18:13Z</time>
      </trkpt>
      <trkpt lat="48.66097" lon="6.12962">
        <ele>356</ele>
        <time>2012-03-17T14:18:15Z</time>
      </trkpt>
      <trkpt lat="48.66101" lon="6.12973">
        <ele>355</ele>
        <time>2012-03-17T14:18:17Z</time>
      </trkpt>
      <trkpt lat="48.66105" lon="6.12986">
        <ele>353</ele>
        <time>2012-03-17T14:18:19Z</time>
      </trkpt>
      <trkpt lat="48.6611" lon="6.12999">
        <ele>353</ele>
        <time>2012-03-17T14:18:21Z</time>
      </trkpt>
      <trkpt lat="48.66114" lon="6.13011">
        <ele>353</ele>
        <time>2012-03-17T14:18:23Z</time>
      </trkpt>
      <trkpt lat="48.6612" lon="6.13025">
        <ele>352</ele>
        <time>2012-03-17T14:18:25Z</time>
      </trkpt>
      <trkpt lat="48.66126" lon="6.13038">
        <ele>352</ele>
        <time>2012-03-17T14:18:27Z</time>
      </trkpt>
      <trkpt lat="48.66131" lon="6.13052">
        <ele>351</ele>
        <time>2012-03-17T14:18:29Z</time>
      </trkpt>
      <trkpt lat="48.66137" lon="6.13067">
        <ele>349</ele>
        <time>2012-03-17T14:18:31Z</time>
      </trkpt>
      <trkpt lat="48.66143" lon="6.13083">
        <ele>347</ele>
        <time>2012-03-17T14:18:33Z</time>
      </trkpt>
      <trkpt lat="48.6615" lon="6.13097">
        <ele>347</ele>
        <time>2012-03-17T14:18:35Z</time>
      </trkpt>
      <trkpt lat="48.66156" lon="6.13112">
        <ele>347</ele>
        <time>2012-03-17T14:18:37Z</time>
      </trkpt>
      <trkpt lat="48.66163" lon="6.13128">
        <ele>349</ele>
        <time>2012-03-17T14:18:39Z</time>
      </trkpt>
      <trkpt lat="48.66169" lon="6.13145">
        <ele>347</ele>
        <time>2012-03-17T14:18:41Z</time>
      </trkpt>
      <trkpt lat="48.66176" lon="6.1316">
        <ele>351</ele>
        <time>2012-03-17T14:18:43Z</time>
      </trkpt>
      <trkpt lat="48.66185" lon="6.13177">
        <ele>349</ele>
        <time>2012-03-17T14:18:45Z</time>
      </trkpt>
      <trkpt lat="48.66194" lon="6.13193">
        <ele>349</ele>
        <time>2012-03-17T14:18:47Z</time>
      </trkpt>
      <trkpt lat="48.66206" lon="6.13209">
        <ele>348</ele>
        <time>2012-03-17T14:18:49Z</time>
      </trkpt>
      <trkpt lat="48.66216" lon="6.13222">
        <ele>349</ele>
        <time>2012-03-17T14:18:51Z</time>
      </trkpt>
      <trkpt lat="48.66228" lon="6.13235">
        <ele>353</ele>
        <time>2012-03-17T14:18:53Z</time>
      </trkpt>
      <trkpt lat="48.66246" lon="6.13249">
        <ele>347</ele>
        <time>2012-03-17T14:18:55Z</time>
      </trkpt>
      <trkpt lat="48.66258" lon="6.13266">
        <ele>349</ele>
        <time>2012-03-17T14:18:57Z</time>
      </trkpt>
      <trkpt lat="48.66271" lon="6.1328">
        <ele>340</ele>
        <time>2012-03-17T14:18:59Z</time>
      </trkpt>
      <trkpt lat="48.66284" lon="6.13292">
        <ele>341</ele>
        <time>2012-03-17T14:19:01Z</time>
      </trkpt>
      <trkpt lat="48.66296" lon="6.13303">
        <ele>344</ele>
        <time>2012-03-17T14:19:03Z</time>
      </trkpt>
      <trkpt lat="48.66311" lon="6.13313">
        <ele>348</ele>
        <time>2012-03-17T14:19:05Z</time>
      </trkpt>
      <trkpt lat="48.66328" lon="6.13325">
        <ele>348</ele>
        <time>2012-03-17T14:19:07Z</time>
      </trkpt>
      <trkpt lat="48.66346" lon="6.13339">
        <ele>345</ele>
        <time>2012-03-17T14:19:09Z</time>
      </trkpt>
      <trkpt lat="48.66365" lon="6.13351">
        <ele>346</ele>
        <time>2012-03-17T14:19:11Z</time>
      </trkpt>
      <trkpt lat="48.66386" lon="6.1336">
        <ele>345</ele>
        <time>2012-03-17T14:19:13Z</time>
      </trkpt>
      <trkpt lat="48.66409" lon="6.13361">
        <ele>344</ele>
        <time>2012-03-17T14:19:15Z</time>
      </trkpt>
      <trkpt lat="48.66434" lon="6.13364">
        <ele>345</ele>
        <time>2012-03-17T14:19:17Z</time>
      </trkpt>
      <trkpt lat="48.66459" lon="6.1337">
        <ele>344</ele>
        <time>2012-03-17T14:19:19Z</time>
      </trkpt>
      <trkpt lat="48.66483" lon="6.13388">
        <ele>337</ele>
        <time>2012-03-17T14:19:21Z</time>
      </trkpt>
      <trkpt lat="48.66508" lon="6.13409">
        <ele>329</ele>
        <time>2012-03-17T14:19:23Z</time>
      </trkpt>
      <trkpt lat="48.66533" lon="6.13428">
        <ele>323</ele>
        <time>2012-03-17T14:19:25Z</time>
      </trkpt>
      <trkpt lat="48.66555" lon="6.13447">
        <ele>319</ele>
        <time>2012-03-17T14:19:27Z</time>
      </trkpt>
      <trkpt lat="48.66573" lon="6.13461">
        <ele>317</ele>
        <time>2012-03-17T14:19:29Z</time>
      </trkpt>
      <trkpt lat="48.66583" lon="6.13469">
        <ele>315</ele>
        <time>2012-03-17T14:19:31Z</time>
      </trkpt>
      <trkpt lat="48.6659" lon="6.13474">
        <ele>313</ele>
        <time>2012-03-17T14:19:33Z</time>
      </trkpt>
      <trkpt lat="48.66596" lon="6.13477">
        <ele>312</ele>
        <time>2012-03-17T14:19:35Z</time>
      </trkpt>
      <trkpt lat="48.666" lon="6.13475">
        <ele>311</ele>
        <time>2012-03-17T14:19:37Z</time>
      </trkpt>
      <trkpt lat="48.66604" lon="6.1347">
        <ele>313</ele>
        <time>2012-03-17T14:19:39Z</time>
      </trkpt>
      <trkpt lat="48.66604" lon="6.13462">
        <ele>318</ele>
        <time>2012-03-17T14:19:41Z</time>
      </trkpt>
      <trkpt lat="48.66604" lon="6.13455">
        <ele>319</ele>
        <time>2012-03-17T14:19:43Z</time>
      </trkpt>
      <trkpt lat="48.66605" lon="6.13449">
        <ele>319</ele>
        <time>2012-03-17T14:19:45Z</time>
      </trkpt>
      <trkpt lat="48.66606" lon="6.13445">
        <ele>319</ele>
        <time>2012-03-17T14:19:47Z</time>
      </trkpt>
      <trkpt lat="48.66607" lon="6.13442">
        <ele>325</ele>
        <time>2012-03-17T14:19:53Z</time>
      </trkpt>
      <trkpt lat="48.6661" lon="6.13439">
        <ele>325</ele>
        <time>2012-03-17T14:19:55Z</time>
      </trkpt>
      <trkpt lat="48.66612" lon="6.13439">
        <ele>320</ele>
        <time>2012-03-17T14:19:57Z</time>
      </trkpt>
      <trkpt lat="48.66617" lon="6.13434">
        <ele>319</ele>
        <time>2012-03-17T14:20:01Z</time>
      </trkpt>
      <trkpt lat="48.66623" lon="6.13431">
        <ele>320</ele>
        <time>2012-03-17T14:20:07Z</time>
      </trkpt>
      <trkpt lat="48.66632" lon="6.13424">
        <ele>325</ele>
        <time>2012-03-17T14:20:13Z</time>
      </trkpt>
      <trkpt lat="48.66636" lon="6.13421">
        <ele>325</ele>
        <time>2012-03-17T14:20:15Z</time>
      </trkpt>
      <trkpt lat="48.66639" lon="6.13418">
        <ele>331</ele>
        <time>2012-03-17T14:20:17Z</time>
      </trkpt>
      <trkpt lat="48.66646" lon="6.13408">
        <ele>336</ele>
        <time>2012-03-17T14:20:23Z</time>
      </trkpt>
      <trkpt lat="48.66653" lon="6.13398">
        <ele>342</ele>
        <time>2012-03-17T14:20:29Z</time>
      </trkpt>
      <trkpt lat="48.6666" lon="6.13387">
        <ele>344</ele>
        <time>2012-03-17T14:20:35Z</time>
      </trkpt>
      <trkpt lat="48.66663" lon="6.13381">
        <ele>340</ele>
        <time>2012-03-17T14:20:37Z</time>
      </trkpt>
      <trkpt lat="48.66669" lon="6.13368">
        <ele>343</ele>
        <time>2012-03-17T14:20:43Z</time>
      </trkpt>
      <trkpt lat="48.66672" lon="6.1335">
        <ele>345</ele>
        <time>2012-03-17T14:20:51Z</time>
      </trkpt>
      <trkpt lat="48.66671" lon="6.13348">
        <ele>345</ele>
        <time>2012-03-17T14:20:53Z</time>
      </trkpt>
      <trkpt lat="48.66676" lon="6.13319">
        <ele>341</ele>
        <time>2012-03-17T14:21:05Z</time>
      </trkpt>
      <trkpt lat="48.66686" lon="6.13303">
        <ele>336</ele>
        <time>2012-03-17T14:21:11Z</time>
      </trkpt>
      <trkpt lat="48.66689" lon="6.13299">
        <ele>335</ele>
        <time>2012-03-17T14:21:13Z</time>
      </trkpt>
      <trkpt lat="48.66692" lon="6.13295">
        <ele>337</ele>
        <time>2012-03-17T14:21:15Z</time>
      </trkpt>
      <trkpt lat="48.66707" lon="6.13235">
        <ele>341</ele>
        <time>2012-03-17T14:21:55Z</time>
      </trkpt>
      <trkpt lat="48.6671" lon="6.1323">
        <ele>339</ele>
        <time>2012-03-17T14:21:57Z</time>
      </trkpt>
      <trkpt lat="48.66713" lon="6.1322">
        <ele>343</ele>
        <time>2012-03-17T14:21:59Z</time>
      </trkpt>
      <trkpt lat="48.66719" lon="6.13208">
        <ele>343</ele>
        <time>2012-03-17T14:22:03Z</time>
      </trkpt>
      <trkpt lat="48.66722" lon="6.13205">
        <ele>345</ele>
        <time>2012-03-17T14:22:05Z</time>
      </trkpt>
      <trkpt lat="48.66724" lon="6.13194">
        <ele>350</ele>
        <time>2012-03-17T14:22:09Z</time>
      </trkpt>
      <trkpt lat="48.66726" lon="6.13183">
        <ele>355</ele>
        <time>2012-03-17T14:22:13Z</time>
      </trkpt>
      <trkpt lat="48.66727" lon="6.13158">
        <ele>356</ele>
        <time>2012-03-17T14:22:19Z</time>
      </trkpt>
      <trkpt lat="48.66731" lon="6.13147">
        <ele>359</ele>
        <time>2012-03-17T14:22:21Z</time>
      </trkpt>
      <trkpt lat="48.66734" lon="6.13135">
        <ele>364</ele>
        <time>2012-03-17T14:22:23Z</time>
      </trkpt>
      <trkpt lat="48.66735" lon="6.13131">
        <ele>368</ele>
        <time>2012-03-17T14:22:25Z</time>
      </trkpt>
      <trkpt lat="48.66734" lon="6.13127">
        <ele>370</ele>
        <time>2012-03-17T14:22:27Z</time>
      </trkpt>
      <trkpt lat="48.66733" lon="6.13123">
        <ele>372</ele>
        <time>2012-03-17T14:22:29Z</time>
      </trkpt>
      <trkpt lat="48.66731" lon="6.1312">
        <ele>374</ele>
        <time>2012-03-17T14:22:31Z</time>
      </trkpt>
      <trkpt lat="48.66731" lon="6.13117">
        <ele>374</ele>
        <time>2012-03-17T14:22:33Z</time>
      </trkpt>
      <trkpt lat="48.66732" lon="6.13101">
        <ele>376</ele>
        <time>2012-03-17T14:22:37Z</time>
      </trkpt>
      <trkpt lat="48.66734" lon="6.13092">
        <ele>375</ele>
        <time>2012-03-17T14:22:39Z</time>
      </trkpt>
      <trkpt lat="48.66735" lon="6.13084">
        <ele>375</ele>
        <time>2012-03-17T14:22:41Z</time>
      </trkpt>
      <trkpt lat="48.66736" lon="6.13076">
        <ele>374</ele>
        <time>2012-03-17T14:22:43Z</time>
      </trkpt>
      <trkpt lat="48.66737" lon="6.13069">
        <ele>374</ele>
        <time>2012-03-17T14:22:45Z</time>
      </trkpt>
      <trkpt lat="48.66737" lon="6.13064">
        <ele>374</ele>
        <time>2012-03-17T14:22:47Z</time>
      </trkpt>
      <trkpt lat="48.66737" lon="6.13055">
        <ele>376</ele>
        <time>2012-03-17T14:22:49Z</time>
      </trkpt>
      <trkpt lat="48.66738" lon="6.13049">
        <ele>377</ele>
        <time>2012-03-17T14:22:51Z</time>
      </trkpt>
      <trkpt lat="48.66739" lon="6.13041">
        <ele>377</ele>
        <time>2012-03-17T14:22:53Z</time>
      </trkpt>
      <trkpt lat="48.66739" lon="6.13035">
        <ele>373</ele>
        <time>2012-03-17T14:22:55Z</time>
      </trkpt>
      <trkpt lat="48.66738" lon="6.13029">
        <ele>374</ele>
        <time>2012-03-17T14:22:57Z</time>
      </trkpt>
      <trkpt lat="48.66739" lon="6.13023">
        <ele>374</ele>
        <time>2012-03-17T14:22:59Z</time>
      </trkpt>
      <trkpt lat="48.66738" lon="6.13015">
        <ele>371</ele>
        <time>2012-03-17T14:23:01Z</time>
      </trkpt>
      <trkpt lat="48.66737" lon="6.12999">
        <ele>374</ele>
        <time>2012-03-17T14:23:07Z</time>
      </trkpt>
      <trkpt lat="48.66735" lon="6.12995">
        <ele>376</ele>
        <time>2012-03-17T14:23:09Z</time>
      </trkpt>
      <trkpt lat="48.66734" lon="6.12991">
        <ele>378</ele>
        <time>2012-03-17T14:23:11Z</time>
      </trkpt>
      <trkpt lat="48.66734" lon="6.12986">
        <ele>379</ele>
        <time>2012-03-17T14:23:13Z</time>
      </trkpt>
      <trkpt lat="48.66733" lon="6.12981">
        <ele>379</ele>
        <time>2012-03-17T14:23:15Z</time>
      </trkpt>
      <trkpt lat="48.66733" lon="6.12975">
        <ele>376</ele>
        <time>2012-03-17T14:23:17Z</time>
      </trkpt>
      <trkpt lat="48.66734" lon="6.12971">
        <ele>373</ele>
        <time>2012-03-17T14:23:19Z</time>
      </trkpt>
      <trkpt lat="48.66734" lon="6.12967">
        <ele>372</ele>
        <time>2012-03-17T14:23:21Z</time>
      </trkpt>
      <trkpt lat="48.66734" lon="6.1296">
        <ele>373</ele>
        <time>2012-03-17T14:23:23Z</time>
      </trkpt>
      <trkpt lat="48.66736" lon="6.12951">
        <ele>373</ele>
        <time>2012-03-17T14:23:25Z</time>
      </trkpt>
      <trkpt lat="48.66737" lon="6.12943">
        <ele>375</ele>
        <time>2012-03-17T14:23:27Z</time>
      </trkpt>
      <trkpt lat="48.66737" lon="6.12936">
        <ele>374</ele>
        <time>2012-03-17T14:23:29Z</time>
      </trkpt>
      <trkpt lat="48.66738" lon="6.12925">
        <ele>376</ele>
        <time>2012-03-17T14:23:31Z</time>
      </trkpt>
      <trkpt lat="48.66738" lon="6.1292">
        <ele>377</ele>
        <time>2012-03-17T14:23:33Z</time>
      </trkpt>
      <trkpt lat="48.66737" lon="6.12911">
        <ele>379</ele>
        <time>2012-03-17T14:23:35Z</time>
      </trkpt>
      <trkpt lat="48.66736" lon="6.12904">
        <ele>380</ele>
        <time>2012-03-17T14:23:37Z</time>
      </trkpt>
      <trkpt lat="48.66736" lon="6.12895">
        <ele>380</ele>
        <time>2012-03-17T14:23:39Z</time>
      </trkpt>
      <trkpt lat="48.66738" lon="6.12884">
        <ele>378</ele>
        <time>2012-03-17T14:23:41Z</time>
      </trkpt>
      <trkpt lat="48.66739" lon="6.12875">
        <ele>376</ele>
        <time>2012-03-17T14:23:43Z</time>
      </trkpt>
      <trkpt lat="48.66738" lon="6.12868">
        <ele>376</ele>
        <time>2012-03-17T14:23:45Z</time>
      </trkpt>
      <trkpt lat="48.66737" lon="6.12861">
        <ele>377</ele>
        <time>2012-03-17T14:23:47Z</time>
      </trkpt>
      <trkpt lat="48.66736" lon="6.12855">
        <ele>380</ele>
        <time>2012-03-17T14:23:49Z</time>
      </trkpt>
      <trkpt lat="48.66736" lon="6.12846">
        <ele>377</ele>
        <time>2012-03-17T14:23:51Z</time>
      </trkpt>
      <trkpt lat="48.66738" lon="6.12838">
        <ele>368</ele>
        <time>2012-03-17T14:23:53Z</time>
      </trkpt>
      <trkpt lat="48.66747" lon="6.12823">
        <ele>359</ele>
        <time>2012-03-17T14:23:57Z</time>
      </trkpt>
      <trkpt lat="48.66753" lon="6.12815">
        <ele>354</ele>
        <time>2012-03-17T14:23:59Z</time>
      </trkpt>
      <trkpt lat="48.6676" lon="6.1281">
        <ele>352</ele>
        <time>2012-03-17T14:24:01Z</time>
      </trkpt>
      <trkpt lat="48.66768" lon="6.12809">
        <ele>353</ele>
        <time>2012-03-17T14:24:03Z</time>
      </trkpt>
      <trkpt lat="48.66776" lon="6.12809">
        <ele>354</ele>
        <time>2012-03-17T14:24:05Z</time>
      </trkpt>
      <trkpt lat="48.66784" lon="6.12807">
        <ele>354</ele>
        <time>2012-03-17T14:24:07Z</time>
      </trkpt>
      <trkpt lat="48.66792" lon="6.12806">
        <ele>352</ele>
        <time>2012-03-17T14:24:09Z</time>
      </trkpt>
      <trkpt lat="48.668" lon="6.12805">
        <ele>352</ele>
        <time>2012-03-17T14:24:11Z</time>
      </trkpt>
      <trkpt lat="48.66809" lon="6.12804">
        <ele>352</ele>
        <time>2012-03-17T14:24:13Z</time>
      </trkpt>
      <trkpt lat="48.66817" lon="6.12804">
        <ele>353</ele>
        <time>2012-03-17T14:24:15Z</time>
      </trkpt>
      <trkpt lat="48.66825" lon="6.12804">
        <ele>356</ele>
        <time>2012-03-17T14:24:17Z</time>
      </trkpt>
      <trkpt lat="48.66834" lon="6.12803">
        <ele>356</ele>
        <time>2012-03-17T14:24:19Z</time>
      </trkpt>
      <trkpt lat="48.66842" lon="6.12801">
        <ele>356</ele>
        <time>2012-03-17T14:24:21Z</time>
      </trkpt>
      <trkpt lat="48.6685" lon="6.128">
        <ele>358</ele>
        <time>2012-03-17T14:24:23Z</time>
      </trkpt>
      <trkpt lat="48.6686" lon="6.128">
        <ele>360</ele>
        <time>2012-03-17T14:24:25Z</time>
      </trkpt>
      <trkpt lat="48.66872" lon="6.128">
        <ele>359</ele>
        <time>2012-03-17T14:24:27Z</time>
      </trkpt>
      <trkpt lat="48.66882" lon="6.128">
        <ele>358</ele>
        <time>2012-03-17T14:24:29Z</time>
      </trkpt>
      <trkpt lat="48.66892" lon="6.128">
        <ele>358</ele>
        <time>2012-03-17T14:24:31Z</time>
      </trkpt>
      <trkpt lat="48.66902" lon="6.128">
        <ele>357</ele>
        <time>2012-03-17T14:24:33Z</time>
      </trkpt>
      <trkpt lat="48.66911" lon="6.128">
        <ele>356</ele>
        <time>2012-03-17T14:24:35Z</time>
      </trkpt>
      <trkpt lat="48.66919" lon="6.12795">
        <ele>358</ele>
        <time>2012-03-17T14:24:37Z</time>
      </trkpt>
      <trkpt lat="48.66924" lon="6.12791">
        <ele>357</ele>
        <time>2012-03-17T14:24:39Z</time>
      </trkpt>
      <trkpt lat="48.66932" lon="6.12787">
        <ele>357</ele>
        <time>2012-03-17T14:24:41Z</time>
      </trkpt>
      <trkpt lat="48.66941" lon="6.12784">
        <ele>357</ele>
        <time>2012-03-17T14:24:43Z</time>
      </trkpt>
      <trkpt lat="48.66948" lon="6.1278">
        <ele>357</ele>
        <time>2012-03-17T14:24:45Z</time>
      </trkpt>
      <trkpt lat="48.66957" lon="6.12776">
        <ele>358</ele>
        <time>2012-03-17T14:24:47Z</time>
      </trkpt>
      <trkpt lat="48.66965" lon="6.12774">
        <ele>358</ele>
        <time>2012-03-17T14:24:49Z</time>
      </trkpt>
      <trkpt lat="48.66973" lon="6.12768">
        <ele>359</ele>
        <time>2012-03-17T14:24:51Z</time>
      </trkpt>
      <trkpt lat="48.66988" lon="6.12754">
        <ele>353</ele>
        <time>2012-03-17T14:24:55Z</time>
      </trkpt>
      <trkpt lat="48.66994" lon="6.12747">
        <ele>353</ele>
        <time>2012-03-17T14:24:57Z</time>
      </trkpt>
      <trkpt lat="48.67001" lon="6.12739">
        <ele>353</ele>
        <time>2012-03-17T14:24:59Z</time>
      </trkpt>
      <trkpt lat="48.67011" lon="6.1273">
        <ele>353</ele>
        <time>2012-03-17T14:25:01Z</time>
      </trkpt>
      <trkpt lat="48.67022" lon="6.1272">
        <ele>357</ele>
        <time>2012-03-17T14:25:03Z</time>
      </trkpt>
      <trkpt lat="48.67036" lon="6.12709">
        <ele>359</ele>
        <time>2012-03-17T14:25:05Z</time>
      </trkpt>
      <trkpt lat="48.67048" lon="6.12699">
        <ele>364</ele>
        <time>2012-03-17T14:25:07Z</time>
      </trkpt>
      <trkpt lat="48.67059" lon="6.12688">
        <ele>359</ele>
        <time>2012-03-17T14:25:09Z</time>
      </trkpt>
      <trkpt lat="48.67069" lon="6.1268">
        <ele>357</ele>
        <time>2012-03-17T14:25:11Z</time>
      </trkpt>
      <trkpt lat="48.67081" lon="6.12672">
        <ele>354</ele>
        <time>2012-03-17T14:25:13Z</time>
      </trkpt>
      <trkpt lat="48.67092" lon="6.12663">
        <ele>356</ele>
        <time>2012-03-17T14:25:15Z</time>
      </trkpt>
      <trkpt lat="48.67099" lon="6.12658">
        <ele>357</ele>
        <time>2012-03-17T14:25:17Z</time>
      </trkpt>
      <trkpt lat="48.67108" lon="6.12653">
        <ele>357</ele>
        <time>2012-03-17T14:25:19Z</time>
      </trkpt>
      <trkpt lat="48.67118" lon="6.12647">
        <ele>356</ele>
        <time>2012-03-17T14:25:21Z</time>
      </trkpt>
      <trkpt lat="48.67127" lon="6.12642">
        <ele>356</ele>
        <time>2012-03-17T14:25:23Z</time>
      </trkpt>
      <trkpt lat="48.67136" lon="6.12637">
        <ele>354</ele>
        <time>2012-03-17T14:25:25Z</time>
      </trkpt>
      <trkpt lat="48.67146" lon="6.12629">
        <ele>354</ele>
        <time>2012-03-17T14:25:27Z</time>
      </trkpt>
      <trkpt lat="48.67156" lon="6.12621">
        <ele>348</ele>
        <time>2012-03-17T14:25:29Z</time>
      </trkpt>
      <trkpt lat="48.67168" lon="6.12613">
        <ele>350</ele>
        <time>2012-03-17T14:25:31Z</time>
      </trkpt>
      <trkpt lat="48.67179" lon="6.1261">
        <ele>350</ele>
        <time>2012-03-17T14:25:33Z</time>
      </trkpt>
      <trkpt lat="48.67189" lon="6.12608">
        <ele>352</ele>
        <time>2012-03-17T14:25:35Z</time>
      </trkpt>
      <trkpt lat="48.67199" lon="6.12608">
        <ele>351</ele>
        <time>2012-03-17T14:25:37Z</time>
      </trkpt>
      <trkpt lat="48.6721" lon="6.12609">
        <ele>354</ele>
        <time>2012-03-17T14:25:39Z</time>
      </trkpt>
      <trkpt lat="48.6722" lon="6.1261">
        <ele>354</ele>
        <time>2012-03-17T14:25:41Z</time>
      </trkpt>
      <trkpt lat="48.67229" lon="6.1261">
        <ele>353</ele>
        <time>2012-03-17T14:25:43Z</time>
      </trkpt>
      <trkpt lat="48.67239" lon="6.1261">
        <ele>350</ele>
        <time>2012-03-17T14:25:45Z</time>
      </trkpt>
      <trkpt lat="48.67248" lon="6.12613">
        <ele>351</ele>
        <time>2012-03-17T14:25:47Z</time>
      </trkpt>
      <trkpt lat="48.6726" lon="6.12616">
        <ele>353</ele>
        <time>2012-03-17T14:25:49Z</time>
      </trkpt>
      <trkpt lat="48.67271" lon="6.12617">
        <ele>357</ele>
        <time>2012-03-17T14:25:51Z</time>
      </trkpt>
      <trkpt lat="48.67283" lon="6.12614">
        <ele>354</ele>
        <time>2012-03-17T14:25:53Z</time>
      </trkpt>
      <trkpt lat="48.67294" lon="6.12616">
        <ele>353</ele>
        <time>2012-03-17T14:25:55Z</time>
      </trkpt>
      <trkpt lat="48.67304" lon="6.12618">
        <ele>351</ele>
        <time>2012-03-17T14:25:57Z</time>
      </trkpt>
      <trkpt lat="48.67313" lon="6.12619">
        <ele>355</ele>
        <time>2012-03-17T14:25:59Z</time>
      </trkpt>
      <trkpt lat="48.67324" lon="6.12622">
        <ele>355</ele>
        <time>2012-03-17T14:26:01Z</time>
      </trkpt>
      <trkpt lat="48.67336" lon="6.12622">
        <ele>357</ele>
        <time>2012-03-17T14:26:03Z</time>
      </trkpt>
      <trkpt lat="48.67347" lon="6.12621">
        <ele>356</ele>
        <time>2012-03-17T14:26:05Z</time>
      </trkpt>
      <trkpt lat="48.67357" lon="6.12623">
        <ele>358</ele>
        <time>2012-03-17T14:26:07Z</time>
      </trkpt>
      <trkpt lat="48.67369" lon="6.12627">
        <ele>355</ele>
        <time>2012-03-17T14:26:09Z</time>
      </trkpt>
      <trkpt lat="48.67381" lon="6.12628">
        <ele>352</ele>
        <time>2012-03-17T14:26:11Z</time>
      </trkpt>
      <trkpt lat="48.67394" lon="6.1263">
        <ele>347</ele>
        <time>2012-03-17T14:26:13Z</time>
      </trkpt>
      <trkpt lat="48.67406" lon="6.12631">
        <ele>345</ele>
        <time>2012-03-17T14:26:15Z</time>
      </trkpt>
      <trkpt lat="48.67415" lon="6.12631">
        <ele>342</ele>
        <time>2012-03-17T14:26:17Z</time>
      </trkpt>
      <trkpt lat="48.67424" lon="6.12631">
        <ele>342</ele>
        <time>2012-03-17T14:26:19Z</time>
      </trkpt>
      <trkpt lat="48.67436" lon="6.12633">
        <ele>346</ele>
        <time>2012-03-17T14:26:21Z</time>
      </trkpt>
      <trkpt lat="48.67445" lon="6.12633">
        <ele>347</ele>
        <time>2012-03-17T14:26:23Z</time>
      </trkpt>
      <trkpt lat="48.67456" lon="6.12632">
        <ele>349</ele>
        <time>2012-03-17T14:26:25Z</time>
      </trkpt>
      <trkpt lat="48.67468" lon="6.12631">
        <ele>351</ele>
        <time>2012-03-17T14:26:27Z</time>
      </trkpt>
      <trkpt lat="48.67479" lon="6.12629">
        <ele>351</ele>
        <time>2012-03-17T14:26:29Z</time>
      </trkpt>
      <trkpt lat="48.67492" lon="6.12624">
        <ele>351</ele>
        <time>2012-03-17T14:26:31Z</time>
      </trkpt>
      <trkpt lat="48.67501" lon="6.12618">
        <ele>352</ele>
        <time>2012-03-17T14:26:33Z</time>
      </trkpt>
      <trkpt lat="48.67509" lon="6.12612">
        <ele>353</ele>
        <time>2012-03-17T14:26:35Z</time>
      </trkpt>
      <trkpt lat="48.67519" lon="6.12608">
        <ele>352</ele>
        <time>2012-03-17T14:26:37Z</time>
      </trkpt>
      <trkpt lat="48.67531" lon="6.12604">
        <ele>352</ele>
        <time>2012-03-17T14:26:39Z</time>
      </trkpt>
      <trkpt lat="48.67542" lon="6.12601">
        <ele>353</ele>
        <time>2012-03-17T14:26:41Z</time>
      </trkpt>
      <trkpt lat="48.67551" lon="6.126">
        <ele>348</ele>
        <time>2012-03-17T14:26:43Z</time>
      </trkpt>
      <trkpt lat="48.6756" lon="6.12598">
        <ele>348</ele>
        <time>2012-03-17T14:26:45Z</time>
      </trkpt>
      <trkpt lat="48.67569" lon="6.12597">
        <ele>345</ele>
        <time>2012-03-17T14:26:47Z</time>
      </trkpt>
      <trkpt lat="48.67579" lon="6.12598">
        <ele>345</ele>
        <time>2012-03-17T14:26:49Z</time>
      </trkpt>
      <trkpt lat="48.67587" lon="6.12596">
        <ele>343</ele>
        <time>2012-03-17T14:26:51Z</time>
      </trkpt>
      <trkpt lat="48.67596" lon="6.12595">
        <ele>346</ele>
        <time>2012-03-17T14:26:53Z</time>
      </trkpt>
      <trkpt lat="48.67607" lon="6.12592">
        <ele>346</ele>
        <time>2012-03-17T14:26:55Z</time>
      </trkpt>
      <trkpt lat="48.67617" lon="6.12593">
        <ele>344</ele>
        <time>2012-03-17T14:26:57Z</time>
      </trkpt>
      <trkpt lat="48.67625" lon="6.12597">
        <ele>344</ele>
        <time>2012-03-17T14:26:59Z</time>
      </trkpt>
      <trkpt lat="48.67636" lon="6.12599">
        <ele>351</ele>
        <time>2012-03-17T14:27:01Z</time>
      </trkpt>
      <trkpt lat="48.67647" lon="6.12601">
        <ele>348</ele>
        <time>2012-03-17T14:27:03Z</time>
      </trkpt>
      <trkpt lat="48.67658" lon="6.126">
        <ele>344</ele>
        <time>2012-03-17T14:27:05Z</time>
      </trkpt>
      <trkpt lat="48.67669" lon="6.12598">
        <ele>348</ele>
        <time>2012-03-17T14:27:07Z</time>
      </trkpt>
      <trkpt lat="48.67682" lon="6.12597">
        <ele>350</ele>
        <time>2012-03-17T14:27:09Z</time>
      </trkpt>
      <trkpt lat="48.67691" lon="6.12599">
        <ele>352</ele>
        <time>2012-03-17T14:27:11Z</time>
      </trkpt>
      <trkpt lat="48.67701" lon="6.12604">
        <ele>351</ele>
        <time>2012-03-17T14:27:13Z</time>
      </trkpt>
      <trkpt lat="48.6771" lon="6.12609">
        <ele>350</ele>
        <time>2012-03-17T14:27:15Z</time>
      </trkpt>
      <trkpt lat="48.67719" lon="6.12614">
        <ele>352</ele>
        <time>2012-03-17T14:27:17Z</time>
      </trkpt>
      <trkpt lat="48.67728" lon="6.12619">
        <ele>351</ele>
        <time>2012-03-17T14:27:19Z</time>
      </trkpt>
      <trkpt lat="48.67738" lon="6.12622">
        <ele>351</ele>
        <time>2012-03-17T14:27:21Z</time>
      </trkpt>
      <trkpt lat="48.67751" lon="6.12624">
        <ele>352</ele>
        <time>2012-03-17T14:27:23Z</time>
      </trkpt>
      <trkpt lat="48.67761" lon="6.12626">
        <ele>355</ele>
        <time>2012-03-17T14:27:25Z</time>
      </trkpt>
      <trkpt lat="48.67772" lon="6.12627">
        <ele>353</ele>
        <time>2012-03-17T14:27:27Z</time>
      </trkpt>
      <trkpt lat="48.67782" lon="6.12627">
        <ele>355</ele>
        <time>2012-03-17T14:27:29Z</time>
      </trkpt>
      <trkpt lat="48.6779" lon="6.12626">
        <ele>355</ele>
        <time>2012-03-17T14:27:31Z</time>
      </trkpt>
      <trkpt lat="48.678" lon="6.12628">
        <ele>358</ele>
        <time>2012-03-17T14:27:33Z</time>
      </trkpt>
      <trkpt lat="48.67809" lon="6.12629">
        <ele>357</ele>
        <time>2012-03-17T14:27:35Z</time>
      </trkpt>
      <trkpt lat="48.67819" lon="6.12629">
        <ele>364</ele>
        <time>2012-03-17T14:27:37Z</time>
      </trkpt>
      <trkpt lat="48.67826" lon="6.12632">
        <ele>361</ele>
        <time>2012-03-17T14:27:39Z</time>
      </trkpt>
      <trkpt lat="48.67835" lon="6.12633">
        <ele>364</ele>
        <time>2012-03-17T14:27:41Z</time>
      </trkpt>
      <trkpt lat="48.67844" lon="6.12634">
        <ele>358</ele>
        <time>2012-03-17T14:27:43Z</time>
      </trkpt>
      <trkpt lat="48.67855" lon="6.12633">
        <ele>357</ele>
        <time>2012-03-17T14:27:45Z</time>
      </trkpt>
      <trkpt lat="48.67864" lon="6.12635">
        <ele>359</ele>
        <time>2012-03-17T14:27:47Z</time>
      </trkpt>
      <trkpt lat="48.67875" lon="6.12638">
        <ele>359</ele>
        <time>2012-03-17T14:27:49Z</time>
      </trkpt>
      <trkpt lat="48.67884" lon="6.12639">
        <ele>359</ele>
        <time>2012-03-17T14:27:51Z</time>
      </trkpt>
      <trkpt lat="48.67895" lon="6.12637">
        <ele>358</ele>
        <time>2012-03-17T14:27:53Z</time>
      </trkpt>
      <trkpt lat="48.67907" lon="6.12638">
        <ele>359</ele>
        <time>2012-03-17T14:27:55Z</time>
      </trkpt>
      <trkpt lat="48.67917" lon="6.12638">
        <ele>355</ele>
        <time>2012-03-17T14:27:57Z</time>
      </trkpt>
      <trkpt lat="48.67927" lon="6.12638">
        <ele>355</ele>
        <time>2012-03-17T14:27:59Z</time>
      </trkpt>
      <trkpt lat="48.67937" lon="6.12633">
        <ele>350</ele>
        <time>2012-03-17T14:28:01Z</time>
      </trkpt>
      <trkpt lat="48.67948" lon="6.12627">
        <ele>356</ele>
        <time>2012-03-17T14:28:03Z</time>
      </trkpt>
      <trkpt lat="48.67958" lon="6.12619">
        <ele>355</ele>
        <time>2012-03-17T14:28:05Z</time>
      </trkpt>
      <trkpt lat="48.67967" lon="6.12612">
        <ele>350</ele>
        <time>2012-03-17T14:28:07Z</time>
      </trkpt>
      <trkpt lat="48.67975" lon="6.12605">
        <ele>356</ele>
        <time>2012-03-17T14:28:09Z</time>
      </trkpt>
      <trkpt lat="48.67986" lon="6.12597">
        <ele>352</ele>
        <time>2012-03-17T14:28:11Z</time>
      </trkpt>
      <trkpt lat="48.67993" lon="6.12589">
        <ele>353</ele>
        <time>2012-03-17T14:28:13Z</time>
      </trkpt>
      <trkpt lat="48.68" lon="6.12581">
        <ele>362</ele>
        <time>2012-03-17T14:28:15Z</time>
      </trkpt>
      <trkpt lat="48.68008" lon="6.12576">
        <ele>360</ele>
        <time>2012-03-17T14:28:17Z</time>
      </trkpt>
      <trkpt lat="48.68016" lon="6.12574">
        <ele>359</ele>
        <time>2012-03-17T14:28:19Z</time>
      </trkpt>
      <trkpt lat="48.68028" lon="6.12575">
        <ele>351</ele>
        <time>2012-03-17T14:28:21Z</time>
      </trkpt>
      <trkpt lat="48.68039" lon="6.12576">
        <ele>350</ele>
        <time>2012-03-17T14:28:23Z</time>
      </trkpt>
      <trkpt lat="48.68051" lon="6.12578">
        <ele>347</ele>
        <time>2012-03-17T14:28:25Z</time>
      </trkpt>
      <trkpt lat="48.68063" lon="6.12578">
        <ele>349</ele>
        <time>2012-03-17T14:28:27Z</time>
      </trkpt>
      <trkpt lat="48.68072" lon="6.1258">
        <ele>352</ele>
        <time>2012-03-17T14:28:29Z</time>
      </trkpt>
      <trkpt lat="48.68084" lon="6.1258">
        <ele>354</ele>
        <time>2012-03-17T14:28:31Z</time>
      </trkpt>
      <trkpt lat="48.68095" lon="6.12578">
        <ele>354</ele>
        <time>2012-03-17T14:28:33Z</time>
      </trkpt>
      <trkpt lat="48.68107" lon="6.12574">
        <ele>355</ele>
        <time>2012-03-17T14:28:35Z</time>
      </trkpt>
      <trkpt lat="48.68117" lon="6.12575">
        <ele>352</ele>
        <time>2012-03-17T14:28:37Z</time>
      </trkpt>
      <trkpt lat="48.68127" lon="6.12577">
        <ele>352</ele>
        <time>2012-03-17T14:28:39Z</time>
      </trkpt>
      <trkpt lat="48.68136" lon="6.12577">
        <ele>352</ele>
        <time>2012-03-17T14:28:41Z</time>
      </trkpt>
      <trkpt lat="48.68145" lon="6.12582">
        <ele>351</ele>
        <time>2012-03-17T14:28:43Z</time>
      </trkpt>
      <trkpt lat="48.68154" lon="6.1259">
        <ele>349</ele>
        <time>2012-03-17T14:28:45Z</time>
      </trkpt>
      <trkpt lat="48.68164" lon="6.12599">
        <ele>347</ele>
        <time>2012-03-17T14:28:47Z</time>
      </trkpt>
      <trkpt lat="48.68173" lon="6.12607">
        <ele>343</ele>
        <time>2012-03-17T14:28:49Z</time>
      </trkpt>
      <trkpt lat="48.68181" lon="6.12612">
        <ele>343</ele>
        <time>2012-03-17T14:28:51Z</time>
      </trkpt>
      <trkpt lat="48.6819" lon="6.12618">
        <ele>347</ele>
        <time>2012-03-17T14:28:53Z</time>
      </trkpt>
      <trkpt lat="48.68198" lon="6.12626">
        <ele>347</ele>
        <time>2012-03-17T14:28:55Z</time>
      </trkpt>
      <trkpt lat="48.68207" lon="6.12636">
        <ele>344</ele>
        <time>2012-03-17T14:28:57Z</time>
      </trkpt>
      <trkpt lat="48.68217" lon="6.12647">
        <ele>342</ele>
        <time>2012-03-17T14:28:59Z</time>
      </trkpt>
      <trkpt lat="48.68227" lon="6.12657">
        <ele>341</ele>
        <time>2012-03-17T14:29:01Z</time>
      </trkpt>
      <trkpt lat="48.68237" lon="6.12665">
        <ele>339</ele>
        <time>2012-03-17T14:29:03Z</time>
      </trkpt>
      <trkpt lat="48.68247" lon="6.12675">
        <ele>337</ele>
        <time>2012-03-17T14:29:05Z</time>
      </trkpt>
      <trkpt lat="48.68258" lon="6.12686">
        <ele>336</ele>
        <time>2012-03-17T14:29:07Z</time>
      </trkpt>
      <trkpt lat="48.68269" lon="6.12697">
        <ele>336</ele>
        <time>2012-03-17T14:29:09Z</time>
      </trkpt>
      <trkpt lat="48.68279" lon="6.12708">
        <ele>335</ele>
        <time>2012-03-17T14:29:11Z</time>
      </trkpt>
      <trkpt lat="48.68289" lon="6.12719">
        <ele>332</ele>
        <time>2012-03-17T14:29:13Z</time>
      </trkpt>
      <trkpt lat="48.68299" lon="6.1273">
        <ele>332</ele>
        <time>2012-03-17T14:29:15Z</time>
      </trkpt>
      <trkpt lat="48.68309" lon="6.1274">
        <ele>333</ele>
        <time>2012-03-17T14:29:17Z</time>
      </trkpt>
      <trkpt lat="48.68319" lon="6.12749">
        <ele>334</ele>
        <time>2012-03-17T14:29:19Z</time>
      </trkpt>
      <trkpt lat="48.68327" lon="6.12758">
        <ele>334</ele>
        <time>2012-03-17T14:29:21Z</time>
      </trkpt>
      <trkpt lat="48.68337" lon="6.12767">
        <ele>333</ele>
        <time>2012-03-17T14:29:23Z</time>
      </trkpt>
      <trkpt lat="48.68346" lon="6.12777">
        <ele>338</ele>
        <time>2012-03-17T14:29:25Z</time>
      </trkpt>
      <trkpt lat="48.68355" lon="6.12786">
        <ele>335</ele>
        <time>2012-03-17T14:29:27Z</time>
      </trkpt>
      <trkpt lat="48.68364" lon="6.12796">
        <ele>334</ele>
        <time>2012-03-17T14:29:29Z</time>
      </trkpt>
      <trkpt lat="48.68375" lon="6.12806">
        <ele>336</ele>
        <time>2012-03-17T14:29:31Z</time>
      </trkpt>
      <trkpt lat="48.68385" lon="6.12814">
        <ele>337</ele>
        <time>2012-03-17T14:29:33Z</time>
      </trkpt>
      <trkpt lat="48.68394" lon="6.12823">
        <ele>336</ele>
        <time>2012-03-17T14:29:35Z</time>
      </trkpt>
      <trkpt lat="48.68403" lon="6.12833">
        <ele>336</ele>
        <time>2012-03-17T14:29:37Z</time>
      </trkpt>
      <trkpt lat="48.68413" lon="6.12844">
        <ele>334</ele>
        <time>2012-03-17T14:29:39Z</time>
      </trkpt>
      <trkpt lat="48.68425" lon="6.12854">
        <ele>333</ele>
        <time>2012-03-17T14:29:41Z</time>
      </trkpt>
      <trkpt lat="48.68434" lon="6.12864">
        <ele>331</ele>
        <time>2012-03-17T14:29:43Z</time>
      </trkpt>
      <trkpt lat="48.68444" lon="6.12875">
        <ele>331</ele>
        <time>2012-03-17T14:29:45Z</time>
      </trkpt>
      <trkpt lat="48.68453" lon="6.12886">
        <ele>331</ele>
        <time>2012-03-17T14:29:47Z</time>
      </trkpt>
      <trkpt lat="48.68464" lon="6.12889">
        <ele>329</ele>
        <time>2012-03-17T14:29:49Z</time>
      </trkpt>
      <trkpt lat="48.68472" lon="6.12887">
        <ele>328</ele>
        <time>2012-03-17T14:29:51Z</time>
      </trkpt>
      <trkpt lat="48.68477" lon="6.12883">
        <ele>332</ele>
        <time>2012-03-17T14:29:53Z</time>
      </trkpt>
      <trkpt lat="48.68483" lon="6.1288">
        <ele>336</ele>
        <time>2012-03-17T14:29:55Z</time>
      </trkpt>
      <trkpt lat="48.68489" lon="6.12876">
        <ele>335</ele>
        <time>2012-03-17T14:29:57Z</time>
      </trkpt>
      <trkpt lat="48.68496" lon="6.12871">
        <ele>330</ele>
        <time>2012-03-17T14:29:59Z</time>
      </trkpt>
      <trkpt lat="48.68504" lon="6.12865">
        <ele>329</ele>
        <time>2012-03-17T14:30:01Z</time>
      </trkpt>
      <trkpt lat="48.68511" lon="6.1286">
        <ele>331</ele>
        <time>2012-03-17T14:30:03Z</time>
      </trkpt>
      <trkpt lat="48.68517" lon="6.12857">
        <ele>333</ele>
        <time>2012-03-17T14:30:05Z</time>
      </trkpt>
      <trkpt lat="48.68524" lon="6.12852">
        <ele>332</ele>
        <time>2012-03-17T14:30:07Z</time>
      </trkpt>
      <trkpt lat="48.68532" lon="6.12847">
        <ele>332</ele>
        <time>2012-03-17T14:30:09Z</time>
      </trkpt>
      <trkpt lat="48.6854" lon="6.12842">
        <ele>333</ele>
        <time>2012-03-17T14:30:11Z</time>
      </trkpt>
      <trkpt lat="48.68549" lon="6.12837">
        <ele>332</ele>
        <time>2012-03-17T14:30:13Z</time>
      </trkpt>
      <trkpt lat="48.68556" lon="6.12831">
        <ele>331</ele>
        <time>2012-03-17T14:30:15Z</time>
      </trkpt>
      <trkpt lat="48.68564" lon="6.12826">
        <ele>331</ele>
        <time>2012-03-17T14:30:17Z</time>
      </trkpt>
      <trkpt lat="48.68571" lon="6.12821">
        <ele>333</ele>
        <time>2012-03-17T14:30:19Z</time>
      </trkpt>
      <trkpt lat="48.68578" lon="6.12816">
        <ele>334</ele>
        <time>2012-03-17T14:30:21Z</time>
      </trkpt>
      <trkpt lat="48.68585" lon="6.12814">
        <ele>334</ele>
        <time>2012-03-17T14:30:23Z</time>
      </trkpt>
      <trkpt lat="48.68594" lon="6.1281">
        <ele>333</ele>
        <time>2012-03-17T14:30:25Z</time>
      </trkpt>
      <trkpt lat="48.68605" lon="6.12806">
        <ele>333</ele>
        <time>2012-03-17T14:30:27Z</time>
      </trkpt>
      <trkpt lat="48.68613" lon="6.12804">
        <ele>333</ele>
        <time>2012-03-17T14:30:29Z</time>
      </trkpt>
      <trkpt lat="48.68622" lon="6.12802">
        <ele>332</ele>
        <time>2012-03-17T14:30:31Z</time>
      </trkpt>
      <trkpt lat="48.68631" lon="6.12801">
        <ele>331</ele>
        <time>2012-03-17T14:30:33Z</time>
      </trkpt>
      <trkpt lat="48.68639" lon="6.128">
        <ele>330</ele>
        <time>2012-03-17T14:30:35Z</time>
      </trkpt>
      <trkpt lat="48.68647" lon="6.12798">
        <ele>329</ele>
        <time>2012-03-17T14:30:37Z</time>
      </trkpt>
      <trkpt lat="48.68656" lon="6.12796">
        <ele>328</ele>
        <time>2012-03-17T14:30:39Z</time>
      </trkpt>
      <trkpt lat="48.68665" lon="6.12793">
        <ele>329</ele>
        <time>2012-03-17T14:30:41Z</time>
      </trkpt>
      <trkpt lat="48.68673" lon="6.1279">
        <ele>331</ele>
        <time>2012-03-17T14:30:43Z</time>
      </trkpt>
      <trkpt lat="48.68683" lon="6.12787">
        <ele>332</ele>
        <time>2012-03-17T14:30:45Z</time>
      </trkpt>
      <trkpt lat="48.68691" lon="6.12784">
        <ele>331</ele>
        <time>2012-03-17T14:30:47Z</time>
      </trkpt>
      <trkpt lat="48.68699" lon="6.12779">
        <ele>335</ele>
        <time>2012-03-17T14:30:49Z</time>
      </trkpt>
      <trkpt lat="48.68707" lon="6.12773">
        <ele>335</ele>
        <time>2012-03-17T14:30:51Z</time>
      </trkpt>
      <trkpt lat="48.68715" lon="6.12769">
        <ele>336</ele>
        <time>2012-03-17T14:30:53Z</time>
      </trkpt>
      <trkpt lat="48.68723" lon="6.12764">
        <ele>335</ele>
        <time>2012-03-17T14:30:55Z</time>
      </trkpt>
      <trkpt lat="48.68732" lon="6.1276">
        <ele>332</ele>
        <time>2012-03-17T14:30:57Z</time>
      </trkpt>
      <trkpt lat="48.68741" lon="6.12756">
        <ele>331</ele>
        <time>2012-03-17T14:30:59Z</time>
      </trkpt>
      <trkpt lat="48.68749" lon="6.12752">
        <ele>334</ele>
        <time>2012-03-17T14:31:01Z</time>
      </trkpt>
      <trkpt lat="48.68757" lon="6.12749">
        <ele>338</ele>
        <time>2012-03-17T14:31:03Z</time>
      </trkpt>
      <trkpt lat="48.68766" lon="6.12746">
        <ele>337</ele>
        <time>2012-03-17T14:31:05Z</time>
      </trkpt>
      <trkpt lat="48.68775" lon="6.12742">
        <ele>339</ele>
        <time>2012-03-17T14:31:07Z</time>
      </trkpt>
      <trkpt lat="48.68784" lon="6.12739">
        <ele>340</ele>
        <time>2012-03-17T14:31:09Z</time>
      </trkpt>
      <trkpt lat="48.68791" lon="6.12743">
        <ele>342</ele>
        <time>2012-03-17T14:31:11Z</time>
      </trkpt>
      <trkpt lat="48.68797" lon="6.12753">
        <ele>342</ele>
        <time>2012-03-17T14:31:13Z</time>
      </trkpt>
      <trkpt lat="48.68799" lon="6.12768">
        <ele>341</ele>
        <time>2012-03-17T14:31:15Z</time>
      </trkpt>
      <trkpt lat="48.68802" lon="6.12786">
        <ele>338</ele>
        <time>2012-03-17T14:31:17Z</time>
      </trkpt>
      <trkpt lat="48.68803" lon="6.12805">
        <ele>335</ele>
        <time>2012-03-17T14:31:19Z</time>
      </trkpt>
      <trkpt lat="48.68805" lon="6.12827">
        <ele>334</ele>
        <time>2012-03-17T14:31:21Z</time>
      </trkpt>
      <trkpt lat="48.68806" lon="6.12849">
        <ele>332</ele>
        <time>2012-03-17T14:31:23Z</time>
      </trkpt>
      <trkpt lat="48.68807" lon="6.12872">
        <ele>330</ele>
        <time>2012-03-17T14:31:25Z</time>
      </trkpt>
      <trkpt lat="48.68808" lon="6.12896">
        <ele>330</ele>
        <time>2012-03-17T14:31:27Z</time>
      </trkpt>
      <trkpt lat="48.6881" lon="6.12922">
        <ele>329</ele>
        <time>2012-03-17T14:31:29Z</time>
      </trkpt>
      <trkpt lat="48.68812" lon="6.12949">
        <ele>328</ele>
        <time>2012-03-17T14:31:31Z</time>
      </trkpt>
      <trkpt lat="48.68814" lon="6.12978">
        <ele>328</ele>
        <time>2012-03-17T14:31:33Z</time>
      </trkpt>
      <trkpt lat="48.68815" lon="6.13007">
        <ele>326</ele>
        <time>2012-03-17T14:31:35Z</time>
      </trkpt>
      <trkpt lat="48.68817" lon="6.13038">
        <ele>325</ele>
        <time>2012-03-17T14:31:37Z</time>
      </trkpt>
      <trkpt lat="48.68819" lon="6.1307">
        <ele>325</ele>
        <time>2012-03-17T14:31:39Z</time>
      </trkpt>
      <trkpt lat="48.68823" lon="6.13101">
        <ele>324</ele>
        <time>2012-03-17T14:31:41Z</time>
      </trkpt>
      <trkpt lat="48.68826" lon="6.13128">
        <ele>323</ele>
        <time>2012-03-17T14:31:43Z</time>
      </trkpt>
      <trkpt lat="48.68829" lon="6.13151">
        <ele>323</ele>
        <time>2012-03-17T14:31:45Z</time>
      </trkpt>
      <trkpt lat="48.68831" lon="6.1317">
        <ele>322</ele>
        <time>2012-03-17T14:31:47Z</time>
      </trkpt>
      <trkpt lat="48.68828" lon="6.13182">
        <ele>322</ele>
        <time>2012-03-17T14:31:49Z</time>
      </trkpt>
      <trkpt lat="48.68821" lon="6.13184">
        <ele>324</ele>
        <time>2012-03-17T14:31:51Z</time>
      </trkpt>
      <trkpt lat="48.68811" lon="6.13176">
        <ele>328</ele>
        <time>2012-03-17T14:31:53Z</time>
      </trkpt>
      <trkpt lat="48.68799" lon="6.13166">
        <ele>330</ele>
        <time>2012-03-17T14:31:55Z</time>
      </trkpt>
      <trkpt lat="48.68785" lon="6.13155">
        <ele>331</ele>
        <time>2012-03-17T14:31:57Z</time>
      </trkpt>
      <trkpt lat="48.68769" lon="6.13147">
        <ele>331</ele>
        <time>2012-03-17T14:31:59Z</time>
      </trkpt>
      <trkpt lat="48.68751" lon="6.13141">
        <ele>329</ele>
        <time>2012-03-17T14:32:01Z</time>
      </trkpt>
      <trkpt lat="48.6873" lon="6.13138">
        <ele>326</ele>
        <time>2012-03-17T14:32:03Z</time>
      </trkpt>
      <trkpt lat="48.6871" lon="6.13137">
        <ele>326</ele>
        <time>2012-03-17T14:32:05Z</time>
      </trkpt>
      <trkpt lat="48.68689" lon="6.13137">
        <ele>325</ele>
        <time>2012-03-17T14:32:07Z</time>
      </trkpt>
      <trkpt lat="48.68668" lon="6.13139">
        <ele>324</ele>
        <time>2012-03-17T14:32:09Z</time>
      </trkpt>
      <trkpt lat="48.68647" lon="6.13142">
        <ele>324</ele>
        <time>2012-03-17T14:32:11Z</time>
      </trkpt>
      <trkpt lat="48.68625" lon="6.13149">
        <ele>323</ele>
        <time>2012-03-17T14:32:13Z</time>
      </trkpt>
      <trkpt lat="48.68603" lon="6.13161">
        <ele>318</ele>
        <time>2012-03-17T14:32:15Z</time>
      </trkpt>
      <trkpt lat="48.68582" lon="6.13177">
        <ele>316</ele>
        <time>2012-03-17T14:32:17Z</time>
      </trkpt>
      <trkpt lat="48.68562" lon="6.13197">
        <ele>313</ele>
        <time>2012-03-17T14:32:19Z</time>
      </trkpt>
      <trkpt lat="48.68543" lon="6.13219">
        <ele>312</ele>
        <time>2012-03-17T14:32:21Z</time>
      </trkpt>
      <trkpt lat="48.68525" lon="6.13244">
        <ele>313</ele>
        <time>2012-03-17T14:32:23Z</time>
      </trkpt>
      <trkpt lat="48.68509" lon="6.13274">
        <ele>314</ele>
        <time>2012-03-17T14:32:25Z</time>
      </trkpt>
      <trkpt lat="48.68496" lon="6.13306">
        <ele>313</ele>
        <time>2012-03-17T14:32:27Z</time>
      </trkpt>
      <trkpt lat="48.68485" lon="6.13339">
        <ele>312</ele>
        <time>2012-03-17T14:32:29Z</time>
      </trkpt>
      <trkpt lat="48.68477" lon="6.13375">
        <ele>310</ele>
        <time>2012-03-17T14:32:31Z</time>
      </trkpt>
      <trkpt lat="48.68471" lon="6.13414">
        <ele>303</ele>
        <time>2012-03-17T14:32:33Z</time>
      </trkpt>
      <trkpt lat="48.68468" lon="6.13454">
        <ele>297</ele>
        <time>2012-03-17T14:32:35Z</time>
      </trkpt>
      <trkpt lat="48.68469" lon="6.13497">
        <ele>292</ele>
        <time>2012-03-17T14:32:37Z</time>
      </trkpt>
      <trkpt lat="48.68472" lon="6.13541">
        <ele>288</ele>
        <time>2012-03-17T14:32:39Z</time>
      </trkpt>
      <trkpt lat="48.68475" lon="6.13586">
        <ele>284</ele>
        <time>2012-03-17T14:32:41Z</time>
      </trkpt>
      <trkpt lat="48.68478" lon="6.1363">
        <ele>282</ele>
        <time>2012-03-17T14:32:43Z</time>
      </trkpt>
      <trkpt lat="48.6848" lon="6.13674">
        <ele>280</ele>
        <time>2012-03-17T14:32:45Z</time>
      </trkpt>
      <trkpt lat="48.68478" lon="6.13717">
        <ele>278</ele>
        <time>2012-03-17T14:32:47Z</time>
      </trkpt>
      <trkpt lat="48.68472" lon="6.13761">
        <ele>277</ele>
        <time>2012-03-17T14:32:49Z</time>
      </trkpt>
      <trkpt lat="48.68459" lon="6.138">
        <ele>278</ele>
        <time>2012-03-17T14:32:51Z</time>
      </trkpt>
      <trkpt lat="48.68443" lon="6.13836">
        <ele>277</ele>
        <time>2012-03-17T14:32:53Z</time>
      </trkpt>
      <trkpt lat="48.68422" lon="6.13866">
        <ele>278</ele>
        <time>2012-03-17T14:32:55Z</time>
      </trkpt>
      <trkpt lat="48.68399" lon="6.13892">
        <ele>276</ele>
        <time>2012-03-17T14:32:57Z</time>
      </trkpt>
      <trkpt lat="48.68378" lon="6.13911">
        <ele>277</ele>
        <time>2012-03-17T14:32:59Z</time>
      </trkpt>
      <trkpt lat="48.68364" lon="6.13922">
        <ele>274</ele>
        <time>2012-03-17T14:33:01Z</time>
      </trkpt>
      <trkpt lat="48.68351" lon="6.13921">
        <ele>274</ele>
        <time>2012-03-17T14:33:03Z</time>
      </trkpt>
      <trkpt lat="48.68341" lon="6.13918">
        <ele>275</ele>
        <time>2012-03-17T14:33:05Z</time>
      </trkpt>
      <trkpt lat="48.68332" lon="6.13915">
        <ele>276</ele>
        <time>2012-03-17T14:33:07Z</time>
      </trkpt>
      <trkpt lat="48.68324" lon="6.1392">
        <ele>278</ele>
        <time>2012-03-17T14:33:09Z</time>
      </trkpt>
      <trkpt lat="48.68315" lon="6.13928">
        <ele>277</ele>
        <time>2012-03-17T14:33:11Z</time>
      </trkpt>
      <trkpt lat="48.68304" lon="6.13938">
        <ele>274</ele>
        <time>2012-03-17T14:33:13Z</time>
      </trkpt>
      <trkpt lat="48.6829" lon="6.13951">
        <ele>273</ele>
        <time>2012-03-17T14:33:15Z</time>
      </trkpt>
      <trkpt lat="48.68274" lon="6.13965">
        <ele>273</ele>
        <time>2012-03-17T14:33:17Z</time>
      </trkpt>
      <trkpt lat="48.68256" lon="6.13982">
        <ele>272</ele>
        <time>2012-03-17T14:33:19Z</time>
      </trkpt>
      <trkpt lat="48.68237" lon="6.13999">
        <ele>271</ele>
        <time>2012-03-17T14:33:21Z</time>
      </trkpt>
      <trkpt lat="48.68214" lon="6.14018">
        <ele>266</ele>
        <time>2012-03-17T14:33:23Z</time>
      </trkpt>
      <trkpt lat="48.68191" lon="6.14034">
        <ele>261</ele>
        <time>2012-03-17T14:33:25Z</time>
      </trkpt>
      <trkpt lat="48.68169" lon="6.1405">
        <ele>258</ele>
        <time>2012-03-17T14:33:27Z</time>
      </trkpt>
      <trkpt lat="48.68147" lon="6.14066">
        <ele>255</ele>
        <time>2012-03-17T14:33:29Z</time>
      </trkpt>
      <trkpt lat="48.68126" lon="6.14083">
        <ele>253</ele>
        <time>2012-03-17T14:33:31Z</time>
      </trkpt>
      <trkpt lat="48.68105" lon="6.141">
        <ele>252</ele>
        <time>2012-03-17T14:33:33Z</time>
      </trkpt>
      <trkpt lat="48.68083" lon="6.14114">
        <ele>250</ele>
        <time>2012-03-17T14:33:35Z</time>
      </trkpt>
      <trkpt lat="48.68061" lon="6.14126">
        <ele>251</ele>
        <time>2012-03-17T14:33:37Z</time>
      </trkpt>
      <trkpt lat="48.68039" lon="6.14136">
        <ele>250</ele>
        <time>2012-03-17T14:33:39Z</time>
      </trkpt>
      <trkpt lat="48.68016" lon="6.14145">
        <ele>249</ele>
        <time>2012-03-17T14:33:41Z</time>
      </trkpt>
      <trkpt lat="48.67994" lon="6.14154">
        <ele>247</ele>
        <time>2012-03-17T14:33:43Z</time>
      </trkpt>
      <trkpt lat="48.67972" lon="6.14159">
        <ele>247</ele>
        <time>2012-03-17T14:33:45Z</time>
      </trkpt>
      <trkpt lat="48.67952" lon="6.14153">
        <ele>248</ele>
        <time>2012-03-17T14:33:47Z</time>
      </trkpt>
      <trkpt lat="48.67937" lon="6.14142">
        <ele>248</ele>
        <time>2012-03-17T14:33:49Z</time>
      </trkpt>
      <trkpt lat="48.67923" lon="6.14138">
        <ele>248</ele>
        <time>2012-03-17T14:33:51Z</time>
      </trkpt>
      <trkpt lat="48.67909" lon="6.14145">
        <ele>249</ele>
        <time>2012-03-17T14:33:53Z</time>
      </trkpt>
      <trkpt lat="48.67898" lon="6.14156">
        <ele>246</ele>
        <time>2012-03-17T14:33:55Z</time>
      </trkpt>
      <trkpt lat="48.67894" lon="6.14173">
        <ele>245</ele>
        <time>2012-03-17T14:33:57Z</time>
      </trkpt>
      <trkpt lat="48.67894" lon="6.14192">
        <ele>240</ele>
        <time>2012-03-17T14:33:59Z</time>
      </trkpt>
      <trkpt lat="48.67902" lon="6.14211">
        <ele>236</ele>
        <time>2012-03-17T14:34:01Z</time>
      </trkpt>
      <trkpt lat="48.67914" lon="6.14229">
        <ele>234</ele>
        <time>2012-03-17T14:34:03Z</time>
      </trkpt>
      <trkpt lat="48.67926" lon="6.14249">
        <ele>232</ele>
        <time>2012-03-17T14:34:05Z</time>
      </trkpt>
      <trkpt lat="48.67939" lon="6.14269">
        <ele>231</ele>
        <time>2012-03-17T14:34:07Z</time>
      </trkpt>
      <trkpt lat="48.67952" lon="6.14291">
        <ele>230</ele>
        <time>2012-03-17T14:34:09Z</time>
      </trkpt>
      <trkpt lat="48.67964" lon="6.14313">
        <ele>229</ele>
        <time>2012-03-17T14:34:11Z</time>
      </trkpt>
      <trkpt lat="48.67977" lon="6.14337">
        <ele>228</ele>
        <time>2012-03-17T14:34:13Z</time>
      </trkpt>
      <trkpt lat="48.67988" lon="6.14359">
        <ele>227</ele>
        <time>2012-03-17T14:34:15Z</time>
      </trkpt>
      <trkpt lat="48.67998" lon="6.14378">
        <ele>226</ele>
        <time>2012-03-17T14:34:17Z</time>
      </trkpt>
      <trkpt lat="48.68006" lon="6.14393">
        <ele>224</ele>
        <time>2012-03-17T14:34:19Z</time>
      </trkpt>
      <trkpt lat="48.68013" lon="6.14407">
        <ele>223</ele>
        <time>2012-03-17T14:34:21Z</time>
      </trkpt>
      <trkpt lat="48.6802" lon="6.1442">
        <ele>222</ele>
        <time>2012-03-17T14:34:23Z</time>
      </trkpt>
      <trkpt lat="48.68028" lon="6.14433">
        <ele>219</ele>
        <time>2012-03-17T14:34:25Z</time>
      </trkpt>
      <trkpt lat="48.68037" lon="6.14448">
        <ele>221</ele>
        <time>2012-03-17T14:34:27Z</time>
      </trkpt>
      <trkpt lat="48.68045" lon="6.14465">
        <ele>221</ele>
        <time>2012-03-17T14:34:29Z</time>
      </trkpt>
      <trkpt lat="48.68054" lon="6.14483">
        <ele>221</ele>
        <time>2012-03-17T14:34:31Z</time>
      </trkpt>
      <trkpt lat="48.68063" lon="6.14501">
        <ele>220</ele>
        <time>2012-03-17T14:34:33Z</time>
      </trkpt>
      <trkpt lat="48.68073" lon="6.1452">
        <ele>220</ele>
        <time>2012-03-17T14:34:35Z</time>
      </trkpt>
      <trkpt lat="48.68081" lon="6.14538">
        <ele>220</ele>
        <time>2012-03-17T14:34:37Z</time>
      </trkpt>
      <trkpt lat="48.68091" lon="6.14557">
        <ele>220</ele>
        <time>2012-03-17T14:34:39Z</time>
      </trkpt>
      <trkpt lat="48.68101" lon="6.14575">
        <ele>221</ele>
        <time>2012-03-17T14:34:41Z</time>
      </trkpt>
      <trkpt lat="48.68111" lon="6.14593">
        <ele>222</ele>
        <time>2012-03-17T14:34:43Z</time>
      </trkpt>
      <trkpt lat="48.6812" lon="6.14611">
        <ele>223</ele>
        <time>2012-03-17T14:34:45Z</time>
      </trkpt>
      <trkpt lat="48.68128" lon="6.14628">
        <ele>224</ele>
        <time>2012-03-17T14:34:47Z</time>
      </trkpt>
      <trkpt lat="48.68136" lon="6.14644">
        <ele>226</ele>
        <time>2012-03-17T14:34:49Z</time>
      </trkpt>
      <trkpt lat="48.68145" lon="6.14661">
        <ele>226</ele>
        <time>2012-03-17T14:34:51Z</time>
      </trkpt>
      <trkpt lat="48.68152" lon="6.14676">
        <ele>227</ele>
        <time>2012-03-17T14:34:53Z</time>
      </trkpt>
      <trkpt lat="48.6816" lon="6.14692">
        <ele>228</ele>
        <time>2012-03-17T14:34:55Z</time>
      </trkpt>
      <trkpt lat="48.68168" lon="6.14709">
        <ele>228</ele>
        <time>2012-03-17T14:34:57Z</time>
      </trkpt>
      <trkpt lat="48.68177" lon="6.14726">
        <ele>228</ele>
        <time>2012-03-17T14:34:59Z</time>
      </trkpt>
      <trkpt lat="48.68186" lon="6.14744">
        <ele>227</ele>
        <time>2012-03-17T14:35:01Z</time>
      </trkpt>
      <trkpt lat="48.68196" lon="6.14761">
        <ele>227</ele>
        <time>2012-03-17T14:35:03Z</time>
      </trkpt>
      <trkpt lat="48.68206" lon="6.1478">
        <ele>226</ele>
        <time>2012-03-17T14:35:05Z</time>
      </trkpt>
      <trkpt lat="48.68217" lon="6.148">
        <ele>226</ele>
        <time>2012-03-17T14:35:07Z</time>
      </trkpt>
      <trkpt lat="48.68229" lon="6.14819">
        <ele>226</ele>
        <time>2012-03-17T14:35:09Z</time>
      </trkpt>
      <trkpt lat="48.68243" lon="6.14841">
        <ele>223</ele>
        <time>2012-03-17T14:35:11Z</time>
      </trkpt>
      <trkpt lat="48.68258" lon="6.14863">
        <ele>219</ele>
        <time>2012-03-17T14:35:13Z</time>
      </trkpt>
      <trkpt lat="48.68274" lon="6.14887">
        <ele>218</ele>
        <time>2012-03-17T14:35:15Z</time>
      </trkpt>
      <trkpt lat="48.68288" lon="6.1491">
        <ele>217</ele>
        <time>2012-03-17T14:35:17Z</time>
      </trkpt>
      <trkpt lat="48.68303" lon="6.14933">
        <ele>216</ele>
        <time>2012-03-17T14:35:19Z</time>
      </trkpt>
      <trkpt lat="48.68319" lon="6.14955">
        <ele>213</ele>
        <time>2012-03-17T14:35:21Z</time>
      </trkpt>
      <trkpt lat="48.68333" lon="6.14975">
        <ele>211</ele>
        <time>2012-03-17T14:35:23Z</time>
      </trkpt>
      <trkpt lat="48.68345" lon="6.14991">
        <ele>210</ele>
        <time>2012-03-17T14:35:25Z</time>
      </trkpt>
      <trkpt lat="48.68354" lon="6.15005">
        <ele>209</ele>
        <time>2012-03-17T14:35:27Z</time>
      </trkpt>
      <trkpt lat="48.68363" lon="6.15017">
        <ele>208</ele>
        <time>2012-03-17T14:35:29Z</time>
      </trkpt>
      <trkpt lat="48.6837" lon="6.1503">
        <ele>207</ele>
        <time>2012-03-17T14:35:31Z</time>
      </trkpt>
      <trkpt lat="48.68376" lon="6.15046">
        <ele>207</ele>
        <time>2012-03-17T14:35:33Z</time>
      </trkpt>
      <trkpt lat="48.68383" lon="6.15063">
        <ele>207</ele>
        <time>2012-03-17T14:35:35Z</time>
      </trkpt>
      <trkpt lat="48.68391" lon="6.1508">
        <ele>207</ele>
        <time>2012-03-17T14:35:37Z</time>
      </trkpt>
      <trkpt lat="48.68398" lon="6.15099">
        <ele>207</ele>
        <time>2012-03-17T14:35:39Z</time>
      </trkpt>
      <trkpt lat="48.68406" lon="6.15119">
        <ele>207</ele>
        <time>2012-03-17T14:35:41Z</time>
      </trkpt>
      <trkpt lat="48.68412" lon="6.1514">
        <ele>207</ele>
        <time>2012-03-17T14:35:43Z</time>
      </trkpt>
      <trkpt lat="48.68417" lon="6.15162">
        <ele>209</ele>
        <time>2012-03-17T14:35:45Z</time>
      </trkpt>
      <trkpt lat="48.68422" lon="6.15185">
        <ele>210</ele>
        <time>2012-03-17T14:35:47Z</time>
      </trkpt>
      <trkpt lat="48.68427" lon="6.15207">
        <ele>211</ele>
        <time>2012-03-17T14:35:49Z</time>
      </trkpt>
      <trkpt lat="48.68433" lon="6.1523">
        <ele>211</ele>
        <time>2012-03-17T14:35:51Z</time>
      </trkpt>
      <trkpt lat="48.68438" lon="6.15253">
        <ele>211</ele>
        <time>2012-03-17T14:35:53Z</time>
      </trkpt>
      <trkpt lat="48.68444" lon="6.15276">
        <ele>211</ele>
        <time>2012-03-17T14:35:55Z</time>
      </trkpt>
      <trkpt lat="48.68449" lon="6.15299">
        <ele>211</ele>
        <time>2012-03-17T14:35:57Z</time>
      </trkpt>
      <trkpt lat="48.68454" lon="6.15323">
        <ele>211</ele>
        <time>2012-03-17T14:35:59Z</time>
      </trkpt>
      <trkpt lat="48.68458" lon="6.15346">
        <ele>211</ele>
        <time>2012-03-17T14:36:01Z</time>
      </trkpt>
      <trkpt lat="48.68461" lon="6.15369">
        <ele>213</ele>
        <time>2012-03-17T14:36:03Z</time>
      </trkpt>
      <trkpt lat="48.68464" lon="6.15393">
        <ele>214</ele>
        <time>2012-03-17T14:36:05Z</time>
      </trkpt>
      <trkpt lat="48.68467" lon="6.15417">
        <ele>214</ele>
        <time>2012-03-17T14:36:07Z</time>
      </trkpt>
      <trkpt lat="48.68471" lon="6.1544">
        <ele>213</ele>
        <time>2012-03-17T14:36:09Z</time>
      </trkpt>
      <trkpt lat="48.68474" lon="6.15463">
        <ele>213</ele>
        <time>2012-03-17T14:36:11Z</time>
      </trkpt>
      <trkpt lat="48.68477" lon="6.15486">
        <ele>213</ele>
        <time>2012-03-17T14:36:13Z</time>
      </trkpt>
      <trkpt lat="48.6848" lon="6.15509">
        <ele>212</ele>
        <time>2012-03-17T14:36:15Z</time>
      </trkpt>
      <trkpt lat="48.68483" lon="6.15532">
        <ele>211</ele>
        <time>2012-03-17T14:36:17Z</time>
      </trkpt>
      <trkpt lat="48.68484" lon="6.15556">
        <ele>210</ele>
        <time>2012-03-17T14:36:19Z</time>
      </trkpt>
      <trkpt lat="48.68484" lon="6.1558">
        <ele>209</ele>
        <time>2012-03-17T14:36:21Z</time>
      </trkpt>
      <trkpt lat="48.68484" lon="6.15604">
        <ele>208</ele>
        <time>2012-03-17T14:36:23Z</time>
      </trkpt>
      <trkpt lat="48.68482" lon="6.15628">
        <ele>208</ele>
        <time>2012-03-17T14:36:25Z</time>
      </trkpt>
      <trkpt lat="48.68478" lon="6.15651">
        <ele>209</ele>
        <time>2012-03-17T14:36:27Z</time>
      </trkpt>
      <trkpt lat="48.68475" lon="6.15674">
        <ele>210</ele>
        <time>2012-03-17T14:36:29Z</time>
      </trkpt>
      <trkpt lat="48.68472" lon="6.15699">
        <ele>210</ele>
        <time>2012-03-17T14:36:31Z</time>
      </trkpt>
      <trkpt lat="48.68468" lon="6.15723">
        <ele>209</ele>
        <time>2012-03-17T14:36:33Z</time>
      </trkpt>
      <trkpt lat="48.68464" lon="6.15747">
        <ele>208</ele>
        <time>2012-03-17T14:36:35Z</time>
      </trkpt>
      <trkpt lat="48.68459" lon="6.15772">
        <ele>207</ele>
        <time>2012-03-17T14:36:37Z</time>
      </trkpt>
      <trkpt lat="48.68459" lon="6.15796">
        <ele>207</ele>
        <time>2012-03-17T14:36:39Z</time>
      </trkpt>
      <trkpt lat="48.68462" lon="6.15819">
        <ele>205</ele>
        <time>2012-03-17T14:36:41Z</time>
      </trkpt>
      <trkpt lat="48.68466" lon="6.1584">
        <ele>206</ele>
        <time>2012-03-17T14:36:43Z</time>
      </trkpt>
      <trkpt lat="48.68471" lon="6.1586">
        <ele>206</ele>
        <time>2012-03-17T14:36:45Z</time>
      </trkpt>
      <trkpt lat="48.68477" lon="6.1588">
        <ele>204</ele>
        <time>2012-03-17T14:36:47Z</time>
      </trkpt>
      <trkpt lat="48.68483" lon="6.15897">
        <ele>204</ele>
        <time>2012-03-17T14:36:49Z</time>
      </trkpt>
      <trkpt lat="48.6849" lon="6.15913">
        <ele>204</ele>
        <time>2012-03-17T14:36:51Z</time>
      </trkpt>
      <trkpt lat="48.68497" lon="6.15927">
        <ele>206</ele>
        <time>2012-03-17T14:36:53Z</time>
      </trkpt>
      <trkpt lat="48.68502" lon="6.15942">
        <ele>208</ele>
        <time>2012-03-17T14:36:55Z</time>
      </trkpt>
      <trkpt lat="48.68507" lon="6.15955">
        <ele>207</ele>
        <time>2012-03-17T14:36:57Z</time>
      </trkpt>
      <trkpt lat="48.68512" lon="6.15968">
        <ele>206</ele>
        <time>2012-03-17T14:36:59Z</time>
      </trkpt>
      <trkpt lat="48.68517" lon="6.15979">
        <ele>205</ele>
        <time>2012-03-17T14:37:01Z</time>
      </trkpt>
      <trkpt lat="48.68521" lon="6.15987">
        <ele>207</ele>
        <time>2012-03-17T14:37:03Z</time>
      </trkpt>
      <trkpt lat="48.68534" lon="6.15984">
        <ele>223</ele>
        <time>2012-03-17T14:37:09Z</time>
      </trkpt>
      <trkpt lat="48.68542" lon="6.15977">
        <ele>229</ele>
        <time>2012-03-17T14:37:13Z</time>
      </trkpt>
      <trkpt lat="48.6855" lon="6.15971">
        <ele>231</ele>
        <time>2012-03-17T14:37:17Z</time>
      </trkpt>
      <trkpt lat="48.68557" lon="6.15965">
        <ele>236</ele>
        <time>2012-03-17T14:37:27Z</time>
      </trkpt>
      <trkpt lat="48.68557" lon="6.15965">
        <ele>232</ele>
        <time>2012-03-17T14:37:31Z</time>
      </trkpt>
      <trkpt lat="48.68557" lon="6.15965">
        <ele>232</ele>
        <time>2012-03-17T14:37:57Z</time>
      </trkpt>
      <trkpt lat="48.68557" lon="6.15965">
        <ele>232</ele>
        <time>2012-03-17T14:38:01Z</time>
      </trkpt>
      <trkpt lat="48.68544" lon="6.15956">
        <ele>222</ele>
        <time>2012-03-17T14:38:01Z</time>
      </trkpt>
    </trkseg>
  </trk>
</gpx>